Date StartTime U_cm/s V_cm/s W_cm/s Ustd_cm/s Vstd_cm/s Wstd_cm/s Uvar_(cm/s)^2 Vvar_(cm/s)^2 Wvar_(cm/s)^2 KE_(m/s)^2 TurbulentKE_(m/s)^2 HorizWindSpeed_cm/s FrictionSpeec_cm/s DragCoef SpeedOfSound_m/s SonicTemperature_C Pressure_mb 
11/12/2013  00:00:00       97.707       34.862        6.651       27.880       21.773       18.517      777.312      474.080      342.897        0.620        0.080      103.740       11.891        0.013      337.711        9.870      867.858
11/12/2013  00:01:00       75.827       25.463       14.327       30.390       21.076       19.582      923.551      444.197      383.464        0.418        0.088       79.988       14.690        0.034      337.662        9.787      867.887
11/12/2013  00:02:00       58.625       21.934       11.858       17.773       14.788       14.503      315.884      218.687      210.345        0.240        0.037       62.594        9.750        0.024      337.580        9.648      867.934
11/12/2013  00:03:00       21.694       -6.679        4.463        8.546        6.629       10.368       73.039       43.937      107.488        0.038        0.011       22.699        5.034        0.049      337.611        9.700      867.979
11/12/2013  00:04:00        4.525        2.528        7.540        9.851       12.600       11.193       97.047      158.760      125.284        0.023        0.019        5.183        9.781        3.561      337.662        9.788      868.016
11/12/2013  00:05:00       24.443       24.055       19.354       10.768       13.643       10.137      115.947      186.133      102.754        0.098        0.020       34.294        3.046        0.008      337.570        9.632      868.029
11/12/2013  00:06:00       34.838       25.092       19.116       13.096       11.229        8.881      171.515      126.100       78.876        0.129        0.019       42.934        6.738        0.025      337.609        9.698      868.018
11/12/2013  00:07:00       32.877       -3.713        3.103       17.386       19.308       14.240      302.289      372.784      202.765        0.099        0.044       33.086       12.890        0.152      337.699        9.848      868.010
11/12/2013  00:08:00        8.363      -24.831       -2.981       21.700       16.748       13.614      470.874      280.479      185.343        0.082        0.047       26.201       10.016        0.146      337.790       10.001      868.002
11/12/2013  00:09:00      -46.932      -10.855        0.403       13.114       12.182        9.351      171.984      148.411       87.443        0.136        0.020       48.171        9.747        0.041      337.694        9.842      868.005
11/12/2013  00:10:00      -78.809      -51.374       -5.781       26.639       18.659       12.661      709.633      348.151      160.290        0.505        0.061       94.075        8.846        0.009      337.568        9.630      868.014
11/12/2013  00:11:00      -73.320      -45.169        3.947       31.251       26.758       19.130      976.636      716.000      365.945        0.474        0.103       86.116       17.139        0.040      337.556        9.609      868.035
11/12/2013  00:12:00      -74.495      -59.840       -1.757       26.062       17.390       13.460      679.208      302.428      181.178        0.515        0.058       95.552        7.897        0.007      337.579        9.649      868.066
11/12/2013  00:13:00      -76.995      -38.738        2.509       26.582       19.222       16.430      706.629      369.471      269.957        0.439        0.067       86.191       15.098        0.031      337.577        9.644      868.082
11/12/2013  00:14:00      -62.526      -16.719       -2.019       26.037       19.543       10.257      677.909      381.931      105.216        0.268        0.058       64.723       10.995        0.029      337.672        9.803      868.051
11/12/2013  00:15:00      -34.777       -0.397       -1.676       11.068        6.779        7.381      122.501       45.953       54.482        0.072        0.011       34.779        4.459        0.016      337.718        9.881      868.006
11/12/2013  00:16:00      -36.600       -7.370       -6.795        5.036        6.255        4.757       25.364       39.120       22.627        0.076        0.004       37.334        2.028        0.003      337.836       10.080      867.977
11/12/2013  00:17:00      -29.169       -8.407       -8.177       10.748        4.916        5.268      115.512       24.163       27.757        0.058        0.008       30.356        3.160        0.011      337.949       10.271      867.962
11/12/2013  00:18:00        7.029       -8.518       -4.974        9.448        8.031        6.451       89.257       64.503       41.618        0.017        0.010       11.044        4.841        0.192      337.886       10.162      867.959
11/12/2013  00:19:00        7.053        6.629        7.140        7.025        6.208        9.105       49.347       38.539       82.907        0.016        0.009        9.679        5.115        0.279      337.771        9.970      867.960
11/12/2013  00:20:00       13.841       -1.965        0.565        5.033        5.761        3.021       25.331       33.189        9.128        0.013        0.003       13.980        1.862        0.018      337.902       10.189      867.950
11/12/2013  00:21:00       10.717      -12.488       -0.230        7.596        9.014        4.925       57.694       81.256       24.255        0.022        0.008       16.456        4.374        0.071      338.025       10.397      867.934
11/12/2013  00:22:00        1.179      -21.449        2.526       12.997        9.616        6.925      168.934       92.462       47.953        0.039        0.015       21.481        4.582        0.046      338.018       10.382      867.929
11/12/2013  00:23:00        4.640      -16.122       -4.197       11.506        9.175        8.861      132.385       84.184       78.524        0.030        0.015       16.777        2.991        0.032      337.828       10.067      867.944
11/12/2013  00:24:00        3.844      -12.275        6.274        9.569       20.427        9.696       91.558      417.244       94.020        0.040        0.030       12.863        8.057        0.392      337.812       10.039      867.960
11/12/2013  00:25:00        8.620        6.996       14.749       12.843       11.397        9.894      164.944      129.885       97.889        0.037        0.020       11.101        6.173        0.309      337.602        9.686      867.978
11/12/2013  00:26:00        2.204      -16.238        2.920       25.051       15.950       12.676      627.538      254.388      160.673        0.066        0.052       16.387        9.800        0.358      337.692        9.838      868.017
11/12/2013  00:27:00      -63.882      -31.821       -3.811       34.419       19.343       11.345     1184.673      374.141      128.699        0.340        0.084       71.368       11.723        0.027      337.562        9.620      868.062
11/12/2013  00:28:00      -91.718      -82.313        2.030       37.750       41.606       19.120     1425.057     1731.079      365.578        0.936        0.176      123.238       16.964        0.019      337.460        9.449      868.092
11/12/2013  00:29:00     -125.488     -110.284       -2.418       57.242       48.177       29.706     3276.593     2321.004      882.445        1.720        0.324      167.063       33.480        0.040      337.597        9.678      868.112
11/12/2013  00:30:00      -86.974      -44.447        5.250       58.575       47.482       26.740     3431.063     2254.528      715.029        0.798        0.320       97.673       18.450        0.036      337.543        9.588      868.129
11/12/2013  00:31:00      -65.719      -34.571        1.024       38.799       32.117       23.578     1505.397     1031.523      555.942        0.430        0.155       74.257       24.808        0.112      337.477        9.477      868.142
11/12/2013  00:32:00      -13.313      -18.304        5.528       21.061       19.861       15.248      443.567      394.448      232.492        0.081        0.054       22.634       10.603        0.219      337.475        9.473      868.128
11/12/2013  00:33:00      -29.379      -15.497        8.692       23.666       13.661       12.989      560.075      186.623      168.722        0.105        0.046       33.216       12.933        0.152      337.453        9.437      868.113
11/12/2013  00:34:00      -18.874      -33.053       -4.099       10.706       19.182        7.593      114.615      367.944       57.650        0.100        0.027       38.063        4.061        0.011      337.569        9.630      868.092
11/12/2013  00:35:00       -8.516       21.915        1.566       12.494        9.614        7.890      156.106       92.420       62.252        0.043        0.016       23.512        1.131        0.002      337.498        9.511      868.064
11/12/2013  00:36:00        5.515       11.584        5.689        7.173        7.854        6.289       51.457       61.685       39.552        0.017        0.008       12.830        4.839        0.142      337.540        9.582      868.059
11/12/2013  00:37:00      -11.598       -3.116       -2.379        8.904        4.198        6.402       79.279       17.620       40.990        0.014        0.007       12.009        5.176        0.186      337.575        9.642      868.064
11/12/2013  00:38:00      -27.645       -7.534       -1.955       15.056       15.848        9.572      226.669      251.151       91.625        0.070        0.028       28.653        8.615        0.090      337.634        9.740      868.069
11/12/2013  00:39:00     -105.315      -23.031       -3.801       21.379       19.726       12.311      457.044      389.119      151.569        0.632        0.050      107.804        4.978        0.002      337.439        9.416      868.071
11/12/2013  00:40:00     -111.469      -46.929        4.628       33.745       20.636       16.819     1138.758      425.843      282.884        0.825        0.092      120.945       17.949        0.022      337.327        9.226      868.083
11/12/2013  00:41:00     -124.486      -43.114        2.542       32.714       16.502       11.417     1070.179      272.308      130.351        0.942        0.074      131.741        9.362        0.005      337.348        9.261      868.099
11/12/2013  00:42:00      -96.379        1.961       -6.554       22.935       16.215       13.255      526.008      262.916      175.684        0.515        0.048       96.399       13.288        0.019      337.340        9.249      868.105
11/12/2013  00:43:00      -51.002       -8.268       -1.502       28.306       17.487       12.119      801.202      305.804      146.878        0.196        0.063       51.668       11.273        0.048      337.335        9.239      868.102
11/12/2013  00:44:00      -17.098      -13.942        3.851       15.851       18.431        8.844      251.261      339.705       78.218        0.059        0.033       22.061        7.488        0.115      337.433        9.403      868.101
11/12/2013  00:45:00      -78.863      -16.202       -4.126       19.358       16.503        9.473      374.749      272.342       89.742        0.362        0.037       80.510        8.559        0.011      337.416        9.375      868.095
11/12/2013  00:46:00      -93.820      -28.743       -8.586       18.406       19.876       13.155      338.782      395.067      173.059        0.530        0.045       98.124       11.332        0.013      337.199        9.011      868.086
11/12/2013  00:47:00      -73.756      -37.388       -3.002       38.140       18.052       16.606     1454.650      325.857      275.767        0.445        0.103       82.691        5.653        0.005      337.212        9.035      868.096
11/12/2013  00:48:00      -79.738      -38.737       -2.903       36.099       27.380       18.872     1303.113      749.674      356.138        0.514        0.120       88.649       19.893        0.050      337.162        8.950      868.112
11/12/2013  00:49:00     -100.741      -14.945       -7.897       28.245       23.129       18.063      797.783      534.929      326.267        0.605        0.083      101.844       15.780        0.024      337.078        8.809      868.129
11/12/2013  00:50:00     -106.402      -22.528       -8.744       43.741       40.078       16.440     1913.318     1606.277      270.271        0.785        0.189      108.761       18.408        0.029      337.028        8.725      868.155
11/12/2013  00:51:00     -111.290       14.522      -12.443       42.942       25.770       14.723     1843.998      664.107      216.780        0.774        0.136      112.234       17.859        0.025      337.082        8.816      868.155
11/12/2013  00:52:00      -47.776       37.207       -3.892       39.729       25.056       18.503     1578.372      627.786      342.367        0.311        0.127       60.555       13.095        0.047      337.401        9.349      868.128
11/12/2013  00:53:00      -56.229       74.941       -9.264       17.898       21.101       15.282      320.354      445.255      233.546        0.493        0.050       93.690       12.203        0.017      337.798       10.016      868.109
11/12/2013  00:54:00      -28.253       62.916       -5.015       13.188       19.415       10.087      173.923      376.951      101.743        0.272        0.033       68.968       10.513        0.023      337.768        9.967      868.105
11/12/2013  00:55:00       -0.276       61.521       -1.880       16.885       22.994       12.335      285.111      528.722      152.141        0.238        0.048       61.522       12.021        0.038      337.671        9.803      868.093
11/12/2013  00:56:00        8.846       78.149       -1.985       17.533       22.422       11.887      307.393      502.741      141.307        0.357        0.048       78.648        8.130        0.011      337.410        9.364      868.063
11/12/2013  00:57:00       11.942       57.217      -11.032       12.171       18.951        9.098      148.145      359.137       82.779        0.206        0.030       58.450       10.224        0.031      337.377        9.310      868.031
11/12/2013  00:58:00        7.675       83.943       -8.737       16.121       25.171       12.909      259.872      633.588      166.633        0.412        0.053       84.293       12.326        0.021      337.550        9.599      868.023
11/12/2013  00:59:00        3.375       10.701        3.276       24.168       34.968       11.361      584.096     1222.733      129.073        0.104        0.097       11.221        9.770        0.758      337.444        9.422      868.040
11/12/2013  01:00:00      -18.605        4.737        0.344       17.424       15.136        9.978      303.607      229.091       99.569        0.050        0.032       19.199        9.805        0.261      337.451        9.431      868.046
11/12/2013  01:01:00      -57.698        4.565      -11.993       17.921       15.746        9.009      321.152      247.924       81.163        0.207        0.033       57.879        6.497        0.013      337.237        9.078      868.020
11/12/2013  01:02:00      -52.149      -37.578      -13.301       24.088       15.834       12.795      580.240      250.723      163.709        0.265        0.050       64.278        9.630        0.022      337.145        8.921      868.009
11/12/2013  01:03:00      -49.953      -29.656        2.125       29.562       19.224       18.279      873.934      369.553      334.131        0.248        0.079       58.092       15.851        0.074      337.067        8.790      868.008
11/12/2013  01:04:00      -69.223      -14.236      -19.031       13.133       12.412        8.018      172.484      154.051       64.293        0.287        0.020       70.672        6.865        0.009      337.121        8.880      867.997
11/12/2013  01:05:00      -42.803      -28.685       -9.831       17.095       13.642       13.695      292.242      186.103      187.561        0.171        0.033       51.526       11.493        0.050      337.117        8.873      867.985
11/12/2013  01:06:00      -23.738      -11.496      -12.332       13.511       15.407        8.443      182.550      237.390       71.277        0.067        0.025       26.376        5.781        0.048      337.402        9.352      867.999
11/12/2013  01:07:00      -25.515      -20.169       -8.828       14.190       13.939        8.531      201.362      194.301       72.779        0.080        0.023       32.524        6.205        0.036      337.266        9.124      868.020
11/12/2013  01:08:00      -46.137      -31.700        1.079       22.600       12.813       11.208      510.773      164.174      125.622        0.197        0.040       55.978        8.230        0.022      337.017        8.708      868.054
11/12/2013  01:09:00      -71.964      -18.713       -9.642        9.809       13.155        6.726       96.223      173.056       45.232        0.297        0.016       74.357        6.529        0.008      337.025        8.720      868.073
11/12/2013  01:10:00      -63.604       -6.713      -12.834       11.428       10.113        7.374      130.594      102.282       54.382        0.227        0.014       63.958        5.625        0.008      337.139        8.910      868.062
11/12/2013  01:11:00      -45.964        6.305      -10.316       18.974       12.564       10.399      360.024      157.864      108.147        0.144        0.031       46.395        6.475        0.019      337.480        9.483      868.036
11/12/2013  01:12:00        5.882       18.955        0.376       30.670       17.246        9.053      940.621      297.426       81.950        0.086        0.066       19.847       13.357        0.453      337.817       10.047      868.025
11/12/2013  01:13:00       42.933      -28.861       -5.281        9.251       14.010        8.277       85.586      196.292       68.509        0.153        0.018       51.731        3.957        0.006      337.450        9.431      868.016
11/12/2013  01:14:00        3.908      -21.872        3.670       14.490        8.398        8.440      209.970       70.521       71.233        0.043        0.018       22.219        4.224        0.036      337.646        9.761      868.002
11/12/2013  01:15:00      -54.580      -25.534       -8.178       11.368        9.936        8.044      129.227       98.721       64.701        0.200        0.015       60.258        6.033        0.010      337.041        8.745      867.979
11/12/2013  01:16:00      -60.404      -22.621      -11.833        5.448        6.783        6.072       29.677       46.008       36.869        0.221        0.006       64.501        2.492        0.001      337.015        8.702      867.952
11/12/2013  01:17:00      -46.309      -18.168       -0.569       10.980       14.366       10.048      120.569      206.375      100.959        0.145        0.021       49.745        8.443        0.029      337.311        9.198      867.936
11/12/2013  01:18:00      -23.302      -31.590       -4.408       13.952       11.785        6.171      194.656      138.886       38.083        0.097        0.019       39.255        5.212        0.018      337.287        9.159      867.945
11/12/2013  01:19:00        7.162      -33.999       -4.072        9.613       14.063        9.474       92.410      197.770       89.753        0.080        0.019       34.745        1.376        0.002      337.438        9.410      867.963
11/12/2013  01:20:00      -23.562      -17.168       -9.106       29.397       15.311        7.893      864.211      234.426       62.306        0.105        0.058       29.153        6.164        0.045      337.381        9.316      867.954
11/12/2013  01:21:00      -75.305        4.698      -13.471       13.854       11.890       10.707      191.938      141.376      114.649        0.316        0.022       75.451        6.959        0.009      337.014        8.701      867.922
11/12/2013  01:22:00      -69.932       -7.099      -15.376       13.767       10.944        7.539      189.518      119.762       56.841        0.277        0.018       70.292        6.870        0.010      337.010        8.694      867.914
11/12/2013  01:23:00      -35.530      -36.533      -14.103       21.404       14.861       11.632      458.125      220.861      135.299        0.180        0.041       50.961        5.513        0.012      336.991        8.664      867.952
11/12/2013  01:24:00      -21.824      -36.957       -4.724       19.834       25.789       14.749      393.376      665.078      217.519        0.157        0.064       42.920       11.546        0.072      336.961        8.612      867.999
11/12/2013  01:25:00      -60.109       -8.904       -9.906       17.844       21.494       15.745      318.406      461.998      247.902        0.241        0.051       60.765        8.979        0.022      337.192        9.000      867.997
11/12/2013  01:26:00      -96.302       28.951      -15.399       18.586       18.963       10.039      345.445      359.585      100.788        0.558        0.040      100.559       12.867        0.016      337.145        8.920      867.940
11/12/2013  01:27:00      -85.962       53.905      -17.941       33.514       25.238       20.667     1123.170      636.962      427.139        0.640        0.109      101.465       20.449        0.041      337.129        8.895      867.884
11/12/2013  01:28:00      -44.329       -5.832      -10.785       29.936       35.501       13.007      896.167     1260.345      169.173        0.222        0.116       44.711       10.148        0.052      337.012        8.698      867.894
11/12/2013  01:29:00        3.177      -82.499      -14.329       22.617       19.516       17.189      511.534      380.891      295.445        0.410        0.059       82.561        8.732        0.011      337.037        8.740      867.957
11/12/2013  01:30:00      -55.991      -26.389       -9.827       36.936       37.368       18.544     1364.276     1396.338      343.895        0.352        0.155       61.898       16.012        0.067      337.015        8.702      867.996
11/12/2013  01:31:00      -99.339       38.177      -10.760       29.723       19.654       15.454      883.466      386.270      238.826        0.647        0.075      106.422       15.543        0.021      336.923        8.550      867.955
11/12/2013  01:32:00      -65.450       32.804       -5.825       28.659       28.293       19.145      821.327      800.515      366.537        0.369        0.099       73.211       16.466        0.051      336.792        8.332      867.912
11/12/2013  01:33:00      -23.520      -42.996       -0.679       24.768       33.564       13.900      613.452     1126.521      193.203        0.217        0.097       49.009       12.292        0.063      336.936        8.571      867.968
11/12/2013  01:34:00      -55.600      -72.721       -9.157       39.684       36.538       16.604     1574.828     1335.037      275.693        0.582        0.159       91.541       19.494        0.045      337.081        8.813      868.039
11/12/2013  01:35:00     -118.425      -39.865      -12.424       28.534       35.305       19.353      814.211     1246.432      374.537        0.910        0.122      124.955       18.462        0.022      337.092        8.833      868.019
11/12/2013  01:36:00     -106.938       50.521      -14.576       21.200       26.581       16.678      449.423      706.573      278.156        0.782        0.072      118.271       11.453        0.009      337.020        8.713      867.945
11/12/2013  01:37:00      -41.746       66.759       -8.683       34.077       37.818       16.295     1161.256     1430.167      265.531        0.457        0.143       78.737       24.309        0.095      337.116        8.873      867.901
11/12/2013  01:38:00       26.737        0.908        1.172       21.105       33.826       16.371      445.426     1144.222      268.020        0.129        0.093       26.752        9.249        0.120      337.186        8.992      867.925
11/12/2013  01:39:00      -10.540      -33.704       -9.176       41.634       19.521       15.095     1733.407      381.071      227.860        0.184        0.117       35.313       19.734        0.312      337.199        9.013      867.960
11/12/2013  01:40:00     -103.774      -15.948      -11.265       27.455       20.164       13.701      753.790      406.580      187.714        0.625        0.067      104.992       10.214        0.009      337.058        8.774      867.968
11/12/2013  01:41:00     -122.777       10.303      -17.161       31.223       24.561       16.247      974.856      603.264      263.959        0.866        0.092      123.209       11.552        0.009      336.962        8.614      867.954
11/12/2013  01:42:00      -42.848       -2.804      -11.796       32.108       26.262       16.971     1030.903      689.687      287.999        0.200        0.100       42.940       15.254        0.126      336.972        8.633      867.971
11/12/2013  01:43:00      -20.097      -58.894       -1.265       22.609       12.627       10.241      511.169      159.443      104.870        0.232        0.039       62.228        5.945        0.009      337.092        8.833      868.021
11/12/2013  01:44:00     -109.135      -46.052      -18.395       44.167       23.343       13.588     1950.765      544.917      184.641        0.852        0.134      118.454       16.010        0.018      336.996        8.669      868.022
11/12/2013  01:45:00     -139.303      -33.604      -11.675       41.349       31.571       21.860     1709.761      996.750      477.874        1.193        0.159      143.299       22.499        0.025      336.959        8.610      867.986
11/12/2013  01:46:00      -96.199      -20.952       -1.803       46.617       33.019       23.716     2173.108     1090.265      562.461        0.676        0.191       98.454       23.176        0.055      336.920        8.544      867.967
11/12/2013  01:47:00      -68.097      -12.576        0.482       38.642       34.389       20.947     1493.199     1182.631      438.783        0.395        0.156       69.248       19.317        0.078      336.939        8.575      867.985
11/12/2013  01:48:00      -57.107        6.531        4.298       44.136       26.237       22.960     1948.022      688.388      527.172        0.324        0.158       57.479       24.314        0.179      336.955        8.602      867.986
11/12/2013  01:49:00      -95.206      -12.972       -9.389       24.186       15.321       15.009      584.939      234.724      225.260        0.518        0.052       96.085       13.791        0.021      336.908        8.524      867.973
11/12/2013  01:50:00      -64.575       -6.320       -1.375       20.507       19.665       14.235      420.542      386.695      202.637        0.261        0.050       64.883       12.179        0.035      336.909        8.527      867.961
11/12/2013  01:51:00      -59.241       22.476      -11.297       17.552       22.842       14.271      308.070      521.771      203.658        0.259        0.052       63.361       11.439        0.033      337.100        8.846      867.930
11/12/2013  01:52:00      -68.341       27.899      -10.822       20.208       22.745       10.839      408.364      517.344      117.475        0.330        0.052       73.816       10.446        0.020      337.241        9.081      867.900
11/12/2013  01:53:00      -39.143      -17.637       -5.020       20.633       17.311        9.073      425.706      299.667       82.325        0.134        0.040       42.933        3.142        0.005      337.228        9.061      867.919
11/12/2013  01:54:00        3.184      -29.881       -4.660       21.530       23.333       15.056      463.525      544.415      226.674        0.108        0.062       30.050        8.436        0.079      337.236        9.077      867.936
11/12/2013  01:55:00     -109.171      -53.282      -16.130       20.762       15.943       12.181      431.043      254.188      148.388        0.793        0.042      121.479        7.274        0.004      336.983        8.649      867.939
11/12/2013  01:56:00     -111.298      -52.719       -6.435       23.097       25.048       13.815      533.482      627.413      190.847        0.828        0.068      123.152       10.774        0.008      336.902        8.514      867.929
11/12/2013  01:57:00      -56.840      -47.686      -10.731       20.986       20.775       17.903      440.421      431.612      320.506        0.341        0.060       74.194       14.364        0.037      337.056        8.772      867.931
11/12/2013  01:58:00      -77.618       -6.418      -10.632       15.755       14.802       10.703      248.223      219.097      114.555        0.338        0.029       77.883        9.243        0.014      337.070        8.795      867.918
11/12/2013  01:59:00      -79.132       18.470      -12.404       13.933        7.566        6.855      194.134       57.238       46.984        0.353        0.015       81.259        3.211        0.002      337.103        8.848      867.914
11/12/2013  02:00:00      -62.983       -3.418      -15.830        9.176       10.428        5.551       84.208      108.735       30.818        0.223        0.011       63.076        4.027        0.004      337.198        9.011      867.914
11/12/2013  02:01:00      -80.474      -29.938      -12.827       14.977       17.173       10.778      224.322      294.921      116.157        0.409        0.032       85.862        9.669        0.013      337.161        8.949      867.916
11/12/2013  02:02:00     -128.846      -61.218      -16.153       18.680       17.437       10.244      348.959      304.062      104.930        1.068        0.038      142.650        6.392        0.002      337.055        8.770      867.910
11/12/2013  02:03:00     -130.192      -60.342      -14.759       20.255       36.453       15.040      410.265     1328.856      226.196        1.139        0.098      143.496        9.237        0.004      337.005        8.686      867.899
11/12/2013  02:04:00     -123.328      -42.840      -10.379       17.834       24.207       11.755      318.054      585.991      138.190        0.910        0.052      130.557        7.076        0.003      337.036        8.739      867.881
11/12/2013  02:05:00     -110.793      -51.969      -13.648       18.751       28.056       13.514      351.600      787.145      182.628        0.824        0.066      122.376        5.806        0.002      337.016        8.705      867.868
11/12/2013  02:06:00      -78.915      -43.273        0.493       37.214       35.173       21.303     1384.884     1237.119      453.808        0.559        0.154       90.001       17.152        0.036      337.084        8.819      867.882
11/12/2013  02:07:00      -66.146      -20.489        2.148       37.764       34.264       19.509     1426.134     1174.048      380.600        0.389        0.149       69.247       17.295        0.062      337.093        8.832      867.908
11/12/2013  02:08:00     -148.581      -75.663      -12.841       41.794       27.592       22.935     1746.762      761.306      525.997        1.550        0.152      166.737       16.649        0.010      337.028        8.726      867.935
11/12/2013  02:09:00     -166.448      -60.755       -5.081       50.265       32.233       25.870     2526.548     1038.942      669.254        1.783        0.212      177.189       26.769        0.023      336.986        8.655      867.940
11/12/2013  02:10:00     -120.382      -26.216       -5.651       36.274       31.319       19.916     1315.784      980.857      396.639        0.895        0.135      123.203       18.123        0.022      336.978        8.639      867.955
11/12/2013  02:11:00     -117.096      -35.026       -3.512       36.263       32.614       21.206     1315.036     1063.699      449.681        0.889        0.141      122.223       19.713        0.026      337.017        8.707      867.982
11/12/2013  02:12:00     -122.326      -58.562      -10.073       24.106       20.463       16.572      581.088      418.743      274.622        0.988        0.064      135.621       11.931        0.008      337.031        8.729      867.986
11/12/2013  02:13:00     -111.869      -58.761       -9.462       26.425       19.397       15.114      698.273      376.227      228.427        0.868        0.065      126.363        6.051        0.002      337.040        8.745      867.992
11/12/2013  02:14:00     -115.106      -47.129       -6.527       22.614       25.010       12.838      511.393      625.489      164.801        0.841        0.065      124.381       10.224        0.007      337.004        8.683      868.011
11/12/2013  02:15:00      -84.916      -46.913        1.256       31.754       25.472       18.335     1008.290      648.805      336.158        0.570        0.100       97.013       16.072        0.027      337.035        8.736      868.036
11/12/2013  02:16:00      -84.445      -52.173       -3.602       33.890       24.452       17.308     1148.499      597.881      299.576        0.596        0.102       99.262       15.900        0.026      337.078        8.809      868.051
11/12/2013  02:17:00      -46.797      -38.744        5.764       51.505       35.714       28.143     2652.728     1275.523      792.038        0.422        0.236       60.754       29.036        0.228      337.129        8.895      868.048
11/12/2013  02:18:00      -24.744      -36.323       13.527       46.069       29.395       20.788     2122.371      864.043      432.160        0.277        0.171       43.951       26.022        0.351      337.151        8.931      868.055
11/12/2013  02:19:00      -34.080      -51.875       -1.426       22.621       16.013       17.682      511.704      256.401      312.644        0.247        0.054       62.068       13.146        0.045      337.184        8.989      868.045
11/12/2013  02:20:00      -71.665      -36.467        4.462       36.619       31.976       18.290     1340.929     1022.451      334.515        0.459        0.135       80.410       13.933        0.030      337.164        8.954      868.033
11/12/2013  02:21:00      -55.344      -54.973        4.451       43.088       28.908       23.548     1856.574      835.688      554.498        0.468        0.162       78.006       22.196        0.081      337.174        8.970      868.046
11/12/2013  02:22:00      -71.914      -49.260        3.847       42.288       31.065       22.007     1788.238      965.010      484.290        0.542        0.162       87.167       23.648        0.074      337.129        8.895      868.058
11/12/2013  02:23:00      -61.391      -42.649       11.640       39.521       26.175       19.474     1561.929      685.152      379.225        0.417        0.131       74.751       19.114        0.065      337.128        8.893      868.056
11/12/2013  02:24:00      -50.500      -33.034        5.223       39.150       34.993       21.388     1532.749     1224.529      457.434        0.344        0.161       60.345       24.766        0.168      337.147        8.925      868.055
11/12/2013  02:25:00       -9.478      -16.682        4.820       28.142       14.637       13.982      791.944      214.240      195.507        0.080        0.060       19.187       11.153        0.338      337.176        8.975      868.061
11/12/2013  02:26:00      -52.525      -37.841        4.331       41.335       40.035       22.074     1708.543     1602.799      487.268        0.400        0.190       64.736       22.231        0.118      337.112        8.866      868.059
11/12/2013  02:27:00     -117.254      -77.593        2.629       47.685       37.768       32.470     2273.868     1426.446     1054.314        1.226        0.238      140.603       32.443        0.053      337.098        8.842      868.068
11/12/2013  02:28:00     -114.326      -78.446        2.854       35.660       33.583       21.525     1271.619     1127.808      463.336        1.105        0.143      138.652       17.570        0.016      337.066        8.788      868.069
11/12/2013  02:29:00      -79.453      -54.985        2.257       35.798       38.415       18.387     1281.467     1475.701      338.095        0.622        0.155       96.624       16.025        0.028      337.081        8.813      868.066
11/12/2013  02:30:00      -79.312      -24.843        0.716       35.463       19.996       15.304     1257.617      399.846      234.228        0.440        0.095       83.111       18.342        0.049      337.164        8.953      868.066
11/12/2013  02:31:00      -21.604      -51.364        1.949       33.599       28.198       16.110     1128.896      795.124      259.519        0.265        0.109       55.722       13.423        0.058      337.223        9.053      868.068
11/12/2013  02:32:00     -108.840      -61.299      -15.536       19.890       21.532       13.271      395.602      463.625      176.107        0.844        0.052      124.915        9.457        0.006      337.165        8.954      868.057
11/12/2013  02:33:00      -55.027      -37.477        6.533       38.296       24.741       17.717     1466.564      612.118      313.905        0.343        0.120       66.577       19.808        0.089      337.199        9.014      868.049
11/12/2013  02:34:00      -85.690      -41.837        5.396       42.879       22.668       16.576     1838.581      513.841      274.777        0.587        0.131       95.358       20.133        0.045      337.205        9.025      868.055
11/12/2013  02:35:00      -55.463      -23.194        2.426       27.261       16.285       16.868      743.144      265.190      284.544        0.246        0.065       60.117       13.681        0.052      337.186        8.992      868.064
11/12/2013  02:36:00      -43.709      -36.424       -6.208       13.043       11.664        9.268      170.115      136.051       85.887        0.183        0.020       56.897        4.936        0.008      337.267        9.124      868.077
11/12/2013  02:37:00      -74.849      -41.551       -5.894       16.959       10.958        7.173      287.615      120.070       51.458        0.391        0.023       85.609        4.908        0.003      337.202        9.017      868.097
11/12/2013  02:38:00     -114.083      -51.061       -7.689       13.194       19.529       11.756      174.088      381.363      138.206        0.819        0.035      124.989        9.164        0.005      337.151        8.931      868.123
11/12/2013  02:39:00      -83.251      -51.876        3.733       30.419       18.621       16.418      925.308      346.749      269.539        0.559        0.077       98.091       14.133        0.021      337.129        8.896      868.140
11/12/2013  02:40:00      -42.998      -15.329        5.645       26.833       18.363       14.689      719.992      337.218      215.779        0.169        0.064       45.648       14.758        0.105      337.176        8.973      868.140
11/12/2013  02:41:00      -38.462      -46.641        2.532       26.740       19.757       13.725      715.044      390.338      188.381        0.248        0.065       60.454       15.681        0.067      337.317        9.210      868.140
11/12/2013  02:42:00      -56.438      -29.952       -4.317       17.911       22.552       11.417      320.787      508.586      130.343        0.253        0.048       63.894       11.069        0.030      337.442        9.418      868.141
11/12/2013  02:43:00      -72.987        0.148       -4.848        9.988       13.470        8.908       99.760      181.435       79.348        0.286        0.018       72.987        4.662        0.004      337.416        9.374      868.134
11/12/2013  02:44:00      -94.012      -10.738       -9.207        9.821       13.886        8.590       96.455      192.819       73.793        0.470        0.018       94.624        4.963        0.003      337.373        9.302      868.120
11/12/2013  02:45:00      -66.421      -32.009       -4.514       24.147       15.923       10.328      583.063      253.556      106.669        0.320        0.047       73.732        8.982        0.015      337.265        9.123      868.133
11/12/2013  02:46:00       -8.007      -39.666       -2.761       12.439       13.819        8.968      154.737      190.978       80.424        0.104        0.021       40.466        6.615        0.027      337.262        9.117      868.141
11/12/2013  02:47:00       -1.277       -9.031        6.286        7.077       12.867        6.355       50.089      165.558       40.386        0.019        0.013        9.121        7.657        0.705      337.311        9.198      868.135
11/12/2013  02:48:00       14.553        9.769        2.695       10.231        6.726        6.226      104.669       45.244       38.758        0.025        0.009       17.528        4.931        0.079      337.368        9.296      868.123
11/12/2013  02:49:00        0.390       23.957        8.953       14.998       12.316       10.169      224.932      151.683      103.416        0.057        0.024       23.960       10.490        0.192      337.521        9.551      868.093
11/12/2013  02:50:00      -23.651        3.194       -4.119       11.223       24.194        6.301      125.951      585.365       39.703        0.067        0.038       23.866        4.637        0.038      337.574        9.639      868.086
11/12/2013  02:51:00        6.929      -64.044      -10.540       20.502       15.637       10.986      420.317      244.509      120.699        0.252        0.039       64.418       12.810        0.040      337.528        9.563      868.101
11/12/2013  02:52:00       -0.886      -53.160      -19.208       30.543       30.342       12.410      932.864      920.633      154.011        0.260        0.100       53.167        4.518        0.007      337.576        9.643      868.102
11/12/2013  02:53:00      -76.193      -23.221       -5.688       40.154       27.032       14.959     1612.338      730.724      223.771        0.447        0.128       79.653       11.457        0.021      337.595        9.675      868.089
11/12/2013  02:54:00      -94.004      -27.254       -2.396       34.702       36.632       15.546     1204.249     1341.888      241.666        0.619        0.139       97.875       11.468        0.014      337.401        9.350      868.077
11/12/2013  02:55:00      -81.436      -27.646       -0.648       36.158       18.666       18.747     1307.417      348.415      351.462        0.470        0.100       86.000       20.994        0.060      337.106        8.854      868.095
11/12/2013  02:56:00      -37.288      -51.365       -0.129       20.256       15.200        9.577      410.308      231.028       91.720        0.238        0.037       63.473        6.662        0.011      337.318        9.211      868.119
11/12/2013  02:57:00      -32.427      -19.082        2.667       26.882       27.974       15.292      722.650      782.556      233.835        0.158        0.087       37.625       19.387        0.265      337.417        9.376      868.092
11/12/2013  02:58:00      -52.460      -22.703       -7.231       13.686       15.497       11.843      187.295      240.150      140.265        0.194        0.028       57.162        6.879        0.014      337.521        9.552      868.065
11/12/2013  02:59:00      -68.891      -43.747       -2.558       30.738       16.419       12.305      944.802      269.575      151.409        0.402        0.068       81.608       12.343        0.023      337.329        9.228      868.070
11/12/2013  03:00:00      -38.844      -32.062       -1.506       20.726       12.531       13.807      429.554      157.016      190.643        0.166        0.039       50.367       11.653        0.054      337.317        9.209      868.086
11/12/2013  03:01:00      -30.579      -17.481        7.158       24.471       20.766       15.620      598.830      431.219      243.973        0.128        0.064       35.223       13.185        0.140      337.279        9.147      868.098
11/12/2013  03:02:00      -61.101      -23.413       -1.688       24.516       19.872       13.054      601.015      394.893      170.406        0.273        0.058       65.434       10.304        0.025      337.240        9.081      868.085
11/12/2013  03:03:00      -22.775        0.259        6.881       17.182       16.282       11.746      295.212      265.100      137.963        0.063        0.035       22.776       10.015        0.193      337.264        9.122      868.055
11/12/2013  03:04:00      -51.454      -35.023       -1.467       29.053       24.356       11.676      844.099      593.208      136.329        0.272        0.079       62.243       14.927        0.058      337.249        9.096      868.028
11/12/2013  03:05:00      -99.224      -29.005      -12.932       16.480       14.516       10.735      271.605      210.727      115.250        0.573        0.030      103.377        7.172        0.005      337.221        9.049      868.027
11/12/2013  03:06:00     -118.279      -34.628       -7.060       25.591       20.636       16.686      654.878      425.861      278.429        0.830        0.068      123.243       14.218        0.013      337.057        8.774      868.060
11/12/2013  03:07:00      -78.979      -28.499       -0.143       38.870       17.799       18.443     1510.842      316.803      340.140        0.461        0.108       83.963       18.828        0.050      337.035        8.737      868.089
11/12/2013  03:08:00      -81.507      -29.197       -6.000       30.924       14.483       11.195      956.296      209.761      125.319        0.441        0.065       86.578       12.056        0.019      337.042        8.748      868.105
11/12/2013  03:09:00     -103.855      -23.668       -3.147       22.761       21.145       13.956      518.069      447.118      194.780        0.626        0.058      106.518       11.448        0.012      337.034        8.734      868.095
11/12/2013  03:10:00      -83.431      -29.863       -2.665       27.748       15.548       13.782      769.924      241.726      189.952        0.453        0.060       88.615       13.087        0.022      337.063        8.783      868.067
11/12/2013  03:11:00      -45.853      -17.077       -2.988       15.519       12.433        7.388      240.852      154.577       54.580        0.143        0.023       48.930        5.345        0.012      337.003        8.681      868.042
11/12/2013  03:12:00        4.709       -4.544        1.607        8.272        4.845        6.119       68.421       23.478       37.437        0.009        0.006        6.544        3.683        0.317      337.033        8.731      868.023
11/12/2013  03:13:00       19.735       -0.381        1.207       10.689        6.344        8.261      114.262       40.243       68.238        0.031        0.011       19.739        4.941        0.063      337.126        8.886      868.033
11/12/2013  03:14:00        2.773       -0.609       -4.084       11.101        5.821        3.877      123.228       33.880       15.032        0.010        0.009        2.839        4.763        2.815      337.190        8.995      868.070
11/12/2013  03:15:00      -16.768      -16.928       -2.235       17.337       13.165       10.053      300.589      173.328      101.065        0.057        0.029       23.827        6.513        0.075      337.180        8.980      868.120
11/12/2013  03:16:00      -57.708      -17.022       -5.297       13.304       10.077        6.243      176.990      101.552       38.976        0.198        0.016       60.167        4.299        0.005      337.126        8.890      868.138
11/12/2013  03:17:00      -27.609        7.147       -3.778       15.574        6.699        3.673      242.534       44.875       13.490        0.056        0.015       28.519        2.394        0.007      337.068        8.791      868.133
11/12/2013  03:18:00        1.865       -1.513       -1.054        8.195        5.889        4.406       67.151       34.684       19.415        0.006        0.006        2.402        4.501        3.513      337.233        9.069      868.120
11/12/2013  03:19:00       58.818       34.478       20.532       38.398       16.505       20.076     1474.369      272.428      403.028        0.361        0.107       68.178       14.632        0.046      337.129        8.894      868.114
11/12/2013  03:20:00       66.440       48.391       41.968       36.758       38.247       38.629     1351.172     1462.862     1492.173        0.641        0.215       82.194       32.128        0.153      337.040        8.744      868.109
11/12/2013  03:21:00       46.490       64.266       53.318       27.974       30.851       26.880      782.520      951.765      722.523        0.580        0.123       79.318       19.405        0.060      337.061        8.779      868.114
11/12/2013  03:22:00       64.180       36.925       37.135       30.117       21.516       31.552      907.053      462.952      995.543        0.461        0.118       74.044       21.028        0.081      337.041        8.746      868.116
11/12/2013  03:23:00       71.247       52.039       37.739       23.927       22.807       21.908      572.484      520.142      479.963        0.539        0.079       88.228       14.067        0.025      336.997        8.671      868.128
11/12/2013  03:24:00       84.580       48.121       17.425       21.149       22.872       20.546      447.265      523.142      422.147        0.558        0.070       97.310        6.761        0.005      336.983        8.648      868.144
11/12/2013  03:25:00       56.450       30.219       -3.026       30.749       25.201       15.691      945.477      635.077      246.202        0.297        0.091       64.029       13.860        0.047      336.917        8.540      868.144
11/12/2013  03:26:00       68.170       41.107        8.833       20.763       16.678       20.856      431.113      278.155      434.954        0.378        0.057       79.605        9.589        0.015      336.881        8.481      868.131
11/12/2013  03:27:00       66.239       42.160        7.420       14.511       14.842       12.732      210.562      220.294      162.098        0.341        0.030       78.518        9.440        0.014      336.869        8.459      868.132
11/12/2013  03:28:00       65.922       31.116        5.523       22.131       17.245       16.274      489.800      297.387      264.853        0.320        0.053       72.897        9.908        0.018      336.901        8.512      868.142
11/12/2013  03:29:00       56.965       21.585        1.758       24.468       22.553       13.428      598.681      508.623      180.314        0.250        0.064       60.917        5.682        0.009      336.910        8.529      868.159
11/12/2013  03:30:00       25.355       20.479        4.574       17.140       12.727       10.089      293.790      161.984      101.778        0.082        0.028       32.593        9.939        0.093      336.922        8.548      868.176
11/12/2013  03:31:00       23.030       21.246       -0.182       15.541       11.398        8.951      241.519      129.919       80.114        0.072        0.023       31.333        7.636        0.059      336.875        8.471      868.186
11/12/2013  03:32:00       36.592       22.302        6.652       11.228        9.657        7.477      126.073       93.253       55.910        0.108        0.014       42.852        5.070        0.014      336.881        8.478      868.192
11/12/2013  03:33:00       32.669       33.154       -2.543       16.390       13.588        9.621      268.620      184.644       92.554        0.136        0.027       46.545        7.331        0.025      336.906        8.522      868.199
11/12/2013  03:34:00       46.767       26.063        4.716        9.902        6.586        7.611       98.051       43.370       57.934        0.154        0.010       53.539        5.479        0.010      336.933        8.566      868.195
11/12/2013  03:35:00       35.204       16.334        8.885       11.354       11.529       10.086      128.921      132.926      101.725        0.097        0.018       38.808        6.972        0.032      336.958        8.608      868.210
11/12/2013  03:36:00       31.423       31.419       30.156       26.877       17.429       16.156      722.367      303.760      261.026        0.209        0.064       44.436       15.490        0.122      336.948        8.591      868.220
11/12/2013  03:37:00       53.721       35.627       22.742       12.109       15.389       15.055      146.622      236.826      226.658        0.264        0.031       64.461        8.495        0.017      336.947        8.587      868.213
11/12/2013  03:38:00       62.417       29.447        8.515       11.641       10.930       11.239      135.509      119.463      126.313        0.261        0.019       69.015        6.624        0.009      336.917        8.541      868.207
11/12/2013  03:39:00       56.715       19.199        9.702       11.146       13.931       10.953      124.228      194.068      119.962        0.206        0.022       59.877        5.452        0.008      336.898        8.506      868.199
11/12/2013  03:40:00       36.380       15.482       28.949       17.702       16.204       13.775      313.377      262.559      189.739        0.158        0.038       39.537        8.588        0.047      336.959        8.609      868.208
11/12/2013  03:41:00       35.707       27.151       34.008       10.639        8.969       10.920      113.194       80.444      119.245        0.174        0.016       44.858        6.698        0.022      336.961        8.612      868.210
11/12/2013  03:42:00       54.389       35.820       14.655        6.261        8.497        7.299       39.201       72.206       53.283        0.231        0.008       65.125        4.553        0.005      336.928        8.557      868.187
11/12/2013  03:43:00       61.446       42.497        9.722       14.147        9.829        9.337      200.133       96.604       87.170        0.303        0.019       74.710        7.337        0.010      336.896        8.506      868.167
11/12/2013  03:44:00       50.184       26.620       13.357       21.264       19.588       18.316      452.165      383.689      335.483        0.229        0.059       56.807       11.559        0.041      336.867        8.457      868.155
11/12/2013  03:45:00       41.368       23.182        7.298       17.354       17.439       15.185      301.158      304.134      230.572        0.157        0.042       47.420        9.623        0.041      336.854        8.437      868.149
11/12/2013  03:46:00       22.053       47.445       -3.185       28.286       14.673       10.434      800.119      215.289      108.877        0.194        0.056       52.320        8.713        0.028      336.881        8.481      868.140
11/12/2013  03:47:00       12.626       38.412       -0.769       11.179       17.126       14.600      124.971      293.285      213.161        0.113        0.032       40.434       13.193        0.106      336.894        8.499      868.141
11/12/2013  03:48:00       19.596       30.531       -3.630        7.965       13.610       11.201       63.442      185.234      125.464        0.085        0.019       36.278        9.190        0.064      336.920        8.544      868.146
11/12/2013  03:49:00        8.750       21.253       -5.554        7.121        6.904        4.721       50.703       47.665       22.287        0.034        0.006       22.983        2.288        0.010      336.970        8.627      868.163
11/12/2013  03:50:00       -1.895        7.734       -4.761        4.659        5.276        2.899       21.704       27.839        8.406        0.007        0.003        7.963        2.183        0.075      337.062        8.780      868.196
11/12/2013  03:51:00      -15.825       -3.311       -3.372       10.036        4.335        4.582      100.716       18.794       20.999        0.021        0.007       16.167        2.912        0.032      337.116        8.876      868.220
11/12/2013  03:52:00      -16.498        4.983       -3.084       14.931        5.382        4.800      222.937       28.961       23.044        0.029        0.014       17.234        4.499        0.068      337.084        8.816      868.232
11/12/2013  03:53:00       -5.560       -2.881       -1.638        7.310        4.397        3.847       53.431       19.333       14.803        0.006        0.004        6.262        3.373        0.290      337.134        8.904      868.244
11/12/2013  03:54:00       -6.026       -5.598       -2.651        5.924        4.021        3.345       35.092       16.172       11.189        0.007        0.003        8.225        2.686        0.107      337.213        9.038      868.264
11/12/2013  03:55:00      -41.001      -10.073       -4.931       10.652        5.068        5.926      113.463       25.680       35.117        0.099        0.009       42.220        5.725        0.018      337.138        8.911      868.284
11/12/2013  03:56:00      -77.156      -31.006       -5.007       12.949       10.064        7.768      167.688      101.293       60.337        0.363        0.016       83.153        6.500        0.006      337.014        8.702      868.304
11/12/2013  03:57:00      -90.693      -39.237       -6.671       13.055       10.512        7.904      170.434      110.493       62.467        0.508        0.017       98.817        1.697        0.000      336.965        8.618      868.347
11/12/2013  03:58:00      -84.204      -16.240       -3.796       18.505       13.904       10.137      342.449      193.325      102.755        0.400        0.032       85.756       10.096        0.014      336.973        8.632      868.389
11/12/2013  03:59:00     -136.080      -15.246      -12.792       21.636       13.373        9.558      468.131      178.825       91.349        0.983        0.037      136.932        7.015        0.003      336.955        8.602      868.411
11/12/2013  04:00:00     -119.889       -3.983       -7.661       34.209       25.451       22.158     1170.238      647.739      490.965        0.838        0.115      119.956       21.268        0.031      336.871        8.462      868.423
11/12/2013  04:01:00     -109.408      -16.557       -3.117       31.889       26.083       18.358     1016.881      680.318      337.020        0.714        0.102      110.654       16.628        0.023      336.888        8.491      868.458
11/12/2013  04:02:00     -106.699       12.614       -5.302       31.222       27.079       19.302      974.824      733.298      372.562        0.683        0.104      107.442       14.373        0.018      336.849        8.427      868.480
11/12/2013  04:03:00      -73.723        8.719       -4.814       35.032       18.194       17.249     1227.212      331.021      297.537        0.369        0.093       74.237       14.969        0.041      336.898        8.508      868.468
11/12/2013  04:04:00      -19.824       -5.916       -0.072       28.867        8.994       12.150      833.327       80.892      147.633        0.074        0.053       20.687       15.584        0.567      336.997        8.673      868.437
11/12/2013  04:05:00      -15.610      -20.622       -1.199       18.000       12.569        9.085      324.017      157.969       82.535        0.062        0.028       25.864        9.859        0.145      337.072        8.797      868.419
11/12/2013  04:06:00      -30.720      -27.151       -4.009       14.925       15.421        8.384      222.766      237.815       70.298        0.111        0.027       40.998        8.723        0.045      337.101        8.847      868.418
11/12/2013  04:07:00      -99.521      -42.247       -8.187       21.679       13.454        9.378      469.985      180.999       87.944        0.625        0.037      108.117        9.374        0.008      337.025        8.720      868.446
11/12/2013  04:08:00     -130.399      -53.214       -5.482       16.218       25.008       10.922      263.032      625.379      119.285        1.044        0.050      140.839        7.782        0.003      336.939        8.577      868.483
11/12/2013  04:09:00     -152.021      -60.586       -8.605       26.599       28.688       15.283      707.501      822.980      233.569        1.431        0.088      163.649       13.634        0.007      336.891        8.497      868.523
11/12/2013  04:10:00     -118.180      -13.638       -3.766       40.505       23.400       24.014     1640.660      547.567      576.651        0.847        0.138      118.965       24.374        0.042      337.017        8.706      868.563
11/12/2013  04:11:00      -82.116      -56.972       -0.550       23.265       28.503       14.892      541.276      812.418      221.779        0.578        0.079       99.944       11.975        0.014      337.062        8.781      868.590
11/12/2013  04:12:00      -47.707      -44.108        3.743       23.771       20.134       13.877      565.076      405.382      192.568        0.270        0.058       64.972       14.276        0.048      337.177        8.976      868.614
11/12/2013  04:13:00      -25.891      -29.456        6.981       31.506       17.747       12.431      992.598      314.943      154.537        0.152        0.073       39.218       16.657        0.180      337.306        9.190      868.631
11/12/2013  04:14:00      -50.159      -37.922       -3.794       24.726       13.973       12.172      611.374      195.257      148.148        0.246        0.048       62.881        8.295        0.017      337.280        9.147      868.647
11/12/2013  04:15:00      -65.514      -46.632        0.241       39.209       20.677       16.457     1537.317      427.524      270.821        0.435        0.112       80.415       21.778        0.073      337.245        9.090      868.647
11/12/2013  04:16:00      -55.706      -46.847        1.131       30.880       29.720       19.492      953.588      883.281      379.931        0.376        0.111       72.786       11.760        0.026      337.240        9.081      868.639
11/12/2013  04:17:00      -71.982      -37.510       -0.729       22.814       27.505       14.518      520.472      756.522      210.772        0.404        0.074       81.169       14.477        0.032      337.140        8.911      868.637
11/12/2013  04:18:00      -82.150      -18.100       -6.473       15.397       15.387       13.733      237.082      236.772      188.589        0.389        0.033       84.120        8.094        0.009      337.184        8.987      868.634
11/12/2013  04:19:00      -45.166      -22.561       -2.828       12.601       10.406        8.868      158.787      108.280       78.634        0.145        0.017       50.487        7.264        0.021      337.240        9.080      868.626
11/12/2013  04:20:00      -21.370      -15.299       -1.615       10.810       13.155        9.012      116.863      173.061       81.207        0.053        0.019       26.282        8.162        0.096      337.342        9.251      868.631
11/12/2013  04:21:00      -14.660       -6.488       -0.725        5.748        5.979        3.908       33.034       35.746       15.270        0.017        0.004       16.032        3.398        0.045      337.326        9.227      868.634
11/12/2013  04:22:00      -36.097       -7.299       -5.435       13.004        6.457        4.144      169.104       41.688       17.175        0.081        0.011       36.827        4.759        0.017      337.341        9.248      868.645
11/12/2013  04:23:00      -74.846       -6.260       -9.063       12.722       11.503        8.036      161.850      132.321       64.578        0.304        0.018       75.108        7.210        0.009      337.196        9.007      868.640
11/12/2013  04:24:00      -49.885       -3.451      -14.175       16.823       10.140        6.981      283.017      102.825       48.728        0.157        0.022       50.004        6.462        0.017      337.100        8.845      868.636
11/12/2013  04:25:00       -4.067      -12.671      -11.978       10.105       10.564        6.294      102.105      111.604       39.610        0.029        0.013       13.308        3.760        0.080      337.257        9.110      868.627
11/12/2013  04:26:00       12.387       -0.982       -0.777       11.414       11.411        7.986      130.279      130.220       63.770        0.024        0.016       12.426        5.210        0.176      337.216        9.042      868.621
11/12/2013  04:27:00       -0.183       -0.293       -4.046        7.424        6.633        3.622       55.112       43.995       13.119        0.006        0.006        0.345        2.490       51.997      337.206        9.025      868.610
11/12/2013  04:28:00      -56.599      -20.499       -3.520       18.436       12.944       10.090      339.899      167.556      101.805        0.212        0.030       60.197        9.088        0.023      337.103        8.852      868.613
11/12/2013  04:29:00     -123.740      -30.514      -14.260       22.116       13.856       12.441      489.123      191.981      154.777        0.864        0.042      127.447        7.632        0.004      336.914        8.535      868.623
11/12/2013  04:30:00      -67.732      -31.529       -5.497       34.699       26.737       18.511     1204.045      714.847      342.658        0.394        0.113       74.711       17.094        0.052      336.894        8.503      868.633
11/12/2013  04:31:00      -20.480      -20.325        8.320       22.109       16.671       12.830      488.806      277.920      164.596        0.092        0.047       28.854       11.127        0.149      336.980        8.645      868.631
11/12/2013  04:32:00      -44.608      -42.357        6.917       33.415       25.767       18.464     1116.566      663.941      340.925        0.298        0.106       61.514       14.178        0.053      337.094        8.835      868.618
11/12/2013  04:33:00      -52.060      -30.330        8.017       26.934       23.701       17.480      725.426      561.723      305.557        0.264        0.080       60.251       15.145        0.063      337.135        8.905      868.604
11/12/2013  04:34:00      -56.526      -13.427        2.403       16.395       15.496       11.403      268.800      240.114      130.018        0.201        0.032       58.099        7.228        0.015      337.089        8.829      868.597
11/12/2013  04:35:00      -33.195      -16.385        1.408       17.133       10.494       11.644      293.547      110.121      135.592        0.096        0.027       37.019        9.498        0.066      337.116        8.872      868.595
11/12/2013  04:36:00      -62.205      -32.715       -4.506       14.880       12.794        9.783      221.416      163.688       95.707        0.272        0.024       70.284        4.566        0.004      337.132        8.899      868.598
11/12/2013  04:37:00      -55.853      -60.233       -1.543       28.412       21.188       22.690      807.214      448.935      514.843        0.426        0.089       82.143       19.870        0.059      337.213        9.034      868.605
11/12/2013  04:38:00      -70.207      -43.228       -9.203       14.405       22.818       12.000      207.506      520.641      143.994        0.388        0.044       82.448        3.827        0.002      337.246        9.091      868.595
11/12/2013  04:39:00      -82.320      -23.947       -5.909       13.463       17.189       11.893      181.256      295.449      141.455        0.400        0.031       85.732        9.241        0.012      337.179        8.978      868.592
11/12/2013  04:40:00     -128.122      -47.158      -12.099       22.391       29.229       12.918      501.363      854.338      166.879        1.015        0.076      136.525        6.999        0.003      337.049        8.760      868.620
11/12/2013  04:41:00     -126.875      -74.504        2.266       31.455       30.370       20.883      989.397      922.352      436.103        1.200        0.117      147.133       17.204        0.014      337.056        8.772      868.678
11/12/2013  04:42:00      -77.734      -66.379        3.303       41.080       44.180       19.143     1687.562     1951.911      366.456        0.723        0.200      102.220       19.709        0.037      337.221        9.050      868.740
11/12/2013  04:43:00      -58.535     -118.728        4.262       27.186       34.684       22.057      739.069     1202.989      486.521        0.998        0.121      132.373       21.283        0.026      337.392        9.335      868.787
11/12/2013  04:44:00      -52.571      -72.595       -2.626       49.432       40.233       25.291     2443.558     1618.684      639.645        0.637        0.235       89.631       18.722        0.044      337.368        9.295      868.814
11/12/2013  04:45:00     -122.684      -80.819       -0.445       82.331       51.696       35.986     6778.402     2672.453     1294.984        1.616        0.537      146.911       34.344        0.055      337.294        9.169      868.840
11/12/2013  04:46:00     -161.389     -106.678       -4.094       65.714       53.809       32.117     4318.369     2895.395     1031.511        2.284        0.412      193.459       27.744        0.021      337.231        9.063      868.851
11/12/2013  04:47:00      -67.611      -48.278        2.831       35.647       38.538       24.674     1270.726     1485.148      608.817        0.514        0.168       83.078       20.882        0.063      337.315        9.206      868.839
11/12/2013  04:48:00      -79.057     -109.356       -7.307       29.924       18.936       14.847      895.422      358.566      220.428        0.987        0.074      134.940       11.427        0.007      337.431        9.399      868.834
11/12/2013  04:49:00     -125.045     -113.706       -3.444       56.922       59.060       35.850     3240.150     3488.101     1285.195        1.829        0.401      169.013       39.783        0.055      337.380        9.313      868.882
11/12/2013  04:50:00     -160.277     -137.704       -4.365       59.753       57.310       33.101     3570.465     3284.486     1095.671        2.631        0.398      211.308       30.950        0.021      337.404        9.352      868.921
11/12/2013  04:51:00     -154.137      -98.657       -2.421       83.452       52.254       41.295     6964.284     2730.505     1705.255        2.245        0.570      183.007       33.961        0.034      337.455        9.438      868.891
11/12/2013  04:52:00      -36.828        7.324        9.961       35.681       31.391       23.512     1273.156      985.374      552.811        0.216        0.141       37.550       25.507        0.461      337.403        9.354      868.817
11/12/2013  04:53:00      -48.922       43.135       -0.286       23.839       23.525       17.679      568.310      553.438      312.536        0.284        0.072       65.222       15.890        0.059      337.358        9.277      868.767
11/12/2013  04:54:00      -92.688      -12.801      -11.514       21.557       45.251       12.010      464.689     2047.663      144.246        0.577        0.133       93.568       20.449        0.048      337.449        9.431      868.796
11/12/2013  04:55:00      -88.011      -72.511        1.301       57.023       32.710       25.575     3251.658     1069.918      654.080        0.899        0.249      114.035       23.870        0.044      337.373        9.304      868.893
11/12/2013  04:56:00      -89.234      -59.467        8.546       55.149       52.292       30.418     3041.398     2734.448      925.240        0.914        0.335      107.234       31.888        0.088      337.284        9.155      868.979
11/12/2013  04:57:00      -63.082      -92.651        7.186       30.608       38.741       19.462      936.878     1500.854      378.763        0.772        0.141      112.087       13.185        0.014      337.428        9.394      869.024
11/12/2013  04:58:00       -7.154      -70.723       14.984       21.706       57.306       16.056      471.132     3283.921      257.796        0.464        0.201       71.084       19.439        0.075      337.765        9.960      869.006
11/12/2013  04:59:00      -23.139       15.444        7.808       11.724       10.207       12.989      137.463      104.176      168.701        0.062        0.021       27.819        4.599        0.027      337.619        9.717      868.975
11/12/2013  05:00:00      -50.664       -5.485       -5.182       25.910       15.389       12.851      671.305      236.825      165.136        0.185        0.054       50.961       14.418        0.080      337.630        9.732      868.978
11/12/2013  05:01:00      -62.737      -40.488        9.158       48.910       23.567       22.676     2392.226      555.422      514.183        0.456        0.173       74.668       24.896        0.111      337.469        9.464      869.003
11/12/2013  05:02:00        0.505      -28.791        5.378       25.759       17.474       12.937      663.542      305.343      167.357        0.100        0.057       28.796       13.803        0.230      337.494        9.505      869.024
11/12/2013  05:03:00       24.536        3.191        9.203       16.148       22.451       13.224      260.768      504.051      174.869        0.082        0.047       24.742       11.357        0.211      337.551        9.601      869.003
11/12/2013  05:04:00       58.095       36.570       -4.999       14.638       16.085        8.551      214.282      258.728       73.114        0.264        0.027       68.647        6.791        0.010      337.466        9.458      868.992
11/12/2013  05:05:00       50.839       24.675        5.041       20.555       13.539       11.739      422.496      183.293      137.796        0.198        0.037       56.510        9.483        0.028      337.502        9.520      868.987
11/12/2013  05:06:00       54.692       35.043       -4.480       18.569       25.682       17.852      344.802      659.575      318.703        0.278        0.066       64.955       13.646        0.044      337.435        9.407      869.005
11/12/2013  05:07:00       68.913       39.484        4.559       18.454       24.214       15.792      340.547      586.307      249.388        0.375        0.059       79.422        9.488        0.014      337.255        9.106      869.042
11/12/2013  05:08:00       44.560       29.262        9.876       15.475       10.918       13.300      239.480      119.200      176.884        0.174        0.027       53.309        6.566        0.015      337.188        8.995      869.078
11/12/2013  05:09:00       43.365       40.784       10.247        8.531       12.203       13.049       72.784      148.922      170.285        0.202        0.020       59.531        8.295        0.019      337.168        8.960      869.077
11/12/2013  05:10:00       47.227       81.017      -10.285       10.286       13.389        8.826      105.806      179.262       77.895        0.463        0.018       93.777        7.493        0.006      337.150        8.930      869.026
11/12/2013  05:11:00       44.814       61.382       -4.111       34.381       30.115       21.160     1182.078      906.904      447.745        0.416        0.127       76.001       18.582        0.060      337.042        8.748      868.977
11/12/2013  05:12:00      132.008       55.927        8.815       51.217       36.447       27.908     2623.170     1328.398      778.876        1.268        0.237      143.367       18.435        0.017      337.033        8.732      868.951
11/12/2013  05:13:00      153.276       86.457       23.299       30.183       31.823       29.842      911.030     1012.697      890.564        1.716        0.141      175.978       20.538        0.014      336.962        8.614      868.944
11/12/2013  05:14:00      132.823       76.984       24.942       31.865       29.938       33.933     1015.406      896.267     1151.477        1.363        0.153      153.520       19.509        0.016      336.899        8.509      868.949
11/12/2013  05:15:00      115.072       77.509       25.307       39.454       41.939       37.957     1556.607     1758.838     1440.768        1.232        0.238      138.741       13.262        0.009      336.822        8.383      868.939
11/12/2013  05:16:00       86.783       64.742        5.766       52.987       36.373       36.413     2807.653     1322.966     1325.929        0.861        0.273      108.272       22.167        0.042      336.868        8.458      868.928
11/12/2013  05:17:00       72.550       62.631       10.348       46.322       29.264       29.978     2145.745      856.405      898.694        0.660        0.195       95.844       19.764        0.043      336.834        8.404      868.929
11/12/2013  05:18:00      106.528       68.954       14.591       40.618       29.360       24.285     1649.792      861.982      589.770        0.971        0.155      126.897       16.372        0.017      336.868        8.459      868.928
11/12/2013  05:19:00      119.352       99.033       38.290       48.615       28.641       43.390     2363.377      820.285     1882.656        1.529        0.253      155.089       31.235        0.041      336.833        8.400      868.928
11/12/2013  05:20:00       90.376       56.008       34.001       33.819       35.851       31.755     1143.707     1285.302     1008.388        0.795        0.172      106.324       18.063        0.029      336.802        8.350      868.947
11/12/2013  05:21:00       60.623       29.112        6.034       24.657       32.775       22.754      607.991     1074.203      517.723        0.338        0.110       67.251       10.459        0.024      336.787        8.324      868.968
11/12/2013  05:22:00      119.049       74.432       27.678       42.628       33.451       24.451     1817.129     1118.971      597.869        1.201        0.177      140.402        9.536        0.005      336.767        8.290      868.975
11/12/2013  05:23:00      132.737       75.975       28.813       41.073       30.203       30.710     1686.982      912.244      943.094        1.388        0.177      152.942       20.497        0.018      336.771        8.297      868.971
11/12/2013  05:24:00      107.443       61.397       31.846       50.388       42.213       36.080     2538.979     1781.933     1301.796        1.097        0.281      123.748       23.402        0.036      336.827        8.390      868.998
11/12/2013  05:25:00       21.253       81.463       82.309       37.580       37.825       27.067     1412.233     1430.743      732.638        0.872        0.179       84.190       25.724        0.093      336.813        8.367      869.057
11/12/2013  05:26:00       29.269      -45.324       26.166       35.803       66.073       40.221     1281.843     4365.583     1617.695        0.543        0.363       53.953       45.466        0.710      336.854        8.435      869.085
11/12/2013  05:27:00       23.305      -24.435       35.219       30.251       59.109       39.203      915.130     3493.874     1536.850        0.416        0.297       33.767       39.878        1.395      336.909        8.529      869.104
11/12/2013  05:28:00       27.542       15.063       41.638       47.673       50.155       34.172     2272.750     2515.537     1167.714        0.434        0.298       31.392       32.578        1.077      336.941        8.581      869.118
11/12/2013  05:29:00       42.018      -15.451       32.793       33.120       58.686       32.459     1096.911     3443.995     1053.570        0.434        0.280       44.768       35.985        0.646      336.916        8.537      869.129
11/12/2013  05:30:00       18.373       61.152       72.494       37.260       32.213       21.090     1388.341     1037.684      444.804        0.610        0.144       63.853       21.591        0.114      336.879        8.476      869.140
11/12/2013  05:31:00       11.152       36.545       59.750       31.093       34.935       24.419      966.762     1220.437      596.265        0.391        0.139       38.209       22.492        0.347      336.865        8.456      869.171
11/12/2013  05:32:00       14.962       36.059       62.292       32.074       35.072       28.915     1028.750     1230.049      836.104        0.425        0.155       39.040       25.592        0.430      336.838        8.408      869.219
11/12/2013  05:33:00       27.377       26.577       56.427       41.514       49.583       33.936     1723.377     2458.499     1151.660        0.499        0.267       38.156       40.681        1.137      336.812        8.365      869.260
11/12/2013  05:34:00       35.996      -25.501       28.388       39.437       42.644       35.197     1555.256     1818.540     1238.808        0.368        0.231       44.114       26.472        0.360      336.808        8.360      869.270
11/12/2013  05:35:00       40.876       46.510       59.986       33.184       35.202       17.756     1101.176     1239.174      315.268        0.504        0.133       61.919       18.545        0.090      336.768        8.293      869.273
11/12/2013  05:36:00       86.762       26.664       23.993       49.915       32.732       26.436     2491.502     1071.402      698.880        0.654        0.213       90.767       27.516        0.092      336.687        8.156      869.260
11/12/2013  05:37:00       77.634       45.506       32.365       40.907       22.221       24.237     1673.422      493.778      587.414        0.595        0.138       89.988       19.207        0.046      336.635        8.069      869.249
11/12/2013  05:38:00       13.918        4.662       24.546       27.902       33.149       15.407      778.525     1098.862      237.377        0.147        0.106       14.678       11.256        0.588      336.700        8.179      869.286
11/12/2013  05:39:00       22.337       -0.855       21.823       21.407       32.068       20.651      458.278     1028.341      426.477        0.144        0.096       22.353       15.291        0.468      336.705        8.189      869.354
11/12/2013  05:40:00       14.359      -13.054       25.396       19.901       32.288       15.665      396.036     1042.486      245.383        0.135        0.084       19.406       15.026        0.600      336.737        8.240      869.417
11/12/2013  05:41:00       34.223       -4.070       21.399       33.107       45.965       35.155     1096.096     2112.786     1235.895        0.304        0.222       34.464       28.415        0.680      336.756        8.273      869.443
11/12/2013  05:42:00       16.861       22.074       57.524       31.407       40.008       27.157      986.370     1600.658      737.479        0.370        0.166       27.777       19.130        0.474      336.747        8.258      869.438
11/12/2013  05:43:00       34.164       69.016       77.946       62.215       35.046       28.152     3870.647     1228.197      792.546        0.895        0.295       77.009       26.285        0.117      336.718        8.208      869.405
11/12/2013  05:44:00       83.035       63.975       42.348       42.055       38.440       40.712     1768.647     1477.596     1657.450        0.884        0.245      104.822       30.330        0.084      336.693        8.167      869.402
11/12/2013  05:45:00       33.334        5.512        6.157       36.891       29.263       17.412     1360.943      856.332      303.173        0.185        0.126       33.787       17.691        0.274      336.663        8.120      869.442
11/12/2013  05:46:00      -30.995       31.563       -1.251       29.201       15.107       11.454      852.701      228.208      131.188        0.159        0.061       44.237        4.970        0.013      336.735        8.238      869.466
11/12/2013  05:47:00      -47.938       47.896      -10.382       23.016       20.906       10.744      529.741      437.073      115.435        0.289        0.054       67.765        6.805        0.010      336.821        8.381      869.444
11/12/2013  05:48:00      -45.294       32.924      -11.213       15.153       11.654       10.141      229.601      135.819      102.848        0.186        0.023       55.995        4.802        0.007      336.997        8.673      869.404
11/12/2013  05:49:00      -75.019       -4.394       -9.154       13.694       18.823       11.369      187.518      354.308      129.245        0.320        0.034       75.147        8.913        0.014      336.918        8.542      869.402
11/12/2013  05:50:00      -53.858       -7.772       -9.357       16.567       17.653       10.807      274.474      311.631      116.787        0.188        0.035       54.416        8.190        0.023      336.837        8.406      869.416
11/12/2013  05:51:00      -12.525       18.644       -6.002       12.427        7.710        6.210      154.429       59.452       38.570        0.040        0.013       22.460        6.381        0.081      336.908        8.525      869.424
11/12/2013  05:52:00      -15.911       35.836       -3.273       10.631        9.884        6.006      113.029       97.684       36.074        0.090        0.012       39.209        3.288        0.007      337.008        8.693      869.420
11/12/2013  05:53:00      -39.733       26.066       -7.577       16.769       16.170       11.659      281.192      261.472      135.930        0.150        0.034       47.520        8.522        0.032      337.079        8.809      869.411
11/12/2013  05:54:00      -61.804       26.317       -9.441       20.094       13.886       15.162      403.781      192.827      229.876        0.271        0.041       67.174       14.103        0.044      337.124        8.886      869.431
11/12/2013  05:55:00      -76.254       26.808       -5.207       22.407       15.521       13.105      502.091      240.890      171.741        0.374        0.046       80.829       10.373        0.016      337.118        8.875      869.482
11/12/2013  05:56:00      -96.988       -8.711      -11.351       22.074       34.696       13.113      487.272     1203.817      171.952        0.574        0.093       97.379        9.989        0.011      337.153        8.933      869.564
11/12/2013  05:57:00      -73.544      -35.112       -1.594       68.051       26.084       22.172     4630.964      680.394      491.599        0.622        0.290       81.496       26.556        0.106      337.092        8.833      869.634
11/12/2013  05:58:00      -15.507      -38.915        8.676       49.930       51.008       27.617     2492.976     2601.791      762.678        0.384        0.293       41.891       21.032        0.252      337.140        8.913      869.701
11/12/2013  05:59:00      -44.688      -64.539        1.779       37.441       34.052       22.468     1401.796     1159.558      504.789        0.462        0.153       78.500       19.687        0.063      337.210        9.030      869.722
11/12/2013  06:00:00       -6.044      -15.402       16.580       28.943       34.276       20.482      837.703     1174.835      419.510        0.149        0.122       16.546       14.294        0.746      337.258        9.110      869.707
11/12/2013  06:01:00        6.434       42.676       44.225       36.211       30.258       47.905     1311.226      915.549     2294.863        0.417        0.226       43.158       23.121        0.287      337.211        9.035      869.636
11/12/2013  06:02:00       -6.191       -0.693       38.709       27.360       33.311       31.234      748.585     1109.623      975.594        0.219        0.142        6.229       27.193       19.057      337.240        9.081      869.598
11/12/2013  06:03:00       10.098       25.319       51.147       26.667       28.993       22.737      711.146      840.612      516.987        0.271        0.103       27.259       18.771        0.474      337.069        8.793      869.650
11/12/2013  06:04:00       16.013        7.806       43.057       34.912       52.697       34.168     1218.861     2776.979     1167.453        0.367        0.258       17.814       29.602        2.761      337.024        8.718      869.763
11/12/2013  06:05:00       53.374      -69.810       14.761       62.269       95.753       58.255     3877.461     9168.608     3393.660        1.219        0.822       87.876       56.901        0.419      337.049        8.760      869.862
11/12/2013  06:06:00      137.193     -213.867      -47.584       64.517       47.489       32.577     4162.417     2255.226     1061.256        3.715        0.374      254.088       20.515        0.007      337.098        8.838      869.912
11/12/2013  06:07:00      -34.254      -28.752       -1.338       30.943       72.331       23.229      957.477     5231.828      539.586        0.436        0.336       44.721       16.456        0.135      337.168        8.962      869.915
11/12/2013  06:08:00      -16.901       28.721       22.006       29.646       18.354       13.329      878.889      336.881      177.662        0.149        0.070       33.325       12.234        0.135      337.167        8.959      869.867
11/12/2013  06:09:00       10.156       59.403        2.600       27.949       25.103       20.276      781.158      630.138      411.098        0.273        0.091       60.265       16.850        0.078      337.143        8.917      869.774
11/12/2013  06:10:00        4.014      108.805      -20.520       37.668       42.920       17.797     1418.853     1842.128      316.737        0.793        0.179      108.879       22.380        0.042      337.209        9.029      869.631
11/12/2013  06:11:00      -52.962      149.516      -21.882       29.875       34.320       21.715      892.504     1177.840      471.553        1.409        0.127      158.619       12.948        0.007      337.310        9.198      869.463
11/12/2013  06:12:00     -120.233      182.017      -31.372       47.944       48.155       35.900     2298.608     2318.947     1288.826        2.724        0.295      218.142       30.936        0.020      337.198        9.008      869.333
11/12/2013  06:13:00     -137.850       76.666      -13.619       43.580       39.233       26.526     1899.217     1539.236      703.624        1.460        0.207      157.734       18.743        0.014      337.084        8.818      869.285
11/12/2013  06:14:00     -132.304       13.570      -18.410       42.351       56.105       28.527     1793.637     3147.827      813.787        1.189        0.288      132.998       21.721        0.027      337.178        8.978      869.323
11/12/2013  06:15:00      -75.620      -13.562       -7.173       74.609       52.927       33.482     5566.528     2801.284     1121.044        0.772        0.474       76.826       32.902        0.183      337.174        8.969      869.401
11/12/2013  06:16:00       -1.831      -43.243        1.800       51.412       41.491       28.540     2643.195     1721.477      814.518        0.353        0.259       43.282       17.834        0.170      337.151        8.930      869.472
11/12/2013  06:17:00       14.490      -94.624       -1.642       37.738       38.395       25.821     1424.143     1474.212      666.734        0.637        0.178       95.727       18.140        0.036      337.126        8.890      869.544
11/12/2013  06:18:00       -7.654      -25.807       36.046       47.847       73.012       53.124     2289.308     5330.823     2822.120        0.623        0.522       26.918       40.483        2.262      337.237        9.076      869.609
11/12/2013  06:19:00       55.737      -50.760       39.915       73.135       98.500       64.825     5348.738     9702.165     4202.221        1.326        0.963       75.387       69.940        0.861      337.148        8.924      869.678
11/12/2013  06:20:00       44.321      -52.423       30.897       80.989      100.728       49.971     6559.280    10146.102     2497.067        1.243        0.960       68.648       70.103        1.043      337.071        8.796      869.745
11/12/2013  06:21:00     -138.884      -61.402       -2.492       73.423       46.174       32.263     5390.917     2132.047     1040.892        1.581        0.428      151.852       25.217        0.028      337.236        9.073      869.785
11/12/2013  06:22:00     -169.238     -122.765        1.655       80.630       67.033       31.817     6501.118     4493.406     1012.321        2.786        0.600      209.076       30.894        0.022      337.172        8.963      869.819
11/12/2013  06:23:00     -132.347      -93.620       -3.064       78.794       70.605       41.052     6208.419     4985.128     1685.227        1.958        0.644      162.112       41.984        0.067      337.138        8.907      869.831
11/12/2013  06:24:00     -190.139      -58.703      -10.795       64.442       62.880       35.487     4152.831     3953.887     1259.357        2.454        0.468      198.995       27.566        0.019      337.184        8.986      869.791
11/12/2013  06:25:00     -113.768      -44.521        0.300       55.225       32.327       21.549     3049.849     1045.065      464.374        0.974        0.228      122.169       23.398        0.037      337.192        9.001      869.717
11/12/2013  06:26:00     -119.794       26.411        0.239       59.593       29.782       24.157     3551.373      886.947      583.544        1.003        0.251      122.671       28.958        0.056      337.104        8.851      869.649
11/12/2013  06:27:00      -58.544       83.791      -10.926       26.226       42.948       19.230      687.801     1844.502      369.796        0.673        0.145      102.217       16.968        0.028      337.150        8.928      869.595
11/12/2013  06:28:00      -49.317      120.528       -7.394       42.823       45.271       28.335     1833.798     2049.488      802.869        1.085        0.234      130.227       23.357        0.032      337.171        8.964      869.571
11/12/2013  06:29:00      -76.101      128.915      -20.787       45.913       44.459       26.139     2108.011     1976.632      683.229        1.380        0.238      149.701       26.535        0.031      337.130        8.895      869.567
11/12/2013  06:30:00      -74.315       64.300       -8.288       36.578       43.154       24.218     1337.932     1862.229      586.492        0.676        0.189       98.271       20.146        0.042      337.153        8.935      869.589
11/12/2013  06:31:00      -50.509       46.022      -12.741       20.567       33.071       16.539      422.989     1093.689      273.548        0.331        0.090       68.332       11.285        0.027      337.181        8.982      869.620
11/12/2013  06:32:00        1.264        7.894       -3.667       21.460       10.122       11.388      460.538      102.450      129.684        0.038        0.035        7.995       11.821        2.186      337.217        9.043      869.617
11/12/2013  06:33:00       60.675       81.913       57.281       49.257       32.278       30.803     2426.236     1041.858      948.855        0.904        0.221      101.937       22.761        0.050      337.171        8.965      869.587
11/12/2013  06:34:00       55.519      101.032       70.426       46.395       34.516       38.873     2152.467     1191.374     1511.074        1.155        0.243      115.281       37.687        0.107      337.097        8.841      869.602
11/12/2013  06:35:00       48.910       34.507       32.295       34.973       28.039       20.813     1223.086      786.209      433.196        0.353        0.122       59.857       16.680        0.078      337.063        8.782      869.661
11/12/2013  06:36:00      -29.107       -0.391        5.090       20.884       10.991       18.665      436.158      120.802      348.366        0.089        0.045       29.110       18.699        0.413      337.103        8.848      869.734
11/12/2013  06:37:00      -95.597        1.609       -9.598       34.999       30.448       18.224     1224.928      927.057      332.124        0.586        0.124       95.610       20.011        0.044      337.138        8.908      869.766
11/12/2013  06:38:00     -106.281      -52.214        1.446       48.954       28.614       18.059     2396.473      818.753      326.122        0.878        0.177      118.414       19.543        0.027      337.189        8.996      869.767
11/12/2013  06:39:00      -38.690      -42.082       10.669       37.727       25.848       21.301     1423.319      668.113      453.741        0.296        0.127       57.165       21.464        0.141      337.251        9.101      869.751
11/12/2013  06:40:00      -95.231     -102.538        0.941       81.385       51.479       28.790     6623.584     2650.108      828.864        1.484        0.505      139.939       35.743        0.065      337.200        9.015      869.753
11/12/2013  06:41:00     -127.505      -90.288       -6.441       44.806       41.263       27.810     2007.578     1702.674      773.383        1.447        0.224      156.235       25.350        0.026      337.212        9.035      869.774
11/12/2013  06:42:00     -129.397      -69.936       -7.405       25.993       31.204       18.328      675.651      973.690      335.913        1.184        0.099      147.088       14.430        0.010      337.262        9.118      869.751
11/12/2013  06:43:00      -72.538       -7.503        2.578       42.778       25.029       16.275     1829.993      626.438      264.867        0.402        0.136       72.925       19.501        0.072      337.222        9.051      869.697
11/12/2013  06:44:00      -61.359       57.815      -11.472       22.166       24.054       13.780      491.322      578.575      189.888        0.425        0.063       84.306       10.668        0.016      337.185        8.991      869.653
11/12/2013  06:45:00       -0.915       69.715       -1.306       55.682       34.714       19.391     3100.431     1205.052      376.000        0.477        0.234       69.721       21.658        0.096      337.292        9.166      869.665
11/12/2013  06:46:00       49.822       43.616       30.588       26.211       30.243       34.002      687.003      914.653     1156.164        0.404        0.138       66.216       14.896        0.051      337.255        9.109      869.708
11/12/2013  06:47:00       20.567       82.735       86.606       33.257       43.735       20.776     1106.003     1912.727      431.628        0.911        0.173       85.253       24.372        0.082      337.295        9.172      869.775
11/12/2013  06:48:00       69.099      -93.274      -11.456       47.498       56.159       37.943     2256.073     3153.801     1439.642        1.023        0.342      116.081       28.474        0.060      337.307        9.192      869.798
11/12/2013  06:49:00       13.800      -50.437       -4.132       33.460       26.092       23.736     1119.569      680.775      563.393        0.256        0.118       52.290       17.217        0.108      337.323        9.220      869.779
11/12/2013  06:50:00     -124.742       -0.579       -5.209       67.083       38.728       23.853     4500.105     1499.881      568.970        1.108        0.328      124.743       28.676        0.053      337.359        9.279      869.749
11/12/2013  06:51:00     -148.600      -15.198       -4.774       66.226       54.550       35.103     4385.821     2975.732     1232.249        1.546        0.430      149.375       30.859        0.043      337.270        9.131      869.775
11/12/2013  06:52:00     -173.236      -89.087        4.215       79.427       46.771       36.918     6308.714     2187.484     1362.935        2.391        0.493      194.801       41.751        0.046      337.284        9.152      869.869
11/12/2013  06:53:00     -111.339      -22.638       -5.491       67.384       28.790       22.434     4540.640      828.888      503.273        0.940        0.294      113.618       28.701        0.064      337.198        9.010      869.937
11/12/2013  06:54:00     -111.241      -17.581       -9.615       64.284       36.003       22.756     4132.388     1296.231      517.849        0.936        0.297      112.622       12.829        0.013      337.146        8.923      869.932
11/12/2013  06:55:00     -182.478       47.449      -19.494       55.085       53.102       23.945     3034.374     2819.819      573.357        2.118        0.321      188.546       23.813        0.016      336.937        8.572      869.848
11/12/2013  06:56:00     -184.613      128.016      -26.637       61.603       48.996       34.344     3794.959     2400.619     1179.499        2.928        0.369      224.655       26.670        0.014      336.982        8.644      869.701
11/12/2013  06:57:00     -170.740       89.620      -20.140       46.793       43.197       31.579     2189.568     1865.941      997.233        2.132        0.253      192.832       21.182        0.012      337.067        8.790      869.584
11/12/2013  06:58:00     -167.016       72.758      -25.200       49.707       60.807       34.642     2470.781     3697.496     1200.085        2.059        0.368      182.175       23.502        0.017      337.044        8.750      869.556
11/12/2013  06:59:00      -55.775      -33.587      -11.136       47.967       55.160       30.917     2300.840     3042.598      955.887        0.533        0.315       65.107       15.860        0.059      337.063        8.783      869.720
11/12/2013  07:00:00       18.658     -115.498      -24.365       59.440       68.979       43.515     3533.081     4758.147     1893.578        1.223        0.509      116.996       33.334        0.081      337.263        9.118      870.114
11/12/2013  07:01:00      131.690     -177.116      -25.445       92.763      105.587       56.029     8605.002    11148.700     3139.254        3.612        1.145      220.709       47.468        0.046      337.346        9.257      870.409
11/12/2013  07:02:00      -16.168      -54.155       -4.728       67.246       82.258       46.427     4522.055     6766.407     2155.482        0.833        0.672       56.517       48.474        0.736      337.399        9.346      870.488
11/12/2013  07:03:00      -85.648       12.458       -4.420       48.438       52.530       25.545     2346.216     2759.414      652.529        0.663        0.288       86.550       20.806        0.058      337.372        9.301      870.359
11/12/2013  07:04:00     -186.887       56.048      -10.852       57.979       46.478       31.279     3361.612     2160.184      978.399        2.234        0.325      195.110       30.803        0.025      337.308        9.193      870.128
11/12/2013  07:05:00     -226.416      107.003      -18.038       83.582       46.502       50.090     6985.914     2162.466     2508.972        3.735        0.583      250.427       43.884        0.031      337.391        9.329      869.918
11/12/2013  07:06:00     -227.457       13.354      -18.023       74.922       60.681       29.299     5613.290     3682.239      858.403        3.120        0.508      227.849       23.423        0.011      337.473        9.467      869.883
11/12/2013  07:07:00     -171.371      -50.792      -17.895       48.821       66.885       35.950     2383.488     4473.602     1292.396        2.021        0.407      178.740       18.494        0.011      337.413        9.368      870.013
11/12/2013  07:08:00     -106.105      -86.365        4.895       71.966       66.349       33.972     5179.129     4402.238     1154.112        1.474        0.537      136.811       37.226        0.074      337.494        9.506      870.192
11/12/2013  07:09:00     -176.668     -168.641       -6.909       88.784       79.888       49.817     7882.557     6382.070     2481.758        3.822        0.837      244.236       45.020        0.034      337.649        9.763      870.338
11/12/2013  07:10:00     -155.458     -105.214        2.600       93.411       77.230       43.011     8725.549     5964.540     1849.921        2.589        0.827      187.716       45.171        0.058      337.703        9.855      870.374
11/12/2013  07:11:00     -205.720       28.823        0.339       88.154       67.904       30.627     7771.142     4610.929      937.984        2.823        0.666      207.730       38.864        0.035      337.675        9.807      870.263
11/12/2013  07:12:00     -240.250       61.370      -21.267       91.371       51.925       33.878     8348.618     2696.240     1147.720        3.706        0.610      247.965       37.457        0.023      337.497        9.508      870.126
11/12/2013  07:13:00     -102.518       70.240      -19.901       48.568       47.552       29.394     2358.816     2261.221      863.980        1.066        0.274      124.272       30.998        0.062      337.552        9.603      870.081
11/12/2013  07:14:00      -30.135     -113.388      -11.214       29.623       59.086       24.172      877.509     3491.121      584.278        0.942        0.248      117.324       14.732        0.016      337.671        9.803      870.216
11/12/2013  07:15:00      -39.003     -126.078       -2.644       55.725       41.850       28.748     3105.297     1751.392      826.426        1.155        0.284      131.974       21.619        0.027      337.891       10.172      870.362
11/12/2013  07:16:00      -63.662      -60.817       -8.998       48.156       41.048       26.314     2318.989     1684.972      692.429        0.626        0.235       88.043       21.397        0.059      337.856       10.113      870.351
11/12/2013  07:17:00     -114.344      -54.244      -19.824       51.976       61.352       31.069     2701.472     3764.073      965.299        1.192        0.372      126.558       37.304        0.087      337.661        9.784      870.222
11/12/2013  07:18:00      -43.052        9.578        6.668       47.649       32.743       21.048     2270.429     1072.078      443.027        0.289        0.189       44.104       21.953        0.248      337.630        9.735      870.105
11/12/2013  07:19:00      -25.349       39.802        2.220       26.372       24.231       18.218      695.477      587.152      331.894        0.192        0.081       47.189       12.830        0.074      337.608        9.697      870.067
11/12/2013  07:20:00      -61.304      105.292      -22.092       48.391       34.355       15.966     2341.705     1180.263      254.919        0.955        0.189      121.839       11.583        0.009      337.762        9.956      870.031
11/12/2013  07:21:00     -218.908       39.712      -18.982       79.698       68.000       35.886     6351.794     4624.028     1287.820        3.106        0.613      222.481       29.014        0.017      337.570        9.630      870.017
11/12/2013  07:22:00     -188.214      -72.884      -29.989      124.133       75.464       57.244    15409.065     5694.861     3276.842        3.300        1.219      201.833       56.015        0.077      337.513        9.535      870.025
11/12/2013  07:23:00     -218.319      -93.883      -17.853      124.042       68.918       46.876    15386.331     4749.628     2197.327        3.956        1.117      237.650       41.743        0.031      337.464        9.453      870.066
11/12/2013  07:24:00     -205.038      -37.863      -17.734       60.205       64.891       33.646     3624.686     4210.872     1132.024        2.638        0.448      208.504       30.318        0.021      337.536        9.573      870.085
11/12/2013  07:25:00     -176.590      -42.702      -18.563       65.203       49.164       33.157     4251.395     2417.092     1099.412        2.056        0.388      181.680       28.616        0.025      337.557        9.611      870.112
11/12/2013  07:26:00     -194.484      -13.501      -14.953       61.089       81.352       34.130     3731.822     6618.122     1164.840        2.487        0.576      194.952       27.787        0.020      337.563        9.619      870.169
11/12/2013  07:27:00      -63.137      -18.693        6.999       47.315       44.645       37.843     2238.709     1993.220     1432.092        0.502        0.283       65.846       31.051        0.222      337.623        9.720      870.223
11/12/2013  07:28:00       -0.699       23.170       29.230       21.021       37.909       36.614      441.902     1437.077     1340.565        0.231        0.161       23.181       29.571        1.627      337.701        9.853      870.290
11/12/2013  07:29:00       79.758       65.644       54.279       54.646       31.278       36.954     2986.167      978.311     1365.564        0.947        0.267      103.298       27.073        0.069      337.704        9.858      870.381
11/12/2013  07:30:00       17.638       53.154       74.107       27.977       41.607       19.990      782.738     1731.141      399.601        0.577        0.146       56.004       14.262        0.065      337.817       10.048      870.502
11/12/2013  07:31:00       59.274      -66.616       71.879       96.000      149.496       70.357     9215.988    22348.982     4950.117        2.481        1.826       89.169       90.806        1.037      337.948       10.266      870.635
11/12/2013  07:32:00       99.000     -174.217       13.807       82.649      129.651       65.351     6830.815    16809.326     4270.774        3.412        1.396      200.381       71.807        0.128      337.873       10.138      870.733
11/12/2013  07:33:00       35.041      -28.895       14.022       69.107       64.112       45.716     4775.828     4110.339     2089.907        0.662        0.549       45.419       17.500        0.148      337.878       10.149      870.743
11/12/2013  07:34:00     -179.836       -6.314      -17.129       50.448       99.945       26.431     2544.953     9989.093      698.576        2.295        0.662      179.946       31.656        0.031      337.935       10.242      870.654
11/12/2013  07:35:00     -252.540      -99.242       -3.868       73.869       54.232       42.451     5456.654     2941.159     1802.105        4.192        0.510      271.340       45.979        0.029      337.923       10.220      870.572
11/12/2013  07:36:00     -186.452      -61.255       -0.813       70.966       64.127       34.885     5036.139     4112.261     1216.976        2.444        0.518      196.256       30.498        0.024      337.997       10.348      870.503
11/12/2013  07:37:00     -135.475      -43.063       -8.768       44.158       36.212       20.631     1949.953     1311.321      425.641        1.199        0.184      142.155       13.800        0.009      337.961       10.288      870.461
11/12/2013  07:38:00      -35.895       -5.532        3.223       27.681       17.521       14.952      766.248      306.977      223.555        0.131        0.065       36.319       14.049        0.150      337.974       10.311      870.489
11/12/2013  07:39:00       12.937      -23.904        1.606       20.096       15.092       15.592      403.866      227.767      243.113        0.081        0.044       27.180        6.943        0.065      338.090       10.505      870.599
11/12/2013  07:40:00       17.198       83.656       74.960       30.247       68.759       55.423      914.882     4727.779     3071.739        1.081        0.436       85.406       57.718        0.457      338.008       10.367      870.734
11/12/2013  07:41:00      119.598      134.293      115.311       70.264       68.563       48.367     4937.010     4700.865     2339.402        2.880        0.599      179.829       45.763        0.065      338.072       10.471      870.771
11/12/2013  07:42:00       88.930       50.425       16.266       62.513       50.678       41.731     3907.910     2568.218     1741.439        0.947        0.411      102.231       18.870        0.034      337.935       10.245      870.690
11/12/2013  07:43:00     -106.402      108.020      -36.528       87.796       41.460       21.827     7708.050     1718.952      476.425        1.711        0.495      151.624       18.532        0.015      337.886       10.162      870.493
11/12/2013  07:44:00     -194.256       97.470      -26.617       72.091       53.739       40.017     5197.061     2887.917     1601.376        2.881        0.484      217.338       38.461        0.031      337.815       10.042      870.338
11/12/2013  07:45:00     -176.970       72.627      -22.074       42.583       41.891       40.530     1813.292     1754.864     1642.647        2.114        0.261      191.293       29.070        0.023      337.907       10.195      870.245
11/12/2013  07:46:00      -91.802       17.997      -13.901       49.787       43.431       32.172     2478.771     1886.241     1035.046        0.717        0.270       93.549       20.411        0.048      337.969       10.302      870.256
11/12/2013  07:47:00      -98.745      -24.014       -0.116       90.458       37.510       32.203     8182.609     1407.026     1037.045        1.048        0.531      101.623       42.140        0.172      338.056       10.448      870.371
11/12/2013  07:48:00       20.398       -9.133        6.672       24.995       18.186       20.732      624.746      330.717      429.806        0.096        0.069       22.349        7.859        0.124      338.113       10.543      870.448
11/12/2013  07:49:00        4.293      -49.756       -6.313       30.806       40.215       31.929      949.013     1617.227     1019.475        0.306        0.179       49.941       22.881        0.210      338.224       10.730      870.508
11/12/2013  07:50:00      -37.388     -109.159      -10.871       82.840       44.653       33.048     6862.395     1993.916     1092.157        1.169        0.497      115.384       34.758        0.091      338.333       10.914      870.593
11/12/2013  07:51:00     -126.080      -88.494        0.424       63.406       70.484       39.198     4020.320     4967.971     1536.522        1.712        0.526      154.037       36.011        0.055      338.309       10.872      870.652
11/12/2013  07:52:00     -166.590      -96.654       -0.632       56.789       61.953       29.179     3224.942     3838.148      851.433        2.250        0.396      192.598       20.135        0.011      338.191       10.672      870.655
11/12/2013  07:53:00     -165.206      -56.246      -14.615       42.183       33.089       24.432     1779.387     1094.909      596.940        1.707        0.174      174.518       17.899        0.011      338.162       10.626      870.640
11/12/2013  07:54:00     -264.441       51.074      -27.160       86.637       77.502       33.156     7505.975     6006.483     1099.308        4.394        0.731      269.328       26.423        0.010      338.135       10.577      870.627
11/12/2013  07:55:00     -113.433       30.299      -15.236      140.187       75.597       32.622    19652.365     5714.853     1064.165        2.022        1.322      117.410       24.473        0.043      338.103       10.527      870.729
11/12/2013  07:56:00       51.433      -36.250       77.402      102.293      135.776      106.272    10463.937    18435.236    11293.653        2.506        2.010       62.924       94.595        2.260      338.174       10.644      870.941
11/12/2013  07:57:00      255.480     -251.181      -24.725      195.789      221.774      138.717    38333.328    49183.671    19242.492       11.785        5.338      358.276      158.724        0.196      337.750        9.934      870.939
11/12/2013  07:58:00      190.655     -195.879      -14.973      142.623      145.758       67.019    20341.298    21245.433     4491.561        6.050        2.304      273.345       90.266        0.109      337.823       10.055      870.930
11/12/2013  07:59:00       44.717       67.149      103.095       61.878       54.603       34.654     3828.881     2981.446     1200.924        1.257        0.401       80.676       29.028        0.129      337.839       10.083      870.750
11/12/2013  08:00:00       15.476       67.170       99.083       50.041       51.000       39.160     2504.085     2600.968     1533.532        1.060        0.332       68.930       32.654        0.224      337.803       10.024      870.684
11/12/2013  08:01:00        7.168       26.371       48.001       30.038       38.915       31.958      902.275     1514.344     1021.293        0.324        0.172       27.327       24.328        0.793      337.765        9.960      870.630
11/12/2013  08:02:00      -84.936       84.437      -17.435       92.585       49.170       29.088     8571.917     2417.695      846.102        1.324        0.592      119.766       44.129        0.136      337.779        9.984      870.479
11/12/2013  08:03:00     -209.554       55.359      -29.922       62.443       61.663       35.259     3899.131     3802.323     1243.186        2.841        0.447      216.743       29.457        0.018      337.727        9.892      870.315
11/12/2013  08:04:00     -156.609       20.466      -17.305       76.310       76.249       54.873     5823.196     5813.834     3011.093        1.994        0.732      157.941       43.913        0.077      338.029       10.401      870.224
11/12/2013  08:05:00     -204.128      126.206      -22.646       79.517      102.199       39.990     6323.024    10444.605     1599.210        3.823        0.918      239.992       46.154        0.037      338.360       10.955      870.162
11/12/2013  08:06:00     -195.768      146.770      -32.372       72.470       64.472       46.338     5251.926     4156.580     2147.202        3.623        0.578      244.676       43.335        0.031      338.353       10.944      870.138
11/12/2013  08:07:00      -88.036      133.765      -16.606       64.193       63.013       38.998     4120.755     3970.629     1520.861        1.776        0.481      160.136       39.948        0.062      338.334       10.914      870.200
11/12/2013  08:08:00       83.437       91.185       40.197       86.816       79.959       98.086     7536.963     6393.491     9620.826        2.022        1.178      123.598       74.350        0.362      338.417       11.053      870.327
11/12/2013  08:09:00      155.045       91.853      134.623      147.584      151.681      103.370    21781.153    23007.082    10685.393        5.303        2.774      180.211      123.567        0.470      338.128       10.566      870.422
11/12/2013  08:10:00       87.035      117.374      145.383       92.581      107.462       84.286     8571.271    11547.985     7104.131        3.485        1.361      146.123       68.411        0.219      337.949       10.266      870.449
11/12/2013  08:11:00      124.935       65.677       50.084      110.448       50.881       43.844    12198.755     2588.847     1922.327        1.957        0.835      141.146       48.858        0.120      337.840       10.084      870.403
11/12/2013  08:12:00      165.548       98.022       32.211       64.800       49.051       37.180     4199.044     2406.005     1382.385        2.302        0.399      192.391       26.969        0.020      337.761        9.951      870.296
11/12/2013  08:13:00      152.992       89.693       -1.012       49.888       52.644       41.115     2488.796     2771.359     1690.484        1.920        0.348      177.345       24.208        0.019      337.880       10.152      870.279
11/12/2013  08:14:00       34.491      150.915      -14.953       48.897       89.124       32.068     2390.945     7943.173     1028.338        1.777        0.568      154.806       45.597        0.087      337.955       10.277      870.221
11/12/2013  08:15:00      -28.537      224.302      -21.388       39.889       79.826       30.449     1591.130     6372.269      927.147        3.024        0.445      226.110       39.000        0.030      338.045       10.427      870.171
11/12/2013  08:16:00       40.522       85.346        6.497       48.899       56.087       35.505     2391.077     3145.701     1260.631        0.788        0.340       94.477       30.114        0.102      337.988       10.333      870.248
11/12/2013  08:17:00       34.183      -26.785       16.866       35.864       81.945       34.459     1286.244     6714.962     1187.404        0.568        0.459       43.427       27.202        0.392      338.106       10.531      870.422
11/12/2013  08:18:00      104.023     -208.340      -24.910       71.288       66.770       43.389     5081.956     4458.274     1882.586        3.313        0.571      232.866       37.255        0.026      338.299       10.854      870.564
11/12/2013  08:19:00       88.600     -166.909       -0.544       61.165       67.049       43.748     3741.118     4495.512     1913.880        2.293        0.508      188.967       43.356        0.053      338.261       10.790      870.594
11/12/2013  08:20:00      -66.158       17.748       -0.858       88.944       70.697       38.824     7910.995     4998.029     1507.326        0.955        0.721       68.497       30.812        0.202      338.289       10.837      870.475
11/12/2013  08:21:00      -10.413      -23.088       17.615       35.939       34.272       23.420     1291.615     1174.602      548.488        0.198        0.151       25.327       16.153        0.407      338.249       10.772      870.477
11/12/2013  08:22:00       18.240      -85.215       -7.455       79.629       73.837       33.403     6340.821     5451.874     1115.752        1.028        0.645       87.145       39.297        0.203      338.237       10.750      870.593
11/12/2013  08:23:00       72.327      -89.929       40.976       93.525      131.696       90.131     8747.011    17343.787     8123.522        2.460        1.711      115.405       93.478        0.656      338.045       10.427      870.707
11/12/2013  08:24:00      195.198     -160.262      -21.152      145.200      161.997      137.055    21083.134    26243.030    18784.134        6.516        3.306      252.559      126.274        0.250      337.738        9.913      870.801
11/12/2013  08:25:00      220.800     -158.754       11.182      164.677      211.723      145.721    27118.656    44826.719    21234.664        8.361        4.659      271.948      162.383        0.357      337.664        9.788      870.903
11/12/2013  08:26:00      174.283     -263.044      -22.484      107.710      142.884       95.216    11601.367    20415.919     9066.105        7.057        2.054      315.542       99.587        0.100      337.699        9.847      870.969
11/12/2013  08:27:00      105.029      -73.807        8.277       82.988      117.741       57.835     6887.085    13862.865     3344.865        2.032        1.205      128.369       72.127        0.316      337.617        9.710      870.928
11/12/2013  08:28:00       -8.773       41.578       60.668       16.743       30.140       22.019      280.333      908.412      484.848        0.358        0.084       42.493       22.589        0.283      337.663        9.789      870.847
11/12/2013  08:29:00      -41.500       59.016       -7.205       40.022       29.734       23.694     1601.735      884.112      561.391        0.415        0.152       72.146       23.484        0.106      337.886       10.164      870.755
11/12/2013  08:30:00       24.974      138.212      -11.949       32.622       36.273       27.560     1064.191     1315.723      759.548        1.150        0.157      140.450       22.087        0.025      337.797       10.014      870.671
11/12/2013  08:31:00       70.178      109.630       -5.564       53.079       59.158       43.081     2817.397     3499.667     1855.956        1.257        0.409      130.168       31.142        0.057      337.879       10.151      870.621
11/12/2013  08:32:00       55.950      172.623      -12.719       53.769       71.319       53.610     2891.068     5086.428     2874.053        2.197        0.543      181.464       48.146        0.070      337.992       10.339      870.535
11/12/2013  08:33:00        7.218      228.441      -31.651       44.104       42.339       22.588     1945.166     1792.603      510.204        2.874        0.212      228.555       14.476        0.004      337.926       10.227      870.450
11/12/2013  08:34:00      -16.396      170.855      -16.420       40.683      119.802       32.950     1655.100    14352.520     1085.699        2.341        0.855      171.640       49.349        0.083      338.023       10.390      870.536
11/12/2013  08:35:00      154.315     -302.029      -31.478      131.300      175.523       97.191    17239.796    30808.340     9446.121        8.675        2.875      339.167       88.021        0.067      338.040       10.417      871.111
11/12/2013  08:36:00       77.056      -89.565      103.436      129.581      185.705      122.939    16791.305    34486.522    15114.035        4.551        3.320      118.150      132.231        1.253      337.871       10.136      871.442
11/12/2013  08:37:00       81.003      -39.140       46.088       63.666      125.712       61.642     4053.416    15803.384     3799.705        1.693        1.183       89.964       72.930        0.657      337.781        9.985      871.439
11/12/2013  08:38:00       41.355      -25.916       58.859       50.128       81.102       46.949     2512.824     6577.580     2204.215        0.857        0.565       48.805       54.027        1.225      337.789       10.000      871.196
11/12/2013  08:39:00       83.620       56.622       27.094       62.187       31.280       41.094     3867.272      978.411     1688.686        0.873        0.327      100.987       29.364        0.085      337.678        9.815      871.102
11/12/2013  08:40:00       30.681       22.853        7.087       31.912       19.197       10.989     1018.358      368.506      120.762        0.151        0.075       38.257       15.694        0.168      337.735        9.911      871.076
11/12/2013  08:41:00       32.667       65.862        8.023       13.796       33.766       15.824      190.322     1140.121      250.402        0.352        0.079       73.519       15.977        0.047      337.836       10.077      871.100
11/12/2013  08:42:00        8.875      128.238      -24.371       32.978       35.039       16.807     1087.539     1227.759      282.492        0.986        0.130      128.545       20.181        0.025      337.793       10.005      871.128
11/12/2013  08:43:00       28.758      108.747       -6.601       56.938       57.533       36.572     3241.969     3310.081     1337.544        1.029        0.394      112.486       41.220        0.134      337.945       10.262      871.125
11/12/2013  08:44:00       90.516       55.812        2.843       30.142       34.540       25.417      908.547     1193.000      646.032        0.703        0.137      106.340       19.664        0.034      337.917       10.217      871.166
11/12/2013  08:45:00       17.143       19.629       -1.229       20.744       13.000       12.815      430.328      168.998      164.220        0.072        0.038       26.061       10.540        0.164      337.927       10.229      871.154
11/12/2013  08:46:00       19.203       19.399       25.062       18.701       23.627       26.737      349.712      558.223      714.889        0.150        0.081       27.296       22.661        0.689      337.968       10.300      871.172
11/12/2013  08:47:00       22.317       -7.654       24.721       25.631       36.064       31.396      656.966     1300.594      985.697        0.206        0.147       23.593       30.510        1.672      338.001       10.355      871.199
11/12/2013  08:48:00      -41.278       39.578       -6.235       16.454       31.823       14.548      270.745     1012.698      211.659        0.240        0.075       57.187       12.091        0.045      338.002       10.356      871.112
11/12/2013  08:49:00     -124.330       68.455      -26.312       50.202       24.724       17.792     2520.208      611.285      316.554        1.214        0.172      141.929       16.028        0.013      338.001       10.355      871.038
11/12/2013  08:50:00     -148.479      -47.509        1.441       49.632       63.780       33.390     2463.363     4067.929     1114.896        1.597        0.382      155.894       29.706        0.036      337.972       10.308      871.015
11/12/2013  08:51:00      -11.770      -45.029        4.706       85.245       50.735       38.579     7266.675     2574.017     1488.311        0.676        0.566       46.542       26.385        0.321      338.074       10.478      871.083
11/12/2013  08:52:00     -182.953     -107.633       -1.211       79.475       71.845       33.983     6316.299     5161.719     1154.830        2.884        0.632      212.266       31.966        0.023      338.070       10.467      871.097
11/12/2013  08:53:00     -206.606      -79.818       -8.407       88.996       72.221       41.993     7920.328     5215.889     1763.437        3.201        0.745      221.488       42.429        0.037      337.932       10.239      871.053
11/12/2013  08:54:00      -87.716        6.057        7.097       52.367       51.340       27.578     2742.283     2635.812      760.528        0.696        0.307       87.925       27.137        0.095      337.982       10.324      871.052
11/12/2013  08:55:00     -169.214        8.847      -17.286       53.648       30.256       26.052     2878.100      915.447      678.724        1.674        0.224      169.445       26.488        0.024      337.920       10.219      871.043
11/12/2013  08:56:00     -144.427      -13.444      -18.230       29.621       25.969       16.426      877.375      674.390      269.829        1.160        0.091      145.051       16.092        0.012      337.943       10.258      871.019
11/12/2013  08:57:00      -49.605        4.459       -1.002       47.603       30.169       26.206     2266.087      910.186      686.763        0.317        0.193       49.805        7.012        0.020      337.948       10.268      871.022
11/12/2013  08:58:00      -15.676       21.535       -1.430       15.458       17.468       15.204      238.936      305.117      231.149        0.074        0.039       26.636       11.364        0.182      338.000       10.356      871.049
11/12/2013  08:59:00      -10.587       -0.238        5.892       11.800       22.989       12.288      139.251      528.475      150.996        0.048        0.041       10.590       14.013        1.751      338.035       10.414      871.130
11/12/2013  09:00:00      -28.972      -64.103       -4.652       15.659       21.105       15.891      245.214      445.405      252.520        0.296        0.047       70.346        7.983        0.013      338.004       10.361      871.254
11/12/2013  09:01:00      -46.189      -12.879       -0.315       16.908       18.620       12.715      285.892      346.695      161.671        0.155        0.040       47.951       11.821        0.061      338.001       10.357      871.259
11/12/2013  09:02:00      -97.160       12.442      -12.159       10.827       12.288        7.377      117.233      150.993       54.427        0.503        0.016       97.953        6.963        0.005      337.978       10.313      871.224
11/12/2013  09:03:00      -89.951       11.642       -7.152       28.065       17.675        9.456      787.619      312.416       89.411        0.473        0.059       90.701        8.954        0.010      338.005       10.361      871.178
11/12/2013  09:04:00      -19.136       30.572        3.082       28.153       27.225       19.154      792.567      741.183      366.881        0.161        0.095       36.067       19.202        0.283      338.041       10.422      871.162
11/12/2013  09:05:00      -35.070       43.497       -4.990       29.400       37.865       17.126      864.337     1433.774      293.300        0.287        0.130       55.874       18.858        0.114      338.156       10.617      871.129
11/12/2013  09:06:00      -91.313       57.226      -15.190       24.029       23.038       16.186      577.377      530.765      261.981        0.661        0.069      107.763       14.545        0.018      338.108       10.534      871.089
11/12/2013  09:07:00      -84.103       76.101      -19.013       26.224       39.251       18.828      687.710     1540.664      354.490        0.790        0.129      113.423       11.910        0.011      338.083       10.494      871.081
11/12/2013  09:08:00      -40.591      125.078      -15.871       34.597       36.394       22.568     1196.950     1324.500      509.325        1.029        0.152      131.499       20.460        0.024      338.170       10.640      871.071
11/12/2013  09:09:00        0.676      149.487      -23.375       13.805       22.370       12.908      190.582      500.399      166.627        1.188        0.043      149.489        3.611        0.001      338.122       10.557      871.077
11/12/2013  09:10:00      -21.714      104.656       -6.836       18.098       29.561       15.718      327.538      873.834      247.043        0.646        0.072      106.885       13.792        0.017      338.251       10.775      871.062
11/12/2013  09:11:00      -30.848       11.174       -0.158       24.079       22.307       13.742      579.816      497.593      188.847        0.117        0.063       32.810       11.252        0.118      338.240       10.755      871.049
11/12/2013  09:12:00      -67.354      -12.877       -5.919       15.304       21.470       13.200      234.227      460.943      174.237        0.280        0.043       68.574       11.808        0.030      338.219       10.721      871.046
11/12/2013  09:13:00     -109.699       -3.828       -9.942       23.138       28.377       12.004      535.353      805.259      144.100        0.682        0.074      109.766       10.074        0.008      338.170       10.640      871.045
11/12/2013  09:14:00      -96.103       47.223       -2.802       33.670       22.996       18.954     1133.636      528.823      359.241        0.675        0.101      107.078       12.086        0.013      338.190       10.673      870.981
11/12/2013  09:15:00     -113.687       60.098      -13.262       41.503       26.110       25.997     1722.532      681.744      675.837        0.990        0.154      128.594       16.105        0.016      338.260       10.791      870.902
11/12/2013  09:16:00     -120.601       52.160      -27.098       39.280       36.831       17.832     1542.881     1356.492      317.990        1.061        0.161      131.397       10.703        0.007      338.305       10.866      870.887
11/12/2013  09:17:00     -101.721       78.378      -18.636       30.882       45.420       24.305      953.696     2062.992      590.737        1.022        0.180      128.415       28.198        0.048      338.317       10.887      870.857
11/12/2013  09:18:00      -91.634       67.971      -18.288       29.449       34.763       18.120      867.227     1208.497      328.352        0.788        0.120      114.091       16.228        0.020      338.360       10.958      870.807
11/12/2013  09:19:00     -115.948       32.187      -17.861       26.440       23.162       18.039      699.056      536.479      325.395        0.818        0.078      120.332        4.984        0.002      338.376       10.986      870.767
11/12/2013  09:20:00      -97.339       -3.675      -13.138       37.026       31.751       15.233     1370.915     1008.136      232.037        0.614        0.131       97.408       15.172        0.024      338.391       11.010      870.731
11/12/2013  09:21:00     -104.543      -19.569       -7.108       45.369       48.216       25.083     2058.349     2324.748      629.171        0.819        0.251      106.359       13.011        0.015      338.410       11.043      870.726
11/12/2013  09:22:00     -142.011      -71.987        1.937       68.901       56.463       33.014     4747.327     3188.019     1089.945        1.719        0.451      159.215       28.417        0.032      338.420       11.058      870.740
11/12/2013  09:23:00     -192.798      -60.031      -11.393       68.724       54.304       36.224     4722.952     2948.903     1312.205        2.494        0.449      201.928       35.452        0.031      338.398       11.019      870.725
11/12/2013  09:24:00     -179.360      -42.060      -17.239       65.406       49.905       29.022     4277.925     2490.492      842.251        2.092        0.381      184.226       28.247        0.024      338.417       11.052      870.705
11/12/2013  09:25:00     -186.502      -30.713      -22.070       58.779       40.392       26.557     3455.005     1631.537      705.283        2.100        0.290      189.014       19.631        0.011      338.441       11.092      870.679
11/12/2013  09:26:00     -153.742       18.232      -21.189       59.147       93.679       35.258     3498.392     8775.811     1243.136        1.897        0.676      154.819       32.275        0.043      338.512       11.214      870.670
11/12/2013  09:27:00     -112.468       50.085      -13.131       34.056       46.864       29.480     1159.813     2196.215      869.061        0.978        0.211      123.116       23.731        0.037      338.584       11.336      870.653
11/12/2013  09:28:00     -164.694      -82.257      -11.735       51.751       46.628       36.457     2678.172     2174.167     1329.094        2.010        0.309      184.093       19.201        0.011      338.623       11.400      870.652
11/12/2013  09:29:00      -58.314      -23.106       17.537       75.401       47.202       34.230     5685.382     2228.023     1171.664        0.666        0.454       62.725       36.724        0.343      338.735       11.587      870.663
11/12/2013  09:30:00     -177.541     -105.940        0.977      100.902       66.284       44.112    10181.313     4393.626     1945.846        2.963        0.826      206.747       43.847        0.045      338.784       11.668      870.697
11/12/2013  09:31:00     -211.076     -140.075      -15.085       76.521       58.946       37.278     5855.427     3474.676     1389.636        3.756        0.536      253.326       22.171        0.008      338.827       11.740      870.709
11/12/2013  09:32:00     -166.545      -23.300      -15.403       67.194       84.543       36.673     4515.093     7147.489     1344.924        2.076        0.650      168.167       31.331        0.035      338.851       11.780      870.704
11/12/2013  09:33:00      -77.814       34.677       -2.251       51.531       48.132       30.992     2655.417     2316.678      960.534        0.660        0.297       85.191       28.882        0.115      338.982       12.003      870.752
11/12/2013  09:34:00      -89.950       16.916       -8.501       41.345       47.777       24.339     1709.443     2282.618      592.381        0.652        0.229       91.527       28.791        0.099      338.999       12.032      870.761
11/12/2013  09:35:00     -117.437       39.967      -16.706       43.721       25.082       19.263     1911.510      629.107      371.057        0.929        0.146      124.052       21.340        0.030      339.080       12.168      870.707
11/12/2013  09:36:00     -100.017       17.975       -8.939       33.246       30.161       17.337     1105.293      909.670      300.573        0.636        0.116      101.620       10.747        0.011      339.093       12.189      870.647
11/12/2013  09:37:00      -98.989      -15.242       -3.540       32.496       28.432       31.704     1055.992      808.378     1005.172        0.646        0.143      100.156       14.142        0.020      339.138       12.265      870.639
11/12/2013  09:38:00     -102.183        4.474      -13.931       25.990       38.196       22.285      675.478     1458.922      496.629        0.664        0.132      102.280        9.714        0.009      339.274       12.496      870.659
11/12/2013  09:39:00      -49.336       54.264      -12.711       35.288       21.725       17.015     1245.242      471.996      289.503        0.377        0.100       73.339       17.562        0.057      339.448       12.789      870.707
11/12/2013  09:40:00        1.767       38.463        7.469       51.003       29.476       27.943     2601.291      868.857      780.828        0.289        0.213       38.504       28.827        0.561      339.517       12.903      870.746
11/12/2013  09:41:00       46.475       45.377        8.549       26.043       25.125       25.868      678.239      631.265      669.178        0.314        0.099       64.954       22.094        0.116      339.474       12.832      870.754
11/12/2013  09:42:00      115.103       52.700       26.124       42.470       30.525       43.092     1803.677      931.806     1856.945        1.065        0.230      126.594       25.058        0.039      339.551       12.961      870.754
11/12/2013  09:43:00      119.270       75.957       28.693       39.187       38.659       39.363     1535.634     1494.535     1549.417        1.270        0.229      141.403       18.475        0.017      339.558       12.973      870.744
11/12/2013  09:44:00      156.477       88.136       30.559       44.861       37.687       40.322     2012.496     1420.278     1625.875        1.912        0.253      179.591       31.946        0.032      339.544       12.950      870.694
11/12/2013  09:45:00      113.967       96.349       36.084       49.605       42.939       41.856     2460.649     1843.762     1751.897        1.481        0.303      149.236       33.076        0.049      339.480       12.840      870.644
11/12/2013  09:46:00      123.101      100.991       15.266       68.511       37.896       32.935     4693.695     1436.079     1084.723        1.640        0.361      159.227       18.840        0.014      339.500       12.873      870.594
11/12/2013  09:47:00       79.841       93.956      -15.819       56.873       54.261       37.840     3234.513     2944.210     1431.854        1.153        0.381      123.298       31.187        0.064      339.547       12.955      870.529
11/12/2013  09:48:00       41.131       64.257        2.640       44.052       41.841       37.126     1940.545     1750.644     1378.341        0.545        0.253       76.294       29.453        0.149      339.630       13.095      870.471
11/12/2013  09:49:00       50.603       83.370       -8.858       53.305       61.416       43.659     2841.392     3771.870     1906.087        0.905        0.426       97.525       38.871        0.159      339.781       13.350      870.434
11/12/2013  09:50:00       39.225       93.011       -7.081       39.326       44.081       31.676     1546.562     1943.127     1003.349        0.737        0.225      100.944       27.464        0.074      339.978       13.682      870.431
11/12/2013  09:51:00       46.360       62.493       -1.600       32.340       34.917       29.380     1045.869     1219.174      863.213        0.459        0.156       77.812       24.604        0.100      340.078       13.852      870.424
11/12/2013  09:52:00       35.737       45.819       -0.258       29.681       29.921       26.228      880.958      895.275      687.910        0.292        0.123       58.108       19.473        0.112      340.100       13.887      870.411
11/12/2013  09:53:00       72.361       60.731       13.597       35.984       30.317       23.967     1294.884      919.130      574.423        0.595        0.139       94.469       13.295        0.020      340.161       13.990      870.456
11/12/2013  09:54:00       27.022       34.502        9.906       43.013       15.010       23.675     1850.088      225.313      560.493        0.233        0.132       43.825       25.580        0.341      340.179       14.021      870.476
11/12/2013  09:55:00      -38.242        0.028       -6.528       18.807       14.150        9.194      353.694      200.236       84.528        0.107        0.032       38.242        8.650        0.051      340.159       13.987      870.492
11/12/2013  09:56:00       -5.632      -42.125      -12.144       16.598       23.606       13.881      275.491      557.261      192.668        0.149        0.051       42.500       12.981        0.093      340.278       14.187      870.533
11/12/2013  09:57:00      -38.611       -7.246        5.203       37.424       21.886       27.212     1400.581      478.986      740.471        0.209        0.131       39.285       17.918        0.208      340.340       14.292      870.562
11/12/2013  09:58:00      -60.245      -75.313       -4.792       59.990       47.792       21.846     3598.778     2284.120      477.239        0.784        0.318       96.444       23.759        0.061      340.350       14.309      870.590
11/12/2013  09:59:00      -57.020      -86.082       12.350       56.975       37.579       28.342     3246.187     1412.200      803.291        0.814        0.273      103.254       28.225        0.075      340.394       14.384      870.630
11/12/2013  10:00:00      -46.727     -136.380       -5.227       20.416       21.606       17.279      416.796      466.815      298.566        1.100        0.059      144.163        8.892        0.004      340.308       14.239      870.669
11/12/2013  10:01:00      -23.372      -44.892        1.782       22.866       45.147       23.208      522.849     2038.265      538.626        0.283        0.155       50.612       21.427        0.179      340.506       14.574      870.667
11/12/2013  10:02:00      -34.715       -8.661       11.908       28.323       12.059       12.493      802.177      145.414      156.066        0.126        0.055       35.779       13.025        0.133      340.539       14.629      870.666
11/12/2013  10:03:00       51.852      -51.384        1.675       34.157       46.540       24.736     1166.732     2165.956      611.876        0.464        0.197       73.000       25.907        0.126      340.577       14.693      870.685
11/12/2013  10:04:00       21.276      -26.156       14.181       26.074       57.176       26.408      679.858     3269.082      697.375        0.299        0.232       33.716       31.825        0.891      340.739       14.968      870.698
11/12/2013  10:05:00        4.481       11.214       45.948       27.582       38.980       30.544      760.783     1519.411      932.914        0.273        0.161       12.076       20.612        2.913      340.722       14.939      870.701
11/12/2013  10:06:00      -12.021       61.044       83.220       13.428       31.617       19.547      180.313      999.658      382.102        0.618        0.078       62.217       21.516        0.120      340.774       15.028      870.685
11/12/2013  10:07:00        3.485       59.677       71.049       27.664       29.264       22.453      765.321      856.363      504.140        0.537        0.106       59.779       20.079        0.113      340.746       14.978      870.658
11/12/2013  10:08:00       66.452       71.952       56.109       51.212       41.879       48.047     2622.695     1753.817     2308.562        0.971        0.334       97.944       35.167        0.129      340.535       14.621      870.635
11/12/2013  10:09:00       84.984       87.189       79.296       59.519       45.990       52.723     3542.540     2115.042     2779.734        1.477        0.422      121.755       49.549        0.166      340.529       14.613      870.627
11/12/2013  10:10:00      116.787      138.345       85.316      105.496       67.455       86.613    11129.353     4550.210     7501.794        3.162        1.159      181.048       85.703        0.224      340.476       14.520      870.625
11/12/2013  10:11:00      104.602       80.546       56.334       79.801       64.892       61.677     6368.245     4211.035     3804.083        1.749        0.719      132.020       35.747        0.073      340.502       14.566      870.616
11/12/2013  10:12:00      165.214      132.614       30.008       70.473       65.327       59.542     4966.491     4267.656     3545.263        2.928        0.639      211.854       25.170        0.014      340.212       14.075      870.587
11/12/2013  10:13:00       88.127       39.373       15.825       42.312       43.629       35.436     1790.319     1903.521     1255.744        0.726        0.247       96.523       19.883        0.042      340.195       14.048      870.582
11/12/2013  10:14:00       90.628       68.193       43.578       49.587       48.702       45.533     2458.840     2371.852     2073.252        1.083        0.345      113.419       24.140        0.045      340.277       14.187      870.555
11/12/2013  10:15:00      132.378      124.140       90.725       74.192       64.373       57.009     5504.435     4143.853     3249.984        2.703        0.645      181.479       49.636        0.075      339.978       13.679      870.496
11/12/2013  10:16:00       73.460       47.933       62.257       61.593       58.678       34.662     3793.667     3443.057     1201.454        1.000        0.422       87.715       27.992        0.102      340.044       13.794      870.445
11/12/2013  10:17:00       16.184      -11.660       35.695       29.754       65.822       36.208      885.311     4332.538     1311.034        0.410        0.326       19.947       40.289        4.079      340.152       13.975      870.420
11/12/2013  10:18:00       25.535       33.193       38.567       28.635       23.806       17.086      819.972      566.704      291.931        0.246        0.084       41.878       13.434        0.103      340.338       14.288      870.378
11/12/2013  10:19:00       19.906       13.302        8.311       31.828       23.146       18.185     1013.000      535.745      330.684        0.126        0.094       23.942        8.201        0.117      340.273       14.180      870.329
11/12/2013  10:20:00       60.264       21.413        4.180       34.317       31.443       20.842     1177.640      988.682      434.385        0.335        0.130       63.955       15.873        0.062      340.262       14.160      870.305
11/12/2013  10:21:00       90.013       52.266       13.553       43.064       29.391       26.723     1854.529      863.825      714.103        0.722        0.172      104.087       24.987        0.058      340.291       14.210      870.308
11/12/2013  10:22:00       44.972       56.415       34.250       35.320       31.334       24.347     1247.497      981.803      592.767        0.460        0.141       72.146       15.232        0.045      340.516       14.591      870.327
11/12/2013  10:23:00       57.861       53.503       28.663       58.300       34.354       32.231     3398.938     1180.231     1038.814        0.632        0.281       78.807       36.989        0.220      340.522       14.601      870.360
11/12/2013  10:24:00       84.519       51.244       17.784       39.696       28.647       29.070     1575.743      820.638      845.078        0.666        0.162       98.841       15.010        0.023      340.385       14.371      870.363
11/12/2013  10:25:00       71.301       62.536       13.316       15.379       16.833       27.430      236.507      283.344      752.390        0.522        0.064       94.839       16.271        0.029      340.346       14.301      870.357
11/12/2013  10:26:00       41.130       38.160       28.623       19.883       21.386       13.523      395.323      457.375      182.865        0.250        0.052       56.106       12.749        0.052      340.524       14.602      870.360
11/12/2013  10:27:00        0.670       25.737       52.159       14.419       26.214       18.020      207.917      687.175      324.719        0.230        0.061       25.746       17.577        0.466      340.716       14.930      870.357
11/12/2013  10:28:00       27.364       43.202       59.924       38.531       40.029       20.024     1484.633     1602.294      400.953        0.485        0.174       51.139       23.571        0.212      340.573       14.687      870.357
11/12/2013  10:29:00       11.151       26.373       32.504       35.045       26.580       26.110     1228.170      706.475      681.729        0.225        0.131       28.633       24.828        0.752      340.699       14.900      870.349
11/12/2013  10:30:00       20.621       59.799       70.580       35.262       43.005       25.825     1243.409     1849.405      666.922        0.637        0.188       63.255       26.931        0.181      340.686       14.878      870.357
11/12/2013  10:31:00       67.921       54.342       23.757       30.758       22.591       23.731      946.061      510.367      563.137        0.507        0.101       86.985       17.768        0.042      340.487       14.540      870.370
11/12/2013  10:32:00       65.355       36.057       17.041       39.448       23.695       30.695     1556.181      561.470      942.195        0.446        0.153       74.642       28.450        0.145      340.561       14.667      870.377
11/12/2013  10:33:00       40.198       54.075       43.749       36.893       27.677       28.142     1361.101      766.013      791.950        0.469        0.146       67.379       24.992        0.138      340.625       14.774      870.372
11/12/2013  10:34:00       48.201       28.468        5.413       34.218       19.916       18.197     1170.865      396.645      331.120        0.253        0.095       55.980       17.871        0.102      340.621       14.770      870.375
11/12/2013  10:35:00       39.331        9.417        9.345       27.812       18.544       17.885      773.516      343.893      319.875        0.158        0.072       40.443       14.507        0.129      340.719       14.933      870.367
11/12/2013  10:36:00       -4.865       31.665        2.713       13.216       15.669       16.684      174.672      245.514      278.341        0.087        0.035       32.037        4.217        0.017      340.727       14.947      870.355
11/12/2013  10:37:00       25.311       46.950       -1.851       21.072       17.242       23.314      444.036      297.295      543.557        0.207        0.064       53.338       15.236        0.082      340.680       14.868      870.319
11/12/2013  10:38:00       43.807       15.207        5.426       17.027       11.699       16.473      289.929      136.858      271.368        0.144        0.035       46.371        8.074        0.030      340.696       14.892      870.276
11/12/2013  10:39:00        8.118       12.962       -2.688       11.428       13.492        7.610      130.593      182.022       57.908        0.031        0.019       15.294        7.702        0.254      340.771       15.020      870.246
11/12/2013  10:40:00        0.659       55.649       -2.960       29.791       16.582       16.246      887.488      274.969      263.936        0.227        0.071       55.653        8.049        0.021      340.833       15.127      870.220
11/12/2013  10:41:00       -5.001       71.747      -11.698       11.693       24.892        8.542      136.716      619.605       72.964        0.307        0.041       71.921        9.748        0.018      340.810       15.088      870.220
11/12/2013  10:42:00       -6.587       50.943       -8.973       17.861       16.997       10.382      318.999      288.910      107.784        0.172        0.036       51.367       10.147        0.039      340.849       15.155      870.211
11/12/2013  10:43:00      -17.856        4.815        4.801       21.777        8.396        8.838      474.246       70.494       78.108        0.049        0.031       18.493       12.468        0.455      340.938       15.304      870.191
11/12/2013  10:44:00       14.989       44.538       -0.718       22.363       33.118       15.551      500.117     1096.786      241.829        0.202        0.092       46.993       19.407        0.171      340.997       15.403      870.160
11/12/2013  10:45:00       23.388       47.606       -2.045       17.504       30.108       16.271      306.402      906.490      264.755        0.215        0.074       53.041       16.138        0.093      340.953       15.329      870.132
11/12/2013  10:46:00       73.287       42.776       12.882       13.418       17.377       16.861      180.032      301.965      284.278        0.407        0.038       84.857       11.475        0.018      340.932       15.294      870.101
11/12/2013  10:47:00       59.664       39.013       18.450       13.275       12.003       19.934      176.237      144.079      397.358        0.307        0.036       71.287       10.923        0.023      340.970       15.358      870.090
11/12/2013  10:48:00       47.865       32.573        6.957       16.161        9.988       14.973      261.193       99.756      224.182        0.199        0.029       57.897       10.022        0.030      340.998       15.403      870.073
11/12/2013  10:49:00       56.383       40.132       17.885       19.208       15.993       15.420      368.946      255.766      237.761        0.299        0.043       69.207        9.897        0.020      341.011       15.426      870.054
11/12/2013  10:50:00       -7.630       -2.618       32.989       20.664       33.891       20.217      427.015     1148.618      408.710        0.157        0.099        8.067       18.773        5.415      341.207       15.759      870.047
11/12/2013  10:51:00       -1.125       25.497       41.017       14.801       22.715       17.986      219.078      515.951      323.505        0.170        0.053       25.522       10.417        0.167      341.218       15.779      870.033
11/12/2013  10:52:00       37.944       36.804       32.787       22.366       15.165       17.129      500.243      229.984      293.415        0.245        0.051       52.861       15.908        0.091      341.039       15.476      870.015
11/12/2013  10:53:00       80.745       37.207       15.891       32.656       17.694       20.289     1066.390      313.094      411.657        0.497        0.090       88.905       19.629        0.049      341.006       15.420      869.988
11/12/2013  10:54:00       50.561       42.820        8.276       30.934       31.658       25.799      956.882     1002.235      665.597        0.354        0.131       66.257       20.062        0.092      341.042       15.478      869.983
11/12/2013  10:55:00       35.453       36.021       -1.164       18.362       14.623       15.364      337.170      213.837      236.068        0.167        0.039       50.541       11.094        0.048      341.070       15.528      869.981
11/12/2013  10:56:00       39.620       36.614        9.549       15.078       17.015       17.888      227.335      289.514      319.990        0.192        0.042       53.947       12.302        0.052      341.117       15.608      869.972
11/12/2013  10:57:00       29.853       30.417       16.646       18.304       20.042       20.473      335.027      401.667      419.154        0.162        0.058       42.619        7.237        0.029      341.203       15.753      869.963
11/12/2013  10:58:00       12.212        8.924       16.971       19.925       15.296       13.072      397.017      233.979      170.886        0.066        0.040       15.125       12.780        0.714      341.354       16.009      869.943
11/12/2013  10:59:00        9.507       32.096       10.858       20.114       29.267       20.440      404.569      856.566      417.806        0.146        0.084       33.474       20.815        0.387      341.349       15.999      869.922
11/12/2013  11:00:00       32.179       24.663       13.713       11.247       14.856       18.633      126.486      220.715      347.187        0.126        0.035       40.544        9.664        0.057      341.309       15.932      869.906
11/12/2013  11:01:00      -27.673       -9.598        2.432       20.657       16.086       10.365      426.698      258.774      107.423        0.083        0.040       29.291        5.641        0.037      341.305       15.926      869.886
11/12/2013  11:02:00     -111.202      -57.480       -7.505       34.885       18.869       11.383     1216.954      356.023      129.584        0.871        0.085      125.179        3.200        0.001      341.232       15.802      869.886
11/12/2013  11:03:00      -25.180      -41.699       -0.298       36.540       31.151       21.566     1335.183      970.383      465.072        0.257        0.139       48.712       17.982        0.136      341.449       16.169      869.873
11/12/2013  11:04:00        5.814        8.684       29.769       16.991       12.293       12.488      288.708      151.119      155.953        0.080        0.030       10.451       12.936        1.532      341.691       16.578      869.848
11/12/2013  11:05:00       31.898       18.762       15.719       11.239       12.487       16.927      126.314      155.913      286.533        0.109        0.028       37.007       10.855        0.086      341.454       16.178      869.830
11/12/2013  11:06:00        8.906        1.092        0.780       12.304       13.622        9.321      151.382      185.568       86.884        0.025        0.021        8.972        7.299        0.662      341.531       16.307      869.822
11/12/2013  11:07:00      -35.798      -14.066       -4.715       18.193       17.970       12.087      330.983      322.920      146.092        0.115        0.040       38.462       10.634        0.076      341.509       16.270      869.823
11/12/2013  11:08:00      -37.333      -26.523       -6.588       19.090       11.984        9.629      364.429      143.622       92.722        0.137        0.030       45.796        4.863        0.011      341.468       16.200      869.816
11/12/2013  11:09:00      -56.770      -12.841       -0.392       23.433       21.924        9.172      549.086      480.681       84.119        0.225        0.056       58.204       10.025        0.030      341.487       16.232      869.783
11/12/2013  11:10:00      -87.767      -66.653       -4.803       30.996       21.764       15.952      960.782      473.667      254.465        0.693        0.084      110.207       10.205        0.009      341.437       16.148      869.756
11/12/2013  11:11:00      -87.789      -70.525       -1.856       33.287       28.083       19.865     1108.038      788.681      394.604        0.749        0.115      112.609        9.056        0.006      341.434       16.143      869.712
11/12/2013  11:12:00      -20.482      -56.732        8.095       33.298       35.829       24.205     1108.749     1283.708      585.896        0.334        0.149       60.316       20.810        0.119      341.512       16.276      869.686
11/12/2013  11:13:00        6.636      -31.865        6.344       17.043       30.726       12.663      290.456      944.100      160.346        0.125        0.070       32.549        8.646        0.071      341.518       16.286      869.674
11/12/2013  11:14:00       12.253       11.168        8.954       10.568        9.046       19.146      111.673       81.833      366.561        0.046        0.028       16.579        6.767        0.167      341.679       16.559      869.667
11/12/2013  11:15:00      -45.243      -21.851       -2.688       24.164       15.511       11.121      583.877      240.598      123.672        0.174        0.047       50.243       13.692        0.074      341.502       16.259      869.658
11/12/2013  11:16:00      -34.918      -31.769       -3.450       21.424       10.118        9.094      458.975      102.365       82.704        0.144        0.032       47.208        9.320        0.039      341.443       16.158      869.657
11/12/2013  11:17:00      -44.765      -16.090       -5.878        9.138        9.596        8.204       83.511       92.092       67.314        0.127        0.012       47.569        1.623        0.001      341.438       16.151      869.657
11/12/2013  11:18:00      -66.184      -23.390       -6.742       14.490       17.965        7.997      209.954      322.740       63.952        0.278        0.030       70.196        3.983        0.003      341.463       16.191      869.663
11/12/2013  11:19:00      -36.344      -16.059        1.871       13.889       18.059       10.740      192.895      326.111      115.351        0.111        0.032       39.734        9.718        0.060      341.540       16.321      869.641
11/12/2013  11:20:00        3.634      -31.632      -10.446       16.735       19.337       10.727      280.067      373.900      115.059        0.095        0.038       31.841        8.300        0.068      341.594       16.415      869.645
11/12/2013  11:21:00        5.874       19.603        7.771       14.014       15.524       10.320      196.384      240.981      106.496        0.051        0.027       20.464        8.446        0.170      341.673       16.549      869.646
11/12/2013  11:22:00        3.639        6.899       18.813       12.629        8.770        6.775      159.492       76.918       45.907        0.035        0.014        7.800        5.238        0.451      341.853       16.853      869.626
11/12/2013  11:23:00      -54.911        3.732       -2.417       13.361       11.416        9.700      178.512      130.325       94.091        0.172        0.020       55.038        6.904        0.016      341.562       16.359      869.616
11/12/2013  11:24:00      -82.149      -19.299      -14.551        9.967       12.546       10.848       99.348      157.392      117.679        0.385        0.019       84.386        4.486        0.003      341.580       16.392      869.587
11/12/2013  11:25:00      -71.512      -24.551       -0.484       25.136       26.471       13.479      631.814      700.691      181.675        0.362        0.076       75.609        9.491        0.016      341.652       16.514      869.557
11/12/2013  11:26:00      -49.387      -35.835       -3.408       18.257       21.167       12.252      333.333      448.058      150.122        0.233        0.047       61.018        9.799        0.026      341.699       16.595      869.532
11/12/2013  11:27:00      -22.874      -19.412        9.375       15.254       17.701       11.003      232.677      313.313      121.057        0.083        0.033       30.000        7.189        0.057      341.843       16.836      869.503
11/12/2013  11:28:00      -39.099      -33.807        3.600       33.870       33.170       19.895     1147.182     1100.225      395.823        0.266        0.132       51.688       18.244        0.125      341.822       16.800      869.487
11/12/2013  11:29:00      -73.922      -67.527       -0.448       44.872       26.081       19.507     2013.455      680.199      380.541        0.655        0.154      100.122       20.802        0.043      341.741       16.664      869.479
11/12/2013  11:30:00      -43.217      -52.777        3.946       27.717       22.043       21.128      768.207      485.912      446.380        0.318        0.085       68.213       17.257        0.064      341.756       16.690      869.468
11/12/2013  11:31:00      -36.136      -72.505       -1.204       15.160       17.075        7.096      229.822      291.568       50.355        0.357        0.029       81.011        6.010        0.006      341.683       16.567      869.457
11/12/2013  11:32:00      -43.753      -42.766       -1.333       22.999       21.628       16.113      528.968      467.772      259.628        0.250        0.063       61.182       14.246        0.054      341.841       16.834      869.424
11/12/2013  11:33:00     -101.612       14.716       -8.454       18.046       15.414       12.923      325.647      237.582      166.997        0.567        0.037      102.673        7.649        0.006      341.798       16.761      869.415
11/12/2013  11:34:00     -102.313       14.755      -11.112       20.435       14.943       12.463      417.610      223.296      155.325        0.580        0.040      103.372        9.243        0.008      341.799       16.761      869.398
11/12/2013  11:35:00      -54.206       -3.356       -0.423       28.712       15.154       11.149      824.378      229.633      124.301        0.206        0.059       54.309        8.348        0.024      341.957       17.031      869.388
11/12/2013  11:36:00      -39.494      -13.304        4.025       23.818       19.894       13.481      567.301      395.789      181.737        0.145        0.057       41.674       12.353        0.088      342.095       17.265      869.380
11/12/2013  11:37:00      -64.558       11.545       -0.226       47.967       26.024       19.463     2300.814      677.269      378.821        0.383        0.168       65.582       20.422        0.097      342.076       17.233      869.368
11/12/2013  11:38:00      -80.807       17.443      -15.945       20.055       17.936       15.275      402.218      321.687      233.319        0.402        0.048       82.668        9.027        0.012      342.005       17.113      869.363
11/12/2013  11:39:00      -64.528        9.442       -7.818       29.549       23.585       17.316      873.154      556.263      299.831        0.302        0.086       65.216       13.832        0.045      342.078       17.237      869.346
11/12/2013  11:40:00      -38.879      -26.138       -3.572       27.339       23.002       10.112      747.415      529.091      102.250        0.179        0.069       46.849        7.222        0.024      342.101       17.277      869.336
11/12/2013  11:41:00      -57.989      -11.076        6.295       42.098       34.597       16.020     1772.214     1196.983      256.632        0.337        0.161       59.037       12.882        0.048      342.262       17.549      869.316
11/12/2013  11:42:00      -38.784       11.494       -1.197       23.921       23.834       17.839      572.205      568.062      318.246        0.155        0.073       40.452       12.954        0.103      342.344       17.686      869.302
11/12/2013  11:43:00      -31.600        8.804       -1.463       11.013       21.148       10.603      121.278      447.234      112.425        0.088        0.034       32.804        8.828        0.072      342.252       17.532      869.274
11/12/2013  11:44:00      -38.034       -7.885      -12.761       22.687       17.085       13.666      514.713      291.893      186.770        0.133        0.050       38.843        9.351        0.058      342.339       17.679      869.258
11/12/2013  11:45:00      -71.369      -12.477      -18.049       17.809       22.150       10.850      317.168      490.636      117.726        0.325        0.046       72.452        8.723        0.014      342.178       17.406      869.240
11/12/2013  11:46:00      -67.445       -9.860      -10.868       29.846       33.168       12.395      890.755     1100.123      153.634        0.345        0.107       68.162        9.980        0.021      342.265       17.552      869.233
11/12/2013  11:47:00      -19.616        1.824        7.169       20.492       23.044       12.774      419.928      531.027      163.177        0.078        0.056       19.700        8.804        0.200      342.548       18.035      869.225
11/12/2013  11:48:00      -46.448        7.810        0.098       32.673       21.402       15.987     1067.534      458.044      255.568        0.200        0.089       47.100       11.853        0.063      342.472       17.905      869.223
11/12/2013  11:49:00     -105.139       -3.127      -12.677       36.246       22.114       18.688     1313.780      489.051      349.260        0.669        0.108      105.186       16.459        0.024      342.327       17.656      869.215
11/12/2013  11:50:00     -114.258       -3.679      -13.948       28.642       24.286       15.163      820.355      589.808      229.903        0.745        0.082      114.317       12.276        0.012      342.362       17.718      869.220
11/12/2013  11:51:00      -98.529      -16.375       -2.409       48.851       44.575       19.181     2386.460     1986.960      367.925        0.736        0.237       99.880       21.077        0.045      342.445       17.859      869.214
11/12/2013  11:52:00      -75.126       -2.941       -4.544       23.732       21.303       19.460      563.203      453.807      378.698        0.353        0.070       75.183       13.092        0.030      342.494       17.942      869.209
11/12/2013  11:53:00      -80.682       -9.083       -2.800       25.176       18.715       19.154      633.840      350.263      366.866        0.398        0.068       81.192       14.465        0.032      342.492       17.940      869.198
11/12/2013  11:54:00      -27.596      -27.332       -7.889       14.840       20.388       18.782      220.234      415.690      352.746        0.128        0.049       38.841       17.807        0.210      342.642       18.193      869.180
11/12/2013  11:55:00       -1.956      -33.896        9.243        7.991       15.295       13.782       63.849      233.931      189.934        0.086        0.024       33.952        7.178        0.045      342.609       18.139      869.161
11/12/2013  11:56:00       -1.570       33.848        7.903       20.639       58.508       17.311      425.968     3423.223      299.658        0.268        0.207       33.884       23.999        0.502      342.780       18.430      869.147
11/12/2013  11:57:00       16.664       86.684       -9.025       22.376       33.121       25.874      500.689     1097.009      669.461        0.507        0.113       88.271       23.533        0.071      342.684       18.265      869.135
11/12/2013  11:58:00      -15.472       71.139       -3.134       25.989       27.475       21.223      675.445      754.890      450.436        0.360        0.094       72.802       12.578        0.030      342.665       18.234      869.133
11/12/2013  11:59:00      -13.193       41.262        4.374       17.339       34.848       16.497      300.644     1214.352      272.154        0.184        0.089       43.320       12.055        0.077      342.813       18.486      869.127
11/12/2013  12:00:00      -41.554       25.488       -8.608       26.065       44.091       14.369      679.385     1943.978      206.478        0.264        0.141       48.748        5.143        0.011      342.591       18.106      869.124
11/12/2013  12:01:00      -49.916      106.131      -14.696       24.187       45.904       17.877      585.021     2107.158      319.576        0.849        0.151      117.284       17.924        0.023      342.607       18.135      869.111
11/12/2013  12:02:00      -33.135       66.936       -4.829       23.157       30.915       20.286      536.240      955.715      411.522        0.375        0.095       74.688       14.775        0.039      342.798       18.460      869.101
11/12/2013  12:03:00       -6.313       55.656      -17.876       23.934       36.483       20.505      572.816     1331.028      420.441        0.289        0.116       56.013       15.813        0.080      342.676       18.252      869.089
11/12/2013  12:04:00       17.843       55.570        3.667       21.076       24.986       25.507      444.211      624.278      650.594        0.257        0.086       58.364       15.684        0.072      342.738       18.357      869.070
11/12/2013  12:05:00       34.113       29.830       -3.188       23.346       30.280       15.400      545.025      916.866      237.170        0.188        0.085       45.316       13.072        0.083      342.710       18.310      869.050
11/12/2013  12:06:00       31.817      131.579      -12.579       20.586       27.621       21.149      423.786      762.925      447.290        1.006        0.082      135.371       14.374        0.011      342.730       18.345      869.024
11/12/2013  12:07:00       14.048      100.526      -11.251       25.447       43.537       24.656      647.533     1895.471      607.928        0.679        0.158      101.503       24.596        0.059      342.814       18.485      869.001
11/12/2013  12:08:00       -8.945       92.548      -13.565       17.457       34.539       15.006      304.749     1192.954      225.174        0.528        0.086       92.979       19.560        0.044      342.806       18.473      868.983
11/12/2013  12:09:00      -14.572       92.297      -12.251       13.745       21.059       17.120      188.920      443.474      293.084        0.490        0.046       93.440       10.378        0.012      342.855       18.556      868.973
11/12/2013  12:10:00      -50.557       26.312      -11.031       41.926       56.324       20.833     1757.781     3172.389      434.007        0.437        0.268       56.994        8.654        0.023      342.951       18.721      868.961
11/12/2013  12:11:00     -120.438      -41.903      -14.409       42.656       37.455       20.057     1819.541     1402.910      402.289        1.005        0.181      127.519       16.012        0.016      342.928       18.680      868.965
11/12/2013  12:12:00     -111.749      -80.289      -11.851       48.265       42.382       32.563     2329.488     1796.248     1060.332        1.213        0.259      137.602       28.992        0.044      342.931       18.686      868.971
11/12/2013  12:13:00     -117.557      -49.072      -13.188       30.919       31.794       21.709      955.965     1010.843      471.294        0.942        0.122      127.388       13.381        0.011      342.753       18.381      868.984
11/12/2013  12:14:00       -3.221      -15.449       -2.191       19.417       23.048       19.031      377.020      531.227      362.165        0.076        0.064       15.781       17.943        1.293      342.948       18.714      868.979
11/12/2013  12:15:00       23.035       27.272       25.434       18.057       20.774       15.330      326.066      431.568      235.024        0.146        0.050       35.698        8.711        0.060      343.159       19.075      868.965
11/12/2013  12:16:00      -49.705      -28.791        0.096       26.118       29.118       18.730      682.135      847.872      350.817        0.259        0.094       57.441       20.899        0.132      343.251       19.233      868.954
11/12/2013  12:17:00       -8.372        5.744       -9.003       29.955       26.111       25.236      897.324      681.793      636.848        0.120        0.111       10.153       16.911        2.775      343.310       19.333      868.941
11/12/2013  12:18:00       21.000       20.702       -6.264       33.183       39.156       20.058     1101.117     1533.204      402.307        0.197        0.152       29.489        9.734        0.109      343.159       19.074      868.935
11/12/2013  12:19:00      -12.910        8.924       16.120       20.702       13.685       11.827      428.588      187.269      139.877        0.063        0.038       15.694       10.614        0.457      343.635       19.886      868.929
11/12/2013  12:20:00      -72.911      -17.291       -6.400       30.563       19.381       13.732      934.071      375.618      188.560        0.358        0.075       74.933        7.937        0.011      343.164       19.082      868.936
11/12/2013  12:21:00       39.026      -52.324        6.331       48.307       63.109       46.814     2333.605     3982.702     2191.513        0.640        0.425       65.275       43.901        0.452      343.332       19.369      868.936
11/12/2013  12:22:00       32.054       12.746       31.527       32.580       33.984       30.012     1061.468     1154.911      900.743        0.265        0.156       34.495        7.564        0.048      343.386       19.461      868.940
11/12/2013  12:23:00        0.849       35.788       49.271       32.810       36.296       22.943     1076.518     1317.418      526.359        0.331        0.146       35.798       23.338        0.425      343.335       19.375      868.925
11/12/2013  12:24:00       22.631        4.865       34.525       20.729       28.634       24.824      429.710      819.908      616.251        0.180        0.093       23.148       23.030        0.990      343.353       19.406      868.900
11/12/2013  12:25:00       26.402       32.359       46.753       31.048       44.409       25.850      963.965     1972.197      668.213        0.377        0.180       41.763       32.882        0.620      343.350       19.400      868.878
11/12/2013  12:26:00        0.815       -8.567       25.544       28.674       50.706       31.688      822.172     2571.063     1004.106        0.256        0.220        8.605       39.803       21.395      343.796       20.160      868.874
11/12/2013  12:27:00        2.426        0.647       49.434       24.895       54.382       37.853      619.775     2957.442     1432.857        0.373        0.251        2.510       40.382      258.738      343.739       20.063      868.861
11/12/2013  12:28:00      -36.595      -32.021       -3.539       49.158       56.809       32.964     2416.464     3227.221     1086.652        0.455        0.337       48.626       39.724        0.667      343.475       19.615      868.860
11/12/2013  12:29:00       -2.562      -32.378       -2.424       51.459       69.506       44.763     2648.077     4831.029     2003.716        0.527        0.474       32.480       42.225        1.690      343.470       19.605      868.860
11/12/2013  12:30:00        9.357      -25.248       23.566       47.081       49.061       39.602     2216.631     2406.958     1568.355        0.374        0.310       26.926       25.597        0.904      343.533       19.711      868.869
11/12/2013  12:31:00       19.874        8.687       52.868       40.324       56.062       35.164     1626.037     3142.896     1236.492        0.463        0.300       21.690       33.217        2.345      343.532       19.709      868.877
11/12/2013  12:32:00      -79.645      -63.848       -6.855       52.394       45.594       31.709     2745.136     2078.787     1005.492        0.815        0.291      102.078       33.478        0.108      343.303       19.320      868.870
11/12/2013  12:33:00       -5.673        2.822       15.370       35.917       33.281       19.024     1290.033     1107.599      361.903        0.152        0.138        6.336       16.443        6.734      343.518       19.685      868.865
11/12/2013  12:34:00       25.112        0.395       45.154       40.829       53.365       34.253     1667.047     2847.866     1173.273        0.418        0.284       25.115       41.710        2.758      343.733       20.053      868.877
11/12/2013  12:35:00       23.176      -53.094       11.571       51.739       62.965       32.545     2676.919     3964.649     1059.169        0.559        0.385       57.932       34.709        0.359      343.514       19.679      868.881
11/12/2013  12:36:00       -4.929      -20.064        6.828       19.148       38.429       23.786      366.664     1476.759      565.757        0.144        0.120       20.661       24.393        1.394      343.625       19.868      868.891
11/12/2013  12:37:00       60.213     -102.281      -18.242       64.415       86.922       47.267     4149.354     7555.426     2234.201        1.418        0.697      118.689       55.584        0.219      343.448       19.567      868.893
11/12/2013  12:38:00      117.486     -100.906      -32.729       59.411       76.350       45.071     3529.660     5829.342     2031.437        1.822        0.570      154.871       41.055        0.070      343.256       19.237      868.909
11/12/2013  12:39:00      142.453     -101.259      -16.758       49.680       63.893       40.080     2468.081     4082.269     1606.444        1.949        0.408      174.775       47.728        0.075      343.148       19.053      868.922
11/12/2013  12:40:00       75.951     -102.776      -15.491       49.826       64.665       37.848     2482.638     4181.607     1432.466        1.233        0.405      127.795       43.717        0.117      343.267       19.259      868.927
11/12/2013  12:41:00       56.721      -43.035       -2.325       49.147       71.041       48.490     2415.435     5046.864     2351.268        0.744        0.491       71.198       47.395        0.443      343.371       19.435      868.932
11/12/2013  12:42:00       28.482        2.758       59.725       56.837       84.043       62.499     3230.450     7063.180     3906.074        0.929        0.710       28.616       71.160        6.184      343.431       19.538      868.950
11/12/2013  12:43:00       45.672      -66.288       14.253       39.964       53.607       35.914     1597.158     2873.690     1289.802        0.622        0.288       80.499       35.513        0.195      343.362       19.420      868.941
11/12/2013  12:44:00       33.951       26.400       53.594       28.336       23.238       17.728      802.926      539.993      314.296        0.319        0.083       43.007       11.408        0.070      343.428       19.532      868.932
11/12/2013  12:45:00       44.087       28.171       50.245       42.299       38.194       33.742     1789.214     1458.791     1138.547        0.482        0.219       52.318       26.600        0.259      343.434       19.544      868.921
11/12/2013  12:46:00       38.534        0.379       32.979       47.304       67.264       35.598     2237.654     4524.485     1267.239        0.530        0.401       38.536       45.732        1.408      343.401       19.488      868.909
11/12/2013  12:47:00       51.913      -97.328       -7.102       41.467       48.271       28.629     1719.536     2330.043      819.609        0.854        0.243      110.307       22.969        0.043      343.237       19.207      868.898
11/12/2013  12:48:00        5.644      -41.545        2.853       23.523       53.689       27.193      553.351     2882.537      739.448        0.297        0.209       41.927       27.533        0.431      343.413       19.506      868.897
11/12/2013  12:49:00       34.985      -21.269        8.627       33.561       41.619       19.414     1126.361     1732.103      376.913        0.249        0.162       40.943       14.680        0.129      343.365       19.424      868.902
11/12/2013  12:50:00       68.259       40.241       26.240       32.226       28.885       27.131     1038.547      834.317      736.110        0.479        0.130       79.238       11.744        0.022      343.235       19.204      868.907
11/12/2013  12:51:00       80.220       55.188        5.675       32.324       36.180       26.827     1044.821     1309.002      719.695        0.629        0.154       97.370       19.425        0.040      343.174       19.101      868.922
11/12/2013  12:52:00       82.726       62.597       13.379       36.060       25.608       24.274     1300.325      655.745      589.249        0.674        0.127      103.740       18.243        0.031      343.121       19.010      868.934
11/12/2013  12:53:00       67.670       49.858        4.479       40.500       39.187       32.419     1640.234     1535.590     1050.963        0.566        0.211       84.054       23.628        0.079      343.163       19.081      868.939
11/12/2013  12:54:00       87.932       57.842       10.995       56.977       36.152       32.814     3246.375     1306.971     1076.768        0.841        0.282      105.251       19.411        0.034      343.264       19.253      868.932
11/12/2013  12:55:00       40.586       60.625       70.113       55.754       46.991       32.779     3108.534     2208.158     1074.477        0.831        0.320       72.956       25.701        0.124      343.399       19.483      868.929
11/12/2013  12:56:00      128.053       89.214       58.149       51.411       30.792       43.940     2643.044      948.123     1930.718        1.663        0.276      156.067       30.100        0.037      343.095       18.965      868.921
11/12/2013  12:57:00       91.105       68.495       41.103       44.685       38.356       31.311     1996.744     1471.191      980.393        0.956        0.222      113.981       24.342        0.046      343.065       18.915      868.907
11/12/2013  12:58:00      126.784       67.817       19.739       40.996       33.984       31.190     1680.672     1154.902      972.837        1.244        0.190      143.782       20.302        0.020      343.116       19.000      868.892
11/12/2013  12:59:00       76.256       11.897        4.218       54.462       37.597       25.548     2966.117     1413.523      652.680        0.550        0.252       77.178       17.905        0.054      343.220       19.179      868.883
11/12/2013  13:00:00       65.386       30.254       20.764       53.589       34.205       28.492     2871.796     1169.951      811.813        0.524        0.243       72.046       32.268        0.201      343.261       19.247      868.885
11/12/2013  13:01:00       69.112       50.281       41.893       47.098       40.175       31.323     2218.220     1614.008      981.104        0.694        0.241       85.467       27.926        0.107      343.203       19.149      868.870
11/12/2013  13:02:00       72.975       62.793       10.479       35.445       34.493       30.191     1256.328     1189.772      911.504        0.637        0.168       96.272       13.578        0.020      343.135       19.034      868.855
11/12/2013  13:03:00       60.320       17.091       -3.930       32.640       40.342       24.309     1065.400     1627.437      590.904        0.361        0.164       62.694       15.163        0.058      343.175       19.103      868.830
11/12/2013  13:04:00       39.616       58.248       -4.515       24.470       28.145       19.861      598.795      792.114      394.473        0.338        0.089       70.444       13.480        0.037      343.198       19.140      868.815
11/12/2013  13:05:00       54.526       44.163       10.637       23.650       26.770       30.327      559.339      716.608      919.700        0.362        0.110       70.167       21.815        0.097      343.164       19.083      868.802
11/12/2013  13:06:00       33.668       26.766       11.339       25.421       20.650       21.038      646.220      426.420      442.611        0.175        0.076       43.011       12.911        0.090      343.207       19.156      868.779
11/12/2013  13:07:00       52.406       45.411       11.452       36.121       37.223       31.077     1304.718     1385.557      965.780        0.430        0.183       69.344       12.638        0.033      343.257       19.242      868.757
11/12/2013  13:08:00       51.916       44.709        6.591       40.197       34.530       28.136     1615.807     1192.339      791.654        0.417        0.180       68.514       24.811        0.131      343.257       19.242      868.741
11/12/2013  13:09:00       57.465       48.556       13.924       25.376       25.882       27.267      643.956      669.886      743.513        0.396        0.103       75.232       20.069        0.071      343.144       19.047      868.739
11/12/2013  13:10:00       72.965       34.160        7.701       37.441       26.177       20.881     1401.810      685.253      436.004        0.454        0.126       80.565       12.144        0.023      343.141       19.043      868.743
11/12/2013  13:11:00      -16.772       71.890       -4.003       20.522       57.943       21.781      421.143     3357.442      474.405        0.486        0.213       73.820       31.910        0.187      343.210       19.161      868.755
11/12/2013  13:12:00       -8.122       94.662      -10.362       19.057       22.425       10.006      363.163      502.888      100.115        0.505        0.048       95.009        5.735        0.004      343.163       19.082      868.766
11/12/2013  13:13:00       79.835       66.493       -1.810       61.048       46.400       27.981     3726.847     2152.983      782.956        0.873        0.333      103.899       25.536        0.060      343.249       19.228      868.777
11/12/2013  13:14:00      110.363       79.560       14.480       66.295       45.867       34.244     4395.057     2103.780     1172.680        1.319        0.384      136.050       26.100        0.037      343.225       19.187      868.787
11/12/2013  13:15:00       89.398       96.806        6.873       71.601       45.365       43.772     5126.663     2058.002     1916.017        1.325        0.455      131.770       30.299        0.053      343.190       19.127      868.800
11/12/2013  13:16:00       54.619       98.758       -9.522       29.789       55.665       32.589      887.401     3098.612     1062.035        0.894        0.252      112.855       34.084        0.091      343.118       19.006      868.813
11/12/2013  13:17:00       80.433       68.336        9.367       46.122       37.578       39.904     2127.229     1412.123     1592.320        0.818        0.257      105.543       28.831        0.075      343.171       19.095      868.822
11/12/2013  13:18:00       96.695       58.990        4.477       41.446       32.703       26.827     1717.746     1069.510      719.663        0.818        0.175      113.268       18.608        0.027      343.185       19.118      868.825
11/12/2013  13:19:00       50.426       32.266        9.304       60.201       28.528       29.494     3624.118      813.871      869.905        0.449        0.265       59.866       13.939        0.054      343.227       19.191      868.835
11/12/2013  13:20:00      129.718       59.361       11.880       26.540       24.613       23.117      704.396      605.817      534.389        1.117        0.092      142.655       16.506        0.013      343.128       19.023      868.841
11/12/2013  13:21:00       92.091       13.362       14.180       30.302       23.329       23.087      918.239      544.255      533.013        0.543        0.100       93.055       18.921        0.041      343.128       19.021      868.843
11/12/2013  13:22:00       49.683       35.034       11.918       34.400       31.894       23.028     1183.389     1017.238      530.277        0.328        0.137       60.792       14.047        0.053      343.192       19.131      868.841
11/12/2013  13:23:00       45.193       43.647       -0.550       35.033       26.642       18.869     1227.342      709.805      356.052        0.312        0.115       62.829       10.996        0.031      343.167       19.087      868.837
11/12/2013  13:24:00       18.588       16.503        4.529       22.469       10.253       10.342      504.851      105.133      106.957        0.068        0.036       24.856        6.339        0.065      343.219       19.177      868.835
11/12/2013  13:25:00        3.089       44.088       -6.531       13.704       10.492        8.820      187.810      110.087       77.797        0.119        0.019       44.196        6.470        0.021      343.183       19.115      868.834
11/12/2013  13:26:00       19.811       40.863       -8.233       13.016       17.752        8.660      169.404      315.148       75.004        0.134        0.028       45.412        8.122        0.032      343.134       19.032      868.820
11/12/2013  13:27:00      -11.841        4.039        1.765       28.513       10.432       10.186      812.966      108.820      103.745        0.059        0.051       12.511       12.716        1.033      343.219       19.176      868.805
11/12/2013  13:28:00      -73.627       29.371       -7.702       22.433       16.313       10.718      503.239      266.111      114.886        0.361        0.044       79.269        7.552        0.009      343.171       19.096      868.802
11/12/2013  13:29:00      -78.865       38.696       -6.860       22.584       15.525       12.600      510.052      241.026      158.767        0.434        0.045       87.847       11.265        0.016      343.152       19.063      868.796
11/12/2013  13:30:00      -28.369       34.716        0.357       42.201       33.658       20.005     1780.952     1132.849      400.215        0.266        0.166       44.833       18.678        0.174      343.198       19.142      868.767
11/12/2013  13:31:00       33.679       41.019       -7.020       61.616       46.022       23.252     3796.593     2118.033      540.638        0.466        0.323       53.074       27.897        0.276      343.202       19.147      868.689
11/12/2013  13:32:00     -105.004      -84.860       -4.759      109.220       45.458       35.965    11929.036     2066.398     1293.483        1.677        0.764      135.007       50.869        0.142      343.170       19.092      868.735
11/12/2013  13:33:00        6.817       14.834      -22.067      146.433       88.165       50.297    21442.713     7773.093     2529.835        1.624        1.587       16.326       41.968        6.609      343.257       19.239      868.715
11/12/2013  13:34:00      -45.782      -60.357      -18.942      159.039      143.038       59.717    25293.525    20459.851     3566.065        2.770        2.466       75.756       26.698        0.124      343.260       19.244      868.574
11/12/2013  13:35:00     -119.689      -75.841      -16.746      116.751      168.877       66.818    13630.695    28519.325     4464.606        3.348        2.331      141.694       61.166        0.186      343.271       19.261      868.556
11/12/2013  13:36:00      -62.472      290.021      -34.352       65.141       60.023       39.382     4243.407     3602.761     1550.960        4.929        0.470      296.673       36.888        0.015      343.213       19.160      868.603
11/12/2013  13:37:00      -53.591      314.909      -39.616       61.796       70.077       37.649     3818.804     4910.724     1417.484        5.688        0.507      319.437       25.364        0.006      343.289       19.291      868.571
11/12/2013  13:38:00     -124.990      128.228      -27.575       73.459      110.681       36.815     5396.158    12250.326     1355.352        2.591        0.950      179.067       14.856        0.007      343.268       19.260      868.556
11/12/2013  13:39:00     -183.413        9.863      -13.928       71.340       66.561       34.145     5089.382     4430.361     1165.870        2.231        0.534      183.678       35.875        0.038      343.213       19.164      868.563
11/12/2013  13:40:00     -128.505      189.764      -31.707       69.496      129.226       42.137     4829.673    16699.483     1775.565        3.841        1.165      229.181       42.379        0.034      343.258       19.241      868.556
11/12/2013  13:41:00      -61.079      279.384      -41.408       86.396      106.489       43.449     7464.186    11339.915     1887.778        5.209        1.035      285.983       28.468        0.010      343.287       19.289      868.492
11/12/2013  13:42:00      -44.516      138.429      -28.797       83.080       83.624       30.562     6902.221     6992.997      934.061        1.840        0.741      145.410       28.629        0.039      343.310       19.329      868.478
11/12/2013  13:43:00     -125.474       24.740      -14.199       80.315       66.935       34.870     6450.483     4480.338     1215.950        1.435        0.607      127.890       33.527        0.069      343.303       19.318      868.496
11/12/2013  13:44:00     -262.065      -50.447      -28.847       91.969       85.452       38.537     8458.232     7302.041     1485.120        4.465        0.862      266.876       28.743        0.012      343.300       19.310      868.489
11/12/2013  13:45:00     -143.350       -4.946       -8.419       69.755       62.720       31.857     4865.772     3933.826     1014.856        1.523        0.491      143.435       29.003        0.041      343.319       19.346      868.489
11/12/2013  13:46:00     -208.560      -16.642      -16.276       55.134       57.818       35.679     3039.720     3342.867     1272.991        2.585        0.383      209.223       30.150        0.021      343.327       19.358      868.487
11/12/2013  13:47:00     -186.989      -47.762      -20.275       61.151       76.410       36.710     3739.455     5838.449     1347.641        2.429        0.546      192.993       26.169        0.018      343.295       19.305      868.489
11/12/2013  13:48:00     -228.699      -58.070      -10.319      104.172       82.821       42.529    10851.859     6859.326     1808.740        3.765        0.976      235.956       37.614        0.025      343.278       19.272      868.455
11/12/2013  13:49:00     -139.993      -33.930        2.624       84.016       54.941       38.943     7058.673     3018.520     1516.584        1.617        0.580      144.046       36.507        0.064      343.279       19.276      868.450
11/12/2013  13:50:00     -305.624      -42.050      -31.196       88.969       77.204       38.439     7915.416     5960.494     1477.582        5.575        0.768      308.504       42.118        0.019      343.296       19.304      868.428
11/12/2013  13:51:00     -113.955      -93.002       -6.900       64.946       56.397       29.964     4217.985     3180.580      897.867        1.499        0.415      147.089       29.592        0.040      343.310       19.331      868.399
11/12/2013  13:52:00     -190.740      -82.424        2.314       65.448       61.103       39.021     4283.437     3733.559     1522.637        2.636        0.477      207.787       30.569        0.022      343.289       19.294      868.394
11/12/2013  13:53:00     -118.603      -44.647      -11.286      108.645       62.132       38.622    11803.671     3860.447     1491.637        1.667        0.858      126.728       42.003        0.110      343.282       19.280      868.379
11/12/2013  13:54:00     -182.131      -77.694      -15.934       72.835       69.612       40.178     5304.907     4845.767     1614.271        2.561        0.588      198.010       32.910        0.028      343.288       19.292      868.367
11/12/2013  13:55:00     -248.095     -115.982      -11.413       76.768       86.209       46.227     5893.383     7431.980     2136.916        4.530        0.773      273.867       32.129        0.014      343.286       19.286      868.365
11/12/2013  13:56:00     -200.104      -39.113       -8.082       76.926       38.847       33.622     5917.594     1509.106     1130.466        2.510        0.428      203.890       34.747        0.029      343.281       19.278      868.375
11/12/2013  13:57:00     -189.636        2.518      -15.113       59.056       56.711       30.168     3487.569     3216.109      910.090        2.190        0.381      189.652       26.843        0.020      343.270       19.259      868.369
11/12/2013  13:58:00     -172.721      -40.689       -9.127       80.466       64.021       42.757     6474.727     4098.733     1828.142        2.198        0.620      177.449       46.236        0.068      343.249       19.225      868.359
11/12/2013  13:59:00     -158.572      -24.836       -4.495       89.644       64.461       38.235     8036.068     4155.229     1461.918        1.972        0.683      160.506       21.820        0.018      343.250       19.228      868.360
11/12/2013  14:00:00     -127.098      -15.613        9.632       91.137       63.699       44.671     8306.020     4057.507     1995.526        1.542        0.718      128.054       39.755        0.096      343.277       19.272      868.361
11/12/2013  14:01:00     -152.338      -49.125       -1.438       49.679       53.855       27.647     2468.021     2900.318      764.383        1.588        0.307      160.063       29.257        0.033      343.289       19.294      868.367
11/12/2013  14:02:00      -50.675      -15.395        8.695       43.648       35.064       27.601     1905.178     1229.500      761.807        0.339        0.195       52.962       22.417        0.179      343.337       19.378      868.365
11/12/2013  14:03:00      -46.306        6.052        6.534       38.624       30.150       17.241     1491.796      909.005      297.238        0.246        0.135       46.700        9.923        0.045      343.353       19.404      868.363
11/12/2013  14:04:00      -94.908      -38.422        1.876       54.979       34.725       28.338     3022.666     1205.791      803.035        0.776        0.252      102.391       26.736        0.068      343.353       19.403      868.361
11/12/2013  14:05:00     -149.008      -28.290        1.231       56.421       69.455       29.304     3183.316     4824.059      858.708        1.593        0.443      151.670       28.478        0.035      343.365       19.422      868.363
11/12/2013  14:06:00     -104.595      -17.106        0.831       55.449       50.734       28.822     3074.571     2573.957      830.707        0.886        0.324      105.985       30.398        0.082      343.381       19.454      868.361
11/12/2013  14:07:00     -109.552      -21.808        1.213       53.717       45.761       28.235     2885.490     2094.101      797.219        0.913        0.289      111.702       32.420        0.084      343.401       19.488      868.348
11/12/2013  14:08:00      -85.329       30.396      -12.547       44.442       33.052       17.644     1975.049     1092.463      311.307        0.587        0.169       90.582       23.887        0.070      343.410       19.501      868.349
11/12/2013  14:09:00      -57.670        7.420       -9.700       22.471       17.374       15.366      504.925      301.843      236.114        0.226        0.052       58.146       14.581        0.063      343.417       19.511      868.347
11/12/2013  14:10:00      -51.748      -19.355      -11.394       23.682       20.204        8.690      560.845      408.210       75.522        0.211        0.052       55.249        8.525        0.024      343.421       19.518      868.346
11/12/2013  14:11:00       30.506       11.059        7.359       21.837       13.665       13.931      476.861      186.734      194.059        0.098        0.043       32.448       10.238        0.100      343.419       19.515      868.339
11/12/2013  14:12:00       30.608       22.480       -7.917       29.560       14.480       12.153      873.792      209.678      147.693        0.137        0.062       37.977       13.709        0.130      343.396       19.481      868.338
11/12/2013  14:13:00       -0.086       33.572       -7.010       13.235       17.481        9.259      175.171      305.600       85.723        0.087        0.028       33.572        6.223        0.034      343.422       19.523      868.344
11/12/2013  14:14:00       13.481       71.233      -10.762       19.185       24.929       10.261      368.051      621.457      105.281        0.323        0.055       72.498        7.408        0.010      343.449       19.567      868.348
11/12/2013  14:15:00       15.234       83.057      -20.312       21.728       23.459       12.162      472.106      550.342      147.918        0.436        0.059       84.443       10.692        0.016      343.483       19.628      868.357
11/12/2013  14:16:00      -10.588       50.906       -9.166       41.426       38.826       23.038     1716.101     1507.481      530.732        0.327        0.188       51.995       13.119        0.064      343.492       19.646      868.367
11/12/2013  14:17:00        0.727        1.349        2.193       33.636       25.405       16.040     1131.378      645.414      257.289        0.102        0.102        1.532       17.376      128.564      343.541       19.725      868.375
11/12/2013  14:18:00      -27.698       48.876        1.218       18.685       31.652       13.560      349.122     1001.837      183.870        0.235        0.077       56.179       12.587        0.050      343.512       19.674      868.372
11/12/2013  14:19:00       49.295       56.457        6.534       30.462       23.224       15.388      927.929      539.352      236.788        0.368        0.085       74.950       14.762        0.039      343.498       19.651      868.371
11/12/2013  14:20:00      108.856       54.787       13.125       41.352       28.078       25.453     1709.959      788.363      647.854        0.908        0.157      121.865       17.966        0.022      343.497       19.650      868.371
11/12/2013  14:21:00      117.663       79.927       19.514       56.486       51.198       37.587     3190.630     2621.222     1412.809        1.392        0.361      142.243       13.765        0.009      343.435       19.545      868.376
11/12/2013  14:22:00      125.704       82.363       29.143       54.307       36.806       46.687     2949.203     1354.661     2179.662        1.496        0.324      150.283       21.536        0.021      343.317       19.344      868.393
11/12/2013  14:23:00      164.212      119.239       24.066       51.261       47.319       44.171     2627.705     2239.127     1951.049        2.429        0.341      202.937       26.909        0.018      343.129       19.021      868.393
11/12/2013  14:24:00      150.165      106.053       23.316       72.229       58.727       54.893     5217.037     3448.853     3013.189        2.301        0.584      183.839       10.088        0.003      343.059       18.902      868.386
11/12/2013  14:25:00       96.591       60.617       20.349       47.719       38.609       35.518     2277.089     1490.630     1261.528        0.922        0.251      114.036       25.247        0.049      343.070       18.923      868.375
11/12/2013  14:26:00      103.423       65.872       63.267       74.536       84.614       61.643     5555.663     7159.588     3799.879        1.777        0.826      122.619       55.777        0.207      343.101       18.974      868.364
11/12/2013  14:27:00      159.157      126.038      117.840      115.813      107.118       74.340    13412.600    11474.202     5526.460        4.275        1.521      203.018       65.368        0.104      343.051       18.887      868.346
11/12/2013  14:28:00       91.999       98.055      116.380       79.887       65.055       54.612     6381.853     4232.122     2982.523        2.261        0.680      134.457       48.235        0.129      343.063       18.910      868.354
11/12/2013  14:29:00      133.725      106.759       57.686       69.156       50.899       53.922     4782.552     2590.685     2907.556        2.144        0.514      171.114       41.999        0.060      343.012       18.822      868.372
11/12/2013  14:30:00      101.242      111.118      100.753       78.695       70.744       51.655     6192.916     5004.721     2668.264        2.330        0.693      150.324       43.406        0.083      343.001       18.803      868.378
11/12/2013  14:31:00      123.571       78.732        8.908       61.826       43.212       41.901     3822.495     1867.271     1755.674        1.450        0.372      146.521       27.259        0.035      342.949       18.715      868.393
11/12/2013  14:32:00      129.500       81.017       47.283       65.744       56.119       53.406     4322.238     3149.374     2852.180        1.794        0.516      152.755       40.377        0.070      342.945       18.709      868.397
11/12/2013  14:33:00      161.040       71.278       23.990       73.426       70.498       59.706     5391.399     4970.032     3564.864        2.276        0.696      176.110       27.878        0.025      342.892       18.619      868.411
11/12/2013  14:34:00      169.983       66.475       29.115       79.921      105.837       46.369     6387.392    11201.479     2150.113        2.695        0.987      182.519       28.333        0.024      342.902       18.633      868.404
11/12/2013  14:35:00      105.060       56.517       56.942       73.351       51.877       43.849     5380.386     2691.184     1922.775        1.373        0.500      119.297       42.771        0.129      342.930       18.683      868.402
11/12/2013  14:36:00      126.325       67.929       80.323       96.755       62.691       54.833     9361.560     3930.159     3006.636        2.166        0.815      143.430       45.776        0.102      342.890       18.615      868.413
11/12/2013  14:37:00      201.205      124.979       69.368      101.724       86.019       73.704    10347.718     7399.311     5432.206        4.204        1.159      236.861       59.174        0.062      342.854       18.552      868.412
11/12/2013  14:38:00      112.944      106.455       62.738       87.216       68.862       66.750     7606.657     4741.994     4455.569        2.241        0.840      155.206       41.637        0.072      342.883       18.600      868.424
11/12/2013  14:39:00       78.855       81.269       66.725       71.722       57.095       48.782     5144.106     3259.862     2379.708        1.403        0.539      113.237       30.241        0.071      342.884       18.604      868.429
11/12/2013  14:40:00      152.293       86.580       80.372      117.840       76.398       68.294    13886.278     5836.637     4664.005        3.076        1.219      175.183       60.019        0.117      342.869       18.580      868.435
11/12/2013  14:41:00       93.568       82.212       83.707       88.030       72.853       65.545     7749.230     5307.543     4296.085        1.993        0.868      124.554       55.232        0.197      342.862       18.568      868.436
11/12/2013  14:42:00      126.084      135.945       83.242      115.172       68.732       54.364    13264.691     4724.119     2955.438        3.112        1.047      185.413       50.400        0.074      342.841       18.531      868.448
11/12/2013  14:43:00      101.367       81.319       83.176       89.929       82.987       63.612     8087.185     6886.917     4046.524        2.141        0.951      129.954       51.668        0.158      342.791       18.445      868.451
11/12/2013  14:44:00      159.587       83.654       34.663       80.111       70.348       51.775     6417.784     4948.855     2680.616        2.385        0.702      180.183       39.383        0.048      342.790       18.440      868.459
11/12/2013  14:45:00       94.438       79.509       66.266      114.417       69.029       53.679    13091.152     4765.054     2881.408        2.018        1.037      123.451       51.602        0.175      342.796       18.453      868.455
11/12/2013  14:46:00       81.315      104.208       81.651       94.261       64.618       66.746     8885.070     4175.490     4455.057        2.082        0.876      132.179       58.067        0.193      342.799       18.458      868.458
11/12/2013  14:47:00       91.022       23.690       41.321       81.888       51.869       48.336     6705.682     2690.396     2336.338        1.114        0.587       94.055        9.608        0.010      342.804       18.468      868.465
11/12/2013  14:48:00      112.814       81.939       35.973       73.223       48.049       41.417     5361.590     2308.689     1715.407        1.506        0.469      139.430       38.560        0.076      342.800       18.460      868.485
11/12/2013  14:49:00      186.029       78.647       30.310       88.403       69.006       47.670     7815.157     4761.864     2272.398        2.828        0.742      201.971       26.370        0.017      342.798       18.456      868.493
11/12/2013  14:50:00      199.619      127.210       73.218       90.943       74.413       55.679     8270.707     5537.238     3100.103        3.915        0.845      236.707       46.863        0.039      342.769       18.408      868.495
11/12/2013  14:51:00      171.577       95.903       39.893       84.743       50.839       46.920     7181.336     2584.620     2201.482        2.610        0.598      196.561       29.763        0.023      342.832       18.514      868.514
11/12/2013  14:52:00       92.123       89.480       84.234       92.032       55.537       59.129     8469.857     3084.361     3496.224        1.932        0.753      128.426       42.146        0.108      342.827       18.509      868.521
11/12/2013  14:53:00      112.206       77.104       94.875       95.298       70.660       69.295     9081.778     4992.797     4801.858        2.320        0.944      136.144       57.052        0.176      342.768       18.408      868.520
11/12/2013  14:54:00      186.157      103.615       60.981      118.285       97.522       73.847    13991.343     9510.544     5453.317        3.903        1.448      213.051       70.071        0.108      342.718       18.322      868.517
11/12/2013  14:55:00       80.803       75.697       94.491       83.497       71.989       58.299     6971.713     5182.394     3398.829        1.837        0.778      110.721       53.013        0.229      342.754       18.383      868.534
11/12/2013  14:56:00      108.447       80.435      101.305       92.305       78.383       76.757     8520.179     6143.954     5891.706        2.452        1.028      135.021       63.320        0.220      342.775       18.417      868.534
11/12/2013  14:57:00      111.520      118.973      116.397       95.496       88.498       76.801     9119.568     7831.871     5898.343        3.149        1.142      163.069       63.550        0.152      342.724       18.333      868.537
11/12/2013  14:58:00      116.274       73.241       91.856       84.698       76.850       57.484     7173.793     5905.975     3304.356        2.185        0.819      137.419       45.547        0.110      342.761       18.394      868.548
11/12/2013  14:59:00      113.525       78.862       91.787       86.230       77.522       52.733     7435.551     6009.592     2780.818        2.188        0.811      138.228       51.386        0.138      342.758       18.390      868.556
11/12/2013  15:00:00      112.678       35.534       61.279       85.169       56.669       58.176     7253.831     3211.428     3384.445        1.578        0.692      118.148       45.162        0.146      342.755       18.386      868.567
11/12/2013  15:01:00       77.008       65.142       67.393       70.013       62.507       47.162     4901.845     3907.168     2224.299        1.287        0.552      100.865       37.212        0.136      342.780       18.428      868.576
11/12/2013  15:02:00       56.823       29.632       42.691       64.603       46.588       32.466     4173.538     2170.410     1054.066        0.666        0.370       64.085       22.473        0.123      342.782       18.432      868.593
11/12/2013  15:03:00       97.507       39.306       31.834       72.914       43.706       38.202     5316.445     1910.171     1459.366        1.037        0.434      105.132       26.850        0.065      342.789       18.442      868.609
11/12/2013  15:04:00       36.760       40.322       29.279       38.360       38.025       27.201     1471.492     1445.904      739.872        0.375        0.183       54.564       21.565        0.156      342.791       18.445      868.614
11/12/2013  15:05:00       40.472       35.734       25.027       34.501       24.481       26.862     1190.323      599.324      721.571        0.303        0.126       53.990       20.479        0.144      342.801       18.462      868.624
11/12/2013  15:06:00       91.083       55.571       24.275       52.225       44.102       31.900     2727.476     1944.964     1017.580        0.883        0.285      106.697       12.780        0.014      342.731       18.344      868.637
11/12/2013  15:07:00       61.402       44.789       -2.559       56.483       44.349       33.558     3190.288     1966.792     1126.133        0.603        0.314       76.002       27.070        0.127      342.668       18.239      868.650
11/12/2013  15:08:00       85.427       54.192       17.318       48.685       41.169       30.848     2370.193     1694.878      951.621        0.777        0.251      101.166       21.160        0.044      342.672       18.245      868.658
11/12/2013  15:09:00       81.273       40.005        7.800       54.144       33.344       28.004     2931.586     1111.806      784.203        0.655        0.241       90.586       20.042        0.049      342.667       18.238      868.661
11/12/2013  15:10:00       96.266       37.742       19.683       33.392       27.765       23.737     1115.057      770.888      563.466        0.676        0.122      103.401       17.464        0.029      342.666       18.236      868.659
11/12/2013  15:11:00       98.707       42.481        6.639       46.603       36.275       31.695     2171.794     1315.909     1004.544        0.804        0.225      107.461       22.138        0.042      342.660       18.223      868.667
11/12/2013  15:12:00       72.693       36.348       -2.891       38.969       36.804       19.840     1518.620     1354.570      393.621        0.494        0.163       81.274       17.031        0.044      342.653       18.213      868.668
11/12/2013  15:13:00       51.521       51.496        9.549       34.716       27.406       25.060     1205.186      751.105      627.995        0.399        0.129       72.844        7.593        0.011      342.651       18.208      868.664
11/12/2013  15:14:00       94.965       75.461       15.456       39.039       34.088       28.966     1524.029     1162.011      839.046        0.924        0.176      121.296       16.102        0.018      342.652       18.211      868.653
11/12/2013  15:15:00       88.650       55.544       20.188       35.444       25.778       32.452     1256.310      664.515     1053.123        0.716        0.149      104.613       23.939        0.052      342.670       18.240      868.658
11/12/2013  15:16:00      100.923       38.811        9.443       31.112       27.857       28.645      967.967      776.013      820.509        0.717        0.128      108.128       19.039        0.031      342.683       18.265      868.656
11/12/2013  15:17:00       74.285       32.442        1.603       48.714       30.131       27.823     2373.007      907.877      774.122        0.531        0.203       81.060        8.918        0.012      342.663       18.231      868.665
11/12/2013  15:18:00       66.146       34.820       64.657       53.990       44.881       42.369     2914.947     2014.321     1795.113        0.824        0.336       74.751       32.297        0.187      342.686       18.269      868.675
11/12/2013  15:19:00       80.923       18.069       41.737       69.138       59.324       49.809     4780.012     3519.301     2480.965        0.970        0.539       82.916       50.797        0.375      342.682       18.262      868.681
11/12/2013  15:20:00      102.657       25.874       51.084       77.222       62.116       46.865     5963.214     3858.395     2196.370        1.292        0.601      105.867       43.035        0.165      342.621       18.158      868.691
11/12/2013  15:21:00       64.502       70.430       97.928       72.007       67.691       46.668     5184.950     4582.028     2177.871        1.533        0.597       95.503       43.732        0.210      342.615       18.148      868.698
11/12/2013  15:22:00      141.864       66.317       31.589       70.559       60.522       48.129     4978.520     3662.892     2316.425        1.824        0.548      156.599       27.172        0.030      342.587       18.098      868.712
11/12/2013  15:23:00      101.053       46.380       40.884       63.908       49.636       48.810     4084.233     2463.726     2382.369        1.148        0.447      111.188       38.437        0.120      342.616       18.150      868.719
11/12/2013  15:24:00       65.309       75.445       77.695       58.917       44.863       42.019     3471.189     2012.720     1765.594        1.162        0.362       99.786       30.948        0.096      342.616       18.149      868.726
11/12/2013  15:25:00       43.513       50.150       64.795       48.577       43.587       34.383     2359.738     1899.850     1182.171        0.702        0.272       66.396       26.448        0.159      342.625       18.166      868.726
11/12/2013  15:26:00       37.976       42.736       42.671       54.808       31.387       26.209     3003.940      985.132      686.907        0.488        0.234       57.171       21.071        0.136      342.624       18.164      868.733
11/12/2013  15:27:00       25.470      -35.785        8.649       29.423       51.206       24.281      865.741     2622.005      589.545        0.304        0.204       43.924       24.040        0.300      342.652       18.212      868.741
11/12/2013  15:28:00       99.776      -81.570        7.275       55.330       44.137       27.852     3061.371     1948.111      775.744        1.122        0.289      128.875       21.625        0.028      342.574       18.077      868.745
11/12/2013  15:29:00       55.596      -48.944       24.434       57.010       62.832       40.075     3250.142     3947.911     1606.004        0.744        0.440       74.071       46.220        0.389      342.559       18.054      868.739
11/12/2013  15:30:00       37.752      -27.270       32.162       44.855       73.321       48.085     2012.015     5375.941     2312.200        0.645        0.485       46.571       56.131        1.453      342.534       18.012      868.745
11/12/2013  15:31:00       48.130      -45.157       19.550       38.376       61.859       41.747     1472.752     3826.502     1742.807        0.589        0.352       65.997       45.395        0.473      342.533       18.010      868.746
11/12/2013  15:32:00        6.667       -5.497       14.767       16.253       29.091       15.395      264.163      846.310      237.015        0.082        0.067        8.641       14.765        2.920      342.559       18.054      868.750
11/12/2013  15:33:00       -1.519        0.262       34.011       11.765       30.502       18.410      138.413      930.358      338.925        0.128        0.070        1.541       20.031      168.942      342.592       18.109      868.742
11/12/2013  15:34:00       53.332      -97.524       -4.455       38.777       43.538       21.046     1503.672     1895.540      442.927        0.811        0.192      111.154       24.375        0.048      342.567       18.067      868.733
11/12/2013  15:35:00       21.358      -44.745       17.726       30.134       58.933       32.667      908.065     3473.086     1067.154        0.411        0.272       49.581       39.237        0.626      342.609       18.137      868.725
11/12/2013  15:36:00       55.249      -58.046        8.249       39.465       39.873       27.786     1557.489     1589.845      772.080        0.520        0.196       80.136       25.915        0.105      342.525       17.997      868.722
11/12/2013  15:37:00       63.051      -72.547        5.097       36.345       43.658       22.410     1320.993     1905.994      502.201        0.650        0.186       96.117       20.507        0.046      342.516       17.981      868.719
11/12/2013  15:38:00       -2.144      -34.659       21.769       32.207       53.176       30.963     1037.271     2827.645      958.690        0.325        0.241       34.725       28.714        0.684      342.548       18.035      868.716
11/12/2013  15:39:00       -5.392        1.248       24.884       27.271       32.062       21.554      743.700     1027.984      464.569        0.144        0.112        5.535       23.599       18.179      342.465       17.893      868.715
11/12/2013  15:40:00      -19.660       20.593       47.374       16.691       22.668       20.196      278.577      513.829      407.892        0.213        0.060       28.471       16.614        0.340      342.479       17.917      868.706
11/12/2013  15:41:00       -2.070       22.413       44.032       22.394       25.045       21.649      501.498      627.256      468.675        0.202        0.080       22.509       20.037        0.792      342.458       17.882      868.702
11/12/2013  15:42:00      -11.081      -15.235       18.020       19.094       29.991       18.231      364.592      899.447      332.380        0.114        0.080       18.838       15.479        0.675      342.428       17.829      868.695
11/12/2013  15:43:00       -7.248       -2.518       31.256       17.165       24.543       16.497      294.648      602.363      272.148        0.110        0.058        7.673       15.197        3.923      342.470       17.902      868.683
11/12/2013  15:44:00       -9.318       17.473       34.389       16.496       16.667       12.702      272.104      277.775      161.336        0.114        0.036       19.802       10.650        0.289      342.466       17.895      868.674
11/12/2013  15:45:00       19.306      -17.776        9.366       37.206       38.521       19.647     1384.299     1483.853      386.015        0.201        0.163       26.244       22.544        0.738      342.430       17.837      868.667
11/12/2013  15:46:00        2.263       10.737       29.250       18.644       42.128       23.747      347.594     1774.733      563.920        0.183        0.134       10.972       27.674        6.361      342.457       17.881      868.662
11/12/2013  15:47:00       -8.880       37.868       55.590        7.730       21.436       15.899       59.752      459.492      252.792        0.269        0.039       38.896       16.215        0.174      342.491       17.938      868.661
11/12/2013  15:48:00        1.052       36.209       54.575       15.780       27.110       12.475      248.995      734.954      155.623        0.271        0.057       36.225       13.693        0.143      342.485       17.929      868.655
11/12/2013  15:49:00        1.613       36.484       42.193       21.518       21.895       15.663      463.035      479.388      245.340        0.215        0.059       36.520        8.283        0.051      342.459       17.885      868.648
11/12/2013  15:50:00       45.891      -36.321       16.898       34.675       50.614       23.400     1202.370     2561.775      547.582        0.401        0.216       58.525       28.923        0.244      342.434       17.840      868.644
11/12/2013  15:51:00       60.238      -65.357       -8.930       46.181       73.766       33.374     2132.706     5441.403     1113.844        0.833        0.434       88.883       35.629        0.161      342.391       17.765      868.639
11/12/2013  15:52:00       73.157      -72.233      -17.341       22.710       22.975       20.640      515.746      527.867      426.029        0.617        0.073      102.809       10.394        0.010      342.386       17.757      868.648
11/12/2013  15:53:00       37.104      -39.433       -7.095       27.816       28.947       21.713      773.719      837.951      471.450        0.253        0.104       54.145       17.155        0.100      342.414       17.806      868.655
11/12/2013  15:54:00       47.470      -70.583      -14.144       29.380       26.840       16.846      863.160      720.411      283.773        0.465        0.093       85.061        8.418        0.010      342.443       17.857      868.656
11/12/2013  15:55:00       27.193        2.912       10.887       13.041       24.132       14.316      170.056      582.350      204.948        0.091        0.048       27.349       15.191        0.309      342.385       17.756      868.657
11/12/2013  15:56:00       24.151       12.932        8.471       16.008       12.130       10.128      256.268      147.137      102.582        0.066        0.025       27.396        8.030        0.086      342.407       17.796      868.667
11/12/2013  15:57:00       14.435       16.254        5.156        7.945        6.054        6.084       63.127       36.654       37.018        0.032        0.007       21.738        5.409        0.062      342.414       17.808      868.667
11/12/2013  15:58:00       -6.268        1.372        4.467       10.749        6.093        5.875      115.535       37.126       34.517        0.012        0.009        6.416        4.404        0.471      342.437       17.848      868.673
11/12/2013  15:59:00      -61.263        6.456       -9.781       19.859       16.562       12.080      394.370      274.313      145.929        0.235        0.041       61.602        7.725        0.016      342.359       17.714      868.685
11/12/2013  16:00:00       -4.722       36.636       -7.348       44.448       21.491       18.669     1975.655      461.867      348.527        0.210        0.139       36.939       19.193        0.270      342.326       17.658      868.697
11/12/2013  16:01:00       24.018       44.209       -1.061       24.304       29.119       15.973      590.666      847.891      255.127        0.211        0.085       50.312       15.791        0.099      342.284       17.588      868.706
11/12/2013  16:02:00       10.853       42.726       -2.940       19.269       20.264       14.241      371.290      410.614      202.805        0.147        0.049       44.083       10.388        0.056      342.301       17.613      868.703
11/12/2013  16:03:00       13.669       94.499      -12.491       18.690       33.842       16.125      349.300     1145.248      260.000        0.551        0.088       95.482       16.717        0.031      342.284       17.587      868.704
11/12/2013  16:04:00       15.460       70.141       -2.768       23.804       35.363       21.766      566.642     1250.565      473.760        0.373        0.115       71.825       21.950        0.093      342.248       17.521      868.703
11/12/2013  16:05:00       25.392       47.822        0.652       52.011       42.116       31.094     2705.183     1773.750      966.825        0.419        0.272       54.145       32.405        0.358      342.211       17.459      868.707
11/12/2013  16:06:00       30.327       63.525        2.748       35.339       44.176       27.955     1248.879     1951.540      781.476        0.447        0.199       70.393       24.021        0.116      342.207       17.456      868.709
11/12/2013  16:07:00       30.868       34.259       -6.762       22.431       27.231       16.065      503.171      741.528      258.076        0.184        0.075       46.114       14.076        0.093      342.172       17.396      868.712
11/12/2013  16:08:00       52.495       39.408        4.495       20.296       23.761       27.200      411.926      564.607      739.827        0.302        0.086       65.640       17.858        0.074      342.159       17.371      868.714
11/12/2013  16:09:00       30.721       44.951       -4.699       21.461       22.543       15.085      460.577      508.204      227.553        0.209        0.060       54.446       13.281        0.060      342.153       17.361      868.699
11/12/2013  16:10:00       44.075       25.350       -4.311       20.396       18.945       15.229      415.994      358.895      231.919        0.181        0.050       50.845       13.053        0.066      342.131       17.327      868.681
11/12/2013  16:11:00       31.153       40.117        0.422       20.545       32.043       20.346      422.117     1026.775      413.960        0.222        0.093       50.792       14.054        0.077      342.146       17.350      868.670
11/12/2013  16:12:00       43.290       17.419        4.860       24.400       17.540       14.148      595.378      307.657      200.156        0.165        0.055       46.663       13.571        0.085      342.115       17.298      868.662
11/12/2013  16:13:00       17.313       14.586       12.002       31.908       12.838       11.453     1018.089      164.805      131.167        0.099        0.066       22.638       13.838        0.374      342.097       17.267      868.658
11/12/2013  16:14:00       31.235       36.853       -4.984       14.090       27.988       12.512      198.524      783.313      156.560        0.175        0.057       48.309       12.341        0.065      342.088       17.251      868.663
11/12/2013  16:15:00       10.528        4.625        0.531       16.837        8.376        6.751      283.485       70.160       45.579        0.027        0.020       11.499        7.721        0.451      342.085       17.246      868.663
11/12/2013  16:16:00       25.817       44.790       -1.855       14.494       21.566       14.432      210.085      465.089      208.273        0.178        0.044       51.698       10.701        0.043      342.101       17.274      868.677
11/12/2013  16:17:00        9.780       57.456      -13.257       17.775       18.078       12.043      315.934      326.822      145.042        0.218        0.039       58.283       13.091        0.050      342.137       17.337      868.683
11/12/2013  16:18:00       -6.449       78.794       -8.381       18.294       20.792       11.853      334.683      432.296      140.484        0.361        0.045       79.057        6.909        0.008      342.240       17.511      868.690
11/12/2013  16:19:00       -2.537      106.651      -19.531       20.806       31.798       10.365      432.901     1011.089      107.437        0.666        0.078      106.682        9.840        0.009      342.210       17.461      868.699
11/12/2013  16:20:00        1.969       95.855      -18.219       21.558       24.990       11.546      464.730      624.522      133.305        0.537        0.061       95.876        9.007        0.009      342.194       17.433      868.702
11/12/2013  16:21:00        4.264      103.392      -11.904       23.573       26.915       15.520      555.663      724.404      240.885        0.619        0.076      103.480       12.745        0.015      342.170       17.393      868.713
11/12/2013  16:22:00      -10.678       62.754       -0.995       21.850       25.277       18.402      477.428      638.929      338.627        0.275        0.073       63.656       15.924        0.063      342.124       17.315      868.721
11/12/2013  16:23:00       14.903       48.478       -2.951       29.316       30.796       20.483      859.452      948.416      419.548        0.240        0.111       50.717       19.248        0.144      342.095       17.264      868.722
11/12/2013  16:24:00       46.047       34.446        4.949       18.238       18.642       18.448      332.631      347.515      340.316        0.218        0.051       57.505       11.857        0.043      342.053       17.194      868.726
11/12/2013  16:25:00       27.522       27.440       -2.136       23.333       16.881       12.500      544.408      284.961      156.242        0.125        0.049       38.864       10.956        0.079      342.029       17.153      868.728
11/12/2013  16:26:00       58.175       47.048        7.526       34.019       19.113       17.282     1157.262      365.301      298.659        0.374        0.091       74.819       13.347        0.032      342.022       17.143      868.723
11/12/2013  16:27:00       30.958       42.495       -5.447       25.697       22.040       14.499      660.349      485.765      210.219        0.207        0.068       52.575       13.534        0.066      342.006       17.115      868.720
11/12/2013  16:28:00       29.234       67.162       -1.736       22.083       39.497       24.145      487.647     1559.975      582.981        0.400        0.132       73.249       25.449        0.121      341.997       17.100      868.723
11/12/2013  16:29:00       32.358      111.644      -22.732       20.649       24.700       17.077      426.370      610.086      291.634        0.768        0.066      116.238       15.352        0.017      342.003       17.109      868.730
11/12/2013  16:30:00       -9.238       90.063      -16.890       28.928       21.702       12.182      836.842      470.994      148.412        0.497        0.073       90.536        8.261        0.008      342.043       17.176      868.737
11/12/2013  16:31:00       17.980       72.686      -12.025       33.282       40.795       18.385     1107.692     1664.260      337.997        0.443        0.155       74.876       22.361        0.089      342.018       17.134      868.744
11/12/2013  16:32:00       25.509       31.711       -1.323       25.171       18.115       16.511      633.580      328.159      272.620        0.145        0.062       40.698        9.245        0.052      341.940       17.001      868.756
11/12/2013  16:33:00       -8.836       40.360       -9.389       35.018       24.685       11.310     1226.236      609.364      127.911        0.188        0.098       41.316        7.808        0.036      341.959       17.033      868.773
11/12/2013  16:34:00      -21.947        0.632       -1.335       15.821       22.385        8.959      250.289      501.082       80.263        0.066        0.042       21.957        7.481        0.116      341.917       16.964      868.786
11/12/2013  16:35:00      -12.974       40.993       -8.302       26.243       38.526       16.184      688.713     1484.245      261.925        0.218        0.122       42.997       14.502        0.114      341.964       17.042      868.798
11/12/2013  16:36:00      -32.165      114.565      -22.725       29.441       37.646       15.722      866.796     1417.237      247.170        0.860        0.127      118.995        8.764        0.005      341.975       17.061      868.814
11/12/2013  16:37:00      -25.122       93.703      -15.703       26.344       38.635       15.674      694.005     1492.655      245.668        0.604        0.122       97.012       11.485        0.014      341.915       16.961      868.826
11/12/2013  16:38:00      -21.515      102.858      -13.122       25.874       20.925       18.997      669.441      437.871      360.892        0.634        0.073      105.084       13.493        0.016      341.904       16.940      868.843
11/12/2013  16:39:00      -18.240       95.700      -12.099       23.440       19.711       13.633      549.455      388.510      185.855        0.538        0.056       97.423        7.340        0.006      341.893       16.922      868.856
11/12/2013  16:40:00      -18.790      110.269      -18.628       18.890       17.191       11.769      356.830      295.516      138.508        0.682        0.040      111.858        7.637        0.005      341.930       16.985      868.869
11/12/2013  16:41:00      -39.603      117.663      -17.759       23.053       40.490       13.742      531.434     1639.446      188.855        0.904        0.118      124.149       15.962        0.017      341.896       16.928      868.882
11/12/2013  16:42:00       -9.299       75.735      -11.405       22.584       24.548       11.151      510.056      602.612      124.350        0.359        0.062       76.303       12.149        0.025      341.919       16.966      868.890
11/12/2013  16:43:00       58.550       44.304        1.362       31.679       29.686       21.208     1003.582      881.271      449.779        0.386        0.117       73.423       17.599        0.057      341.856       16.860      868.892
11/12/2013  16:44:00       45.401       52.709       -1.629       27.188       29.044       20.144      739.201      843.556      405.766        0.341        0.099       69.566       13.891        0.040      341.830       16.814      868.897
11/12/2013  16:45:00       43.758       67.174       -7.659       26.780       35.904       23.412      717.193     1289.104      548.111        0.452        0.128       80.170       23.925        0.089      341.836       16.827      868.897
11/12/2013  16:46:00       48.073       68.529       -2.722       36.993       46.313       30.590     1368.456     2144.932      935.747        0.573        0.222       83.709       27.871        0.111      341.812       16.786      868.902
11/12/2013  16:47:00       61.204       38.343        9.721       31.694       28.530       19.294     1004.508      813.977      372.270        0.375        0.110       72.223       16.775        0.054      341.764       16.702      868.913
11/12/2013  16:48:00       31.625       21.325       14.687       18.378       12.831       13.371      337.762      164.623      178.776        0.118        0.034       38.143        8.284        0.047      341.705       16.600      868.921
11/12/2013  16:49:00       67.249       46.639        5.312       20.868       21.979       17.706      435.454      483.098      313.520        0.398        0.062       81.839       12.167        0.022      341.744       16.670      868.928
11/12/2013  16:50:00       45.674       36.012        7.444       24.309       19.614       15.970      590.933      384.728      255.031        0.233        0.062       58.164       10.567        0.033      341.700       16.595      868.933
11/12/2013  16:51:00       52.322       49.191        4.645       29.529       20.534       19.533      871.947      421.664      381.541        0.343        0.084       71.815       11.086        0.024      341.724       16.635      868.952
11/12/2013  16:52:00       48.601       38.867        3.862       28.863       23.695       18.916      833.093      561.468      357.821        0.282        0.088       62.231        8.926        0.021      341.737       16.656      868.962
11/12/2013  16:53:00       35.337       40.766       -1.664       26.749       23.103       13.262      715.524      533.735      175.868        0.217        0.071       53.950       12.570        0.054      341.703       16.601      868.962
11/12/2013  16:54:00       24.186       77.798      -10.969       17.203       27.590       18.144      295.951      761.223      329.202        0.407        0.069       81.470       17.142        0.044      341.720       16.629      868.970
11/12/2013  16:55:00       -5.182       93.535       -9.364       18.575       34.273       19.711      345.015     1174.646      388.529        0.539        0.095       93.678       19.068        0.041      341.755       16.688      868.972
11/12/2013  16:56:00        5.352       80.930      -13.867       25.439       27.177       13.147      647.141      738.597      172.842        0.416        0.078       81.107       11.548        0.020      341.776       16.723      868.985
11/12/2013  16:57:00       21.305       74.130       -4.987       29.641       33.886       22.722      878.569     1148.273      516.291        0.426        0.127       77.131       22.565        0.086      341.681       16.564      868.993
11/12/2013  16:58:00        4.229      116.003      -16.555       22.160       30.343       16.588      491.058      920.720      275.150        0.772        0.084      116.080       17.281        0.022      341.712       16.615      868.986
11/12/2013  16:59:00        8.694       74.915      -10.267       16.418       43.037       16.012      269.542     1852.200      256.382        0.409        0.119       75.418       20.546        0.074      341.627       16.471      868.985
11/12/2013  17:00:00       17.740       66.640      -12.258       28.217       38.363       19.412      796.181     1471.716      376.836        0.377        0.132       68.961       18.946        0.075      341.633       16.482      868.995
11/12/2013  17:01:00        2.098      142.529      -22.404       16.961       19.352        9.929      287.672      374.503       98.592        1.079        0.038      142.544        6.447        0.002      341.671       16.550      868.991
11/12/2013  17:02:00       22.924       97.716      -18.578       17.839       38.887       13.496      318.215     1512.203      182.131        0.622        0.101      100.369       13.858        0.019      341.630       16.477      868.987
11/12/2013  17:03:00       12.308       87.781      -11.157       22.515       35.611       16.141      506.909     1268.166      260.520        0.501        0.102       88.639       13.162        0.022      341.582       16.394      868.995
11/12/2013  17:04:00       37.707       60.968        1.354       30.291       43.051       27.570      917.524     1853.362      760.099        0.434        0.177       71.686       28.959        0.163      341.558       16.352      869.002
11/12/2013  17:05:00       -4.666       76.957       -7.950       23.786       43.392       22.515      565.793     1882.883      506.934        0.448        0.148       77.099       25.486        0.109      341.578       16.387      868.992
11/12/2013  17:06:00       -6.853      139.035      -21.948       21.551       28.939       11.840      464.429      837.444      140.193        1.065        0.072      139.204        9.479        0.005      341.597       16.417      868.983
11/12/2013  17:07:00       -4.121      121.839      -18.605       21.501       29.822       14.353      462.302      889.328      206.003        0.838        0.078      121.909       14.046        0.013      341.615       16.449      869.002
11/12/2013  17:08:00       -0.120       96.798      -17.085       15.331       22.142        9.416      235.032      490.255       88.662        0.524        0.041       96.798        7.010        0.005      341.615       16.451      869.012
11/12/2013  17:09:00      -13.768       74.804       -9.422       23.922       30.858       13.412      572.239      952.227      179.888        0.379        0.085       76.060       10.263        0.018      341.656       16.520      869.019
11/12/2013  17:10:00      -19.918       51.377       -1.569       22.042       17.488       11.254      485.862      305.847      126.646        0.198        0.046       55.103        6.652        0.015      341.611       16.445      869.042
11/12/2013  17:11:00      -31.693       44.109       -9.239       21.763       25.185       11.768      473.628      634.284      138.489        0.214        0.062       54.314       13.206        0.059      341.627       16.472      869.056
11/12/2013  17:12:00      -40.178       52.477      -10.706       21.758       19.152       13.353      473.419      366.800      178.309        0.275        0.051       66.092       11.099        0.028      341.564       16.363      869.064
11/12/2013  17:13:00      -37.156       59.941      -13.696       27.825       28.791       12.111      774.239      828.914      146.688        0.346        0.087       70.523       12.126        0.030      341.605       16.433      869.076
11/12/2013  17:14:00      -24.795       59.603      -12.103       21.383       25.944       13.331      457.220      673.067      177.724        0.281        0.065       64.555        7.544        0.014      341.660       16.527      869.095
11/12/2013  17:15:00      -22.671       54.393       -1.769       22.187       24.389       14.864      492.255      594.845      220.939        0.239        0.065       58.929       12.808        0.047      341.631       16.477      869.099
11/12/2013  17:16:00      -12.376       69.450       -3.995       15.912       37.111       17.605      253.183     1377.197      309.921        0.347        0.097       70.544       20.717        0.086      341.660       16.528      869.107
11/12/2013  17:17:00      -38.616       62.426       -8.818       26.385       19.338       13.387      696.155      373.976      179.204        0.336        0.062       73.404       10.231        0.019      341.649       16.508      869.125
11/12/2013  17:18:00      -79.827       56.599      -18.117       22.093       16.715       13.933      488.121      279.386      194.120        0.543        0.048       97.856       12.594        0.017      341.607       16.434      869.134
11/12/2013  17:19:00      -74.390       53.778      -16.119       17.491       25.499       13.192      305.946      650.183      174.031        0.491        0.057       91.793       13.880        0.023      341.582       16.396      869.147
11/12/2013  17:20:00      -76.006       41.862      -12.673       26.089       24.780       15.871      680.645      614.024      251.891        0.462        0.077       86.772       12.542        0.021      341.604       16.432      869.160
11/12/2013  17:21:00      -85.835       50.897      -18.109       21.474       20.158       16.256      461.120      406.330      264.241        0.571        0.057       99.790       14.221        0.020      341.607       16.438      869.181
11/12/2013  17:22:00     -103.061       27.623      -12.631       24.826       14.874       12.507      616.306      221.242      156.428        0.627        0.050      106.699       10.529        0.010      341.572       16.379      869.192
11/12/2013  17:23:00      -96.840       22.854      -14.695       34.293       28.677       16.264     1175.989      822.343      264.522        0.619        0.113       99.500       10.632        0.011      341.555       16.349      869.200
11/12/2013  17:24:00     -138.382       41.969      -14.773       27.731       23.642       14.511      768.993      558.968      210.556        1.133        0.077      144.606       12.242        0.007      341.492       16.241      869.213
11/12/2013  17:25:00     -132.505       29.062      -13.093       25.813       24.468       15.343      666.296      598.664      235.413        1.004        0.075      135.654       14.177        0.011      341.456       16.181      869.232
11/12/2013  17:26:00     -106.735       17.230       -9.080       41.899       28.601       17.371     1755.536      818.013      301.761        0.732        0.144      108.116       13.516        0.016      341.376       16.046      869.244
11/12/2013  17:27:00      -91.289       20.189       -6.027       31.820       26.852       19.130     1012.517      721.015      365.974        0.544        0.105       93.495       18.270        0.038      341.341       15.986      869.254
11/12/2013  17:28:00     -102.842        6.288      -12.080       27.004       25.994       14.534      729.220      675.701      211.243        0.619        0.081      103.034        9.191        0.008      341.342       15.990      869.276
11/12/2013  17:29:00      -89.428       12.667       -9.173       48.373       26.823       16.473     2339.956      719.460      271.363        0.579        0.167       90.321       17.859        0.039      341.338       15.980      869.297
11/12/2013  17:30:00      -65.444       -3.835       -4.196       15.828       19.028       13.398      250.525      362.052      179.507        0.255        0.040       65.557        8.060        0.015      341.314       15.940      869.305
11/12/2013  17:31:00      -62.327       20.900       -5.786       21.389       14.569       14.899      457.507      212.249      221.968        0.262        0.045       65.738        8.700        0.018      341.440       16.154      869.323
11/12/2013  17:32:00      -70.605       19.829      -17.658       21.179       21.731       17.635      448.560      472.255      310.990        0.346        0.062       73.336       15.377        0.044      341.470       16.203      869.348
11/12/2013  17:33:00      -72.912        7.767      -11.776       21.169       27.665       15.880      448.128      765.338      252.185        0.349        0.073       73.325       13.223        0.033      341.353       16.007      869.364
11/12/2013  17:34:00      -86.959       26.835      -12.780       27.265       17.594       15.241      743.375      309.563      232.278        0.487        0.064       91.006       13.098        0.021      341.445       16.161      869.380
11/12/2013  17:35:00      -74.480      -12.278      -11.361       26.938       20.664       12.826      725.642      427.003      164.508        0.357        0.066       75.485       12.639        0.028      341.304       15.924      869.394
11/12/2013  17:36:00      -60.789        6.846       -8.589       23.207       24.337       15.902      538.553      592.301      252.863        0.260        0.069       61.174       12.980        0.045      341.285       15.892      869.414
11/12/2013  17:37:00      -72.057       20.481      -10.657       22.061       20.047       12.130      486.694      401.865      147.127        0.338        0.052       74.911        7.571        0.010      341.307       15.928      869.427
11/12/2013  17:38:00      -69.840       27.569      -12.167       16.415       24.845       16.418      269.445      617.262      269.547        0.347        0.058       75.085       10.739        0.020      341.343       15.989      869.424
11/12/2013  17:39:00      -71.297       47.937      -18.590       29.170       27.030       13.128      850.892      730.616      172.355        0.474        0.088       85.914        9.724        0.013      341.329       15.968      869.420
11/12/2013  17:40:00      -55.792        1.534       -0.923       35.767       25.344       14.078     1279.291      642.341      198.182        0.262        0.106       55.813       13.440        0.058      341.316       15.945      869.418
11/12/2013  17:41:00      -61.540       33.609       -8.477       30.095       22.972       19.322      905.701      527.732      373.356        0.340        0.090       70.119       11.303        0.026      341.308       15.929      869.423
11/12/2013  17:42:00      -51.645       42.729      -12.866       14.679       21.603       11.016      215.465      466.674      121.352        0.273        0.040       67.030       12.303        0.034      341.366       16.029      869.417
11/12/2013  17:43:00       17.093       48.771        3.939       52.390       26.853       18.080     2744.709      721.086      326.884        0.324        0.190       51.680       20.865        0.163      341.363       16.023      869.423
11/12/2013  17:44:00       34.327       50.725       -5.500       26.993       26.179       21.202      728.631      685.359      449.506        0.282        0.093       61.249        9.862        0.026      341.339       15.982      869.427
11/12/2013  17:45:00      -12.602       50.944        0.097       27.076       26.801       18.966      733.103      718.284      359.715        0.228        0.091       52.480       14.467        0.076      341.343       15.989      869.437
11/12/2013  17:46:00       36.370      113.811      -20.204       37.643       51.649       27.037     1416.999     2667.620      730.993        0.975        0.241      119.481       30.296        0.064      341.357       16.015      869.449
11/12/2013  17:47:00       57.402       67.217        6.061       38.547       40.449       26.132     1485.880     1636.092      682.889        0.583        0.190       88.392       21.905        0.061      341.319       15.949      869.440
11/12/2013  17:48:00       79.085       56.172        9.906       36.255       22.197       21.668     1314.395      492.690      469.484        0.589        0.114       97.003       12.312        0.016      341.275       15.875      869.431
11/12/2013  17:49:00      113.947      102.832        8.974       66.455       44.435       41.544     4416.252     1974.478     1725.902        1.588        0.406      153.487       29.401        0.037      341.353       16.005      869.424
11/12/2013  17:50:00       85.633       84.374       11.523       51.605       40.143       38.108     2663.062     1611.422     1452.215        1.015        0.286      120.216       29.681        0.061      341.321       15.953      869.425
11/12/2013  17:51:00       99.321       62.020       16.698       48.255       31.171       33.037     2328.528      971.650     1091.424        0.919        0.220      117.094       18.242        0.024      341.281       15.885      869.427
11/12/2013  17:52:00       81.633       61.530       10.999       37.270       30.977       32.400     1389.037      959.557     1049.758        0.698        0.170      102.224       22.446        0.048      341.283       15.888      869.434
11/12/2013  17:53:00       71.586       48.218       15.109       42.344       35.149       35.813     1793.042     1235.430     1282.578        0.599        0.216       86.311       24.963        0.084      341.286       15.894      869.443
11/12/2013  17:54:00       57.464       65.124       -2.205       54.375       43.429       36.247     2956.667     1886.063     1313.818        0.685        0.308       86.852       30.601        0.124      341.280       15.884      869.445
11/12/2013  17:55:00       46.343      100.899        0.174       52.465       53.162       35.218     2752.538     2826.180     1240.334        0.957        0.341      111.032       37.729        0.115      341.314       15.941      869.463
11/12/2013  17:56:00       21.743      107.494      -11.090       29.988       48.799       26.669      899.261     2381.346      711.258        0.807        0.200      109.671       26.934        0.060      341.286       15.894      869.486
11/12/2013  17:57:00      -21.031      118.617      -15.661       15.682       28.383       12.945      245.939      805.607      167.575        0.799        0.061      120.467       12.885        0.011      341.382       16.056      869.508
11/12/2013  17:58:00      -35.882      126.843      -22.506       27.234       38.554       21.202      741.673     1486.391      449.533        1.028        0.134      131.820       21.511        0.027      341.395       16.078      869.524
11/12/2013  17:59:00      -51.153       97.178      -19.667       30.132       43.841       21.200      907.934     1921.996      449.450        0.786        0.164      109.819       19.903        0.033      341.378       16.047      869.540
11/12/2013  18:00:00      -65.523       70.513      -13.064       29.101       37.193       24.194      846.841     1383.328      585.374        0.613        0.141       96.257       22.226        0.053      341.283       15.887      869.554
11/12/2013  18:01:00      -56.775       70.402      -10.179       25.633       22.954       13.742      657.055      526.876      188.842        0.483        0.069       90.443       11.079        0.015      341.293       15.905      869.565
11/12/2013  18:02:00      -42.518       46.736       -8.986       41.223       32.010       20.964     1699.306     1024.659      439.473        0.362        0.158       63.183       16.805        0.071      341.281       15.886      869.581
11/12/2013  18:03:00     -105.432       37.849      -13.408       21.398       21.875       15.561      457.892      478.530      242.137        0.695        0.059      112.020       10.768        0.009      341.281       15.885      869.595
11/12/2013  18:04:00     -154.038       31.499      -21.181       35.758       31.935       27.105     1278.600     1019.869      734.682        1.410        0.152      157.226       14.547        0.009      341.209       15.763      869.606
11/12/2013  18:05:00     -121.796      116.570      -33.976       53.428       44.909       28.364     2854.573     2016.774      804.511        1.763        0.284      168.591       27.007        0.026      341.153       15.667      869.604
11/12/2013  18:06:00     -129.651      121.319      -29.189       46.482       50.615       23.033     2160.609     2561.907      530.517        1.882        0.263      177.560       21.526        0.015      341.123       15.616      869.608
11/12/2013  18:07:00      -84.803      139.488      -24.471       64.995       70.669       33.284     4224.296     4994.118     1107.792        1.878        0.516      163.243       30.683        0.035      341.067       15.522      869.619
11/12/2013  18:08:00      -94.918      125.754      -18.478       43.767       59.743       26.917     1915.508     3569.234      724.509        1.569        0.310      157.554       21.548        0.019      341.058       15.508      869.634
11/12/2013  18:09:00     -118.766       95.725      -28.424       39.944       49.381       30.400     1595.514     2438.470      924.179        1.452        0.248      152.541       10.656        0.005      341.099       15.578      869.647
11/12/2013  18:10:00      -93.132      121.458      -16.238       41.401       54.630       29.675     1714.024     2984.472      880.582        1.463        0.279      153.055       24.463        0.026      341.117       15.608      869.665
11/12/2013  18:11:00      -88.250       90.743      -18.871       38.478       38.372       24.351     1480.545     1472.386      592.968        0.996        0.177      126.579       23.317        0.034      341.117       15.609      869.674
11/12/2013  18:12:00      -87.321       65.717      -20.670       35.313       30.040       18.249     1246.999      902.395      333.034        0.743        0.124      109.287       20.659        0.036      341.095       15.571      869.680
11/12/2013  18:13:00      -83.612       75.701      -24.149       23.638       34.154       19.056      558.749     1166.524      363.113        0.770        0.104      112.790       16.232        0.021      341.148       15.661      869.684
11/12/2013  18:14:00      -54.886       32.886      -10.957       22.765       31.964       15.318      518.254     1021.714      234.644        0.299        0.089       63.984       12.432        0.038      341.095       15.570      869.699
11/12/2013  18:15:00      -70.193       20.280      -17.521       22.508       24.390       14.846      506.629      594.865      220.397        0.348        0.066       73.064       15.059        0.042      341.102       15.581      869.708
11/12/2013  18:16:00      -82.002       24.379       -1.394       32.510       33.050       19.821     1056.897     1092.274      392.882        0.493        0.127       85.550       18.751        0.048      341.061       15.514      869.709
11/12/2013  18:17:00     -118.480       77.925      -22.900       38.729       42.920       27.020     1499.945     1842.163      730.073        1.235        0.204      141.809       25.543        0.032      341.021       15.445      869.711
11/12/2013  18:18:00     -104.382      144.454      -26.480       42.829       34.369       27.393     1834.314     1181.224      750.388        1.811        0.188      178.220       21.938        0.015      341.016       15.435      869.708
11/12/2013  18:19:00     -103.524      109.662      -24.899       37.062       38.071       26.720     1373.615     1449.377      713.942        1.345        0.177      150.807       21.919        0.021      341.028       15.457      869.710
11/12/2013  18:20:00     -108.867       99.638      -15.221       38.619       49.931       27.959     1491.411     2493.133      781.696        1.339        0.238      147.580       21.770        0.022      341.024       15.451      869.715
11/12/2013  18:21:00      -98.639      126.062      -23.854       41.701       43.927       33.462     1738.980     1929.608     1119.711        1.549        0.239      160.067       27.541        0.030      341.044       15.484      869.715
11/12/2013  18:22:00     -107.865      140.612      -31.674       36.166       42.144       23.715     1307.994     1776.111      562.391        1.803        0.182      177.220       15.740        0.008      341.080       15.544      869.717
11/12/2013  18:23:00      -78.158       61.626      -13.939       45.478       50.967       22.859     2068.283     2597.598      522.549        0.764        0.259       99.531       28.810        0.084      341.061       15.515      869.718
11/12/2013  18:24:00     -108.235      122.160      -24.646       34.049       40.995       27.444     1159.316     1680.553      753.166        1.542        0.180      163.211       22.401        0.019      341.093       15.565      869.728
11/12/2013  18:25:00      -91.950       92.045      -23.980       42.089       42.053       23.942     1771.463     1768.466      573.211        1.081        0.206      130.104       18.652        0.021      341.073       15.533      869.729
11/12/2013  18:26:00      -80.612       86.435      -16.361       35.715       43.171       23.275     1275.554     1863.728      541.723        0.896        0.184      118.192       22.880        0.037      341.022       15.446      869.726
11/12/2013  18:27:00      -94.044       93.587      -22.952       37.192       39.881       23.351     1383.276     1590.496      545.266        1.082        0.176      132.676       22.126        0.028      341.009       15.424      869.727
11/12/2013  18:28:00      -75.618       63.833      -17.409       32.440       29.535       19.098     1052.323      872.333      364.751        0.619        0.114       98.959       20.960        0.045      341.009       15.425      869.730
11/12/2013  18:29:00      -82.744       84.296      -18.353       43.391       37.989       23.422     1882.810     1443.177      548.576        0.908        0.194      118.120       28.507        0.058      340.999       15.406      869.733
11/12/2013  18:30:00      -83.681       85.291      -18.775       45.744       40.695       27.824     2092.480     1656.065      774.195        0.958        0.226      119.487       28.000        0.055      340.989       15.390      869.732
11/12/2013  18:31:00      -66.801       63.470       -9.295       39.172       38.754       20.322     1534.482     1501.867      413.000        0.601        0.172       92.145       22.118        0.058      340.928       15.287      869.722
11/12/2013  18:32:00      -88.136      100.828      -21.451       40.108       48.033       28.809     1608.619     2307.155      829.979        1.157        0.237      133.919       29.763        0.049      340.896       15.231      869.708
11/12/2013  18:33:00      -80.120      149.585      -25.138       26.873       47.939       26.223      722.142     2298.187      687.629        1.657        0.185      169.691       23.843        0.020      340.953       15.329      869.701
11/12/2013  18:34:00      -57.753       34.824       -3.776       29.813       31.192       22.481      888.837      972.930      505.375        0.346        0.118       67.440       21.742        0.104      340.874       15.195      869.697
11/12/2013  18:35:00      -72.685       64.152       -9.834       21.908       48.222       18.696      479.964     2325.364      349.555        0.632        0.158       96.946       19.586        0.041      340.850       15.156      869.696
11/12/2013  18:36:00      -76.653       52.179      -13.147       21.620       26.487       19.161      467.417      701.572      367.140        0.515        0.077       92.727       12.624        0.019      340.870       15.188      869.707
11/12/2013  18:37:00     -102.000       34.980      -19.448       27.193       36.106       18.036      739.458     1303.628      325.286        0.719        0.118      107.831       14.268        0.018      340.876       15.199      869.716
11/12/2013  18:38:00     -105.987       48.898      -20.806       31.517       29.280       24.306      993.302      857.318      590.778        0.825        0.122      116.723       18.516        0.025      340.884       15.213      869.738
11/12/2013  18:39:00     -102.531       30.143      -19.894       28.248       37.495       18.635      797.963     1405.875      347.272        0.718        0.128      106.870       12.996        0.015      340.861       15.172      869.754
11/12/2013  18:40:00     -123.939       18.954      -15.479       27.882       23.886       14.053      777.391      570.537      197.488        0.875        0.077      125.380        4.739        0.001      340.812       15.092      869.758
11/12/2013  18:41:00      -76.731      -14.414       -9.252       24.863       37.347       15.424      618.158     1394.799      237.904        0.422        0.113       78.073       10.304        0.017      340.803       15.076      869.767
11/12/2013  18:42:00     -108.924      -33.469      -12.934       28.335       33.419       17.095      802.856     1116.837      292.240        0.768        0.111      113.951       15.466        0.018      340.784       15.044      869.778
11/12/2013  18:43:00      -94.774      -36.393      -18.493       21.805       13.768        9.959      475.447      189.560       99.180        0.571        0.038      101.521        2.255        0.000      340.769       15.021      869.781
11/12/2013  18:44:00      -72.952      -33.772       -9.694       14.671       17.190       12.924      215.241      295.495      167.028        0.362        0.034       80.390        6.704        0.007      340.763       15.008      869.799
11/12/2013  18:45:00      -70.656      -10.733       -2.440       30.969       29.176       20.490      959.084      851.226      419.822        0.367        0.112       71.466       18.803        0.069      340.749       14.984      869.808
11/12/2013  18:46:00      -90.563        0.799      -12.569       18.810       24.586       16.893      353.814      604.458      285.378        0.480        0.062       90.567       12.347        0.019      340.815       15.095      869.814
11/12/2013  18:47:00      -64.513      -20.282      -12.944       21.381       13.778        9.166      457.144      189.821       84.014        0.274        0.037       67.626        8.076        0.014      340.798       15.066      869.819
11/12/2013  18:48:00      -56.793      -15.289       -7.906       15.652       20.148        9.405      244.988      405.948       88.460        0.213        0.037       58.815        6.187        0.011      340.786       15.048      869.829
11/12/2013  18:49:00      -57.068      -18.521       -6.536       22.915       18.183       10.745      525.095      330.626      115.454        0.231        0.049       59.999        8.634        0.021      340.805       15.077      869.836
11/12/2013  18:50:00      -88.379      -14.904       -8.601       23.426       17.627       17.501      548.796      310.715      306.293        0.464        0.058       89.627       13.453        0.023      340.832       15.125      869.834
11/12/2013  18:51:00      -64.631      -33.331       -6.202       26.786       19.447       15.040      717.493      378.174      226.216        0.332        0.066       72.720        6.347        0.008      340.865       15.181      869.828
11/12/2013  18:52:00      -54.711        6.965       -8.713       31.238       32.876       20.157      975.830     1080.847      406.323        0.279        0.123       55.153       19.731        0.128      340.843       15.143      869.815
11/12/2013  18:53:00      -39.605       10.228       -5.177       19.384       16.267        8.242      375.752      264.602       67.935        0.120        0.035       40.904        4.607        0.013      340.810       15.087      869.809
11/12/2013  18:54:00      -33.956        7.257       -6.443        8.848        9.531        7.658       78.287       90.831       58.647        0.074        0.011       34.723        6.335        0.033      340.852       15.160      869.804
11/12/2013  18:55:00      -12.833        1.905       -5.732        9.556        7.094        6.852       91.325       50.332       46.952        0.019        0.009       12.973        5.033        0.151      340.854       15.161      869.799
11/12/2013  18:56:00       11.885       23.348       -3.462       12.040       15.213        6.200      144.951      231.423       38.440        0.056        0.021       26.198        7.301        0.078      340.853       15.160      869.808
11/12/2013  18:57:00       29.190       23.718       -6.745       10.734        9.167       11.321      115.227       84.025      128.158        0.089        0.016       37.611        4.817        0.016      340.713       14.926      869.812
11/12/2013  18:58:00       58.051       19.678       12.741       19.775       15.099       14.646      391.048      227.977      214.507        0.238        0.042       61.296        9.746        0.025      340.639       14.799      869.821
11/12/2013  18:59:00       98.302       36.580        5.986       25.156       23.481       19.790      632.837      551.378      391.654        0.631        0.079      104.887       12.324        0.014      340.583       14.703      869.830
11/12/2013  19:00:00       93.322       50.813        1.299       24.787       22.773       22.179      614.409      518.609      491.918        0.646        0.081      106.259       15.400        0.021      340.523       14.602      869.851
11/12/2013  19:01:00       35.933       58.352       -8.181       35.019       35.312       23.823     1226.342     1246.910      567.550        0.390        0.152       68.529       20.133        0.086      340.554       14.656      869.855
11/12/2013  19:02:00      -12.525      130.514      -21.936       33.997       35.578       17.581     1155.806     1265.783      309.080        1.020        0.137      131.114       18.456        0.020      340.725       14.945      869.854
11/12/2013  19:03:00      -41.818      123.914      -20.109       25.080       33.788       21.428      629.009     1141.597      459.140        0.987        0.111      130.780       12.807        0.010      340.857       15.167      869.848
11/12/2013  19:04:00      -55.451      190.618      -24.761       47.294       45.515       26.456     2236.759     2071.632      699.940        2.251        0.250      198.520       21.526        0.012      341.063       15.513      869.843
11/12/2013  19:05:00       -2.468      128.108      -15.194       38.376       62.582       27.772     1472.702     3916.451      771.302        1.140        0.308      128.132       30.211        0.056      341.004       15.416      869.845
11/12/2013  19:06:00       29.780       59.982       -4.940       26.456       33.855       24.272      699.894     1146.180      589.135        0.347        0.122       66.968       17.442        0.068      340.730       14.952      869.846
11/12/2013  19:07:00       43.579       54.258       -7.102       28.275       26.620       22.507      799.495      708.617      506.556        0.345        0.101       69.592       16.927        0.059      340.755       14.994      869.830
11/12/2013  19:08:00       43.025       47.181       -7.690       34.858       22.359       20.853     1215.051      499.912      434.832        0.314        0.107       63.852       15.229        0.057      340.744       14.974      869.824
11/12/2013  19:09:00       56.573       28.988        4.324       20.663       13.469       12.281      426.970      181.420      150.812        0.241        0.038       63.568        6.312        0.010      340.689       14.883      869.829
11/12/2013  19:10:00       35.635       13.207        4.717       13.734        7.990        7.252      188.614       63.844       52.587        0.089        0.015       38.004        3.552        0.009      340.584       14.705      869.837
11/12/2013  19:11:00       31.034       15.776        6.448        8.585        7.842        8.257       73.710       61.495       68.185        0.073        0.010       34.814        6.592        0.036      340.587       14.710      869.858
11/12/2013  19:12:00       28.047       20.309        1.509       11.568        7.954        9.132      133.824       63.269       83.399        0.074        0.014       34.628        7.024        0.041      340.616       14.758      869.880
11/12/2013  19:13:00       29.138       23.900       -0.248       15.006       14.119        9.818      225.185      199.342       96.394        0.097        0.026       37.686        7.140        0.036      340.661       14.836      869.903
11/12/2013  19:14:00       24.256       25.007       -3.209       14.241       14.565       11.033      202.794      212.154      121.724        0.088        0.027       34.838       10.379        0.089      340.694       14.892      869.908
11/12/2013  19:15:00       20.180       53.311       -8.385       11.546       19.698        8.792      133.322      387.993       77.301        0.196        0.030       57.002        7.133        0.016      340.742       14.973      869.917
11/12/2013  19:16:00       12.943       54.348       -9.669       12.425       13.658        6.813      154.382      186.534       46.412        0.180        0.019       55.868        5.243        0.009      340.854       15.160      869.918
11/12/2013  19:17:00        2.277       46.611       -4.931       13.204       24.893       10.244      174.352      619.656      104.930        0.155        0.045       46.666       11.487        0.061      340.964       15.348      869.909
11/12/2013  19:18:00       -7.772       27.742       -2.361       20.053       22.948        9.429      402.111      526.602       88.906        0.093        0.051       28.810        6.829        0.056      340.845       15.147      869.907
11/12/2013  19:19:00       10.606       77.359      -10.994       18.379       14.773        9.122      337.782      218.250       83.204        0.343        0.032       78.082        7.000        0.008      340.902       15.242      869.908
11/12/2013  19:20:00       18.431       60.513      -11.002       14.648       18.823       10.940      214.577      354.300      119.682        0.241        0.034       63.258        7.052        0.012      340.771       15.021      869.910
11/12/2013  19:21:00       20.719       60.589      -11.570        8.513       10.612        5.486       72.470      112.625       30.101        0.222        0.011       64.034        4.874        0.006      340.719       14.934      869.914
11/12/2013  19:22:00       17.214       45.549       -8.858       12.661       21.058       10.414      160.308      443.429      108.453        0.158        0.036       48.694       11.723        0.058      340.826       15.117      869.912
11/12/2013  19:23:00        3.238       26.831       -5.642       10.474       17.588        7.246      109.699      309.334       52.509        0.062        0.024       27.025        5.936        0.048      340.760       15.001      869.910
11/12/2013  19:24:00        6.558       71.886      -13.608       10.466       13.887        5.733      109.543      192.846       32.865        0.287        0.017       72.185        2.619        0.001      340.824       15.111      869.918
11/12/2013  19:25:00        0.807       94.705      -14.506        7.363       17.743        5.665       54.220      314.829       32.093        0.479        0.020       94.708        4.247        0.002      340.851       15.157      869.931
11/12/2013  19:26:00        1.865       99.693      -17.010        5.006        9.109        4.750       25.060       82.967       22.559        0.518        0.007       99.711        3.121        0.001      340.837       15.136      869.937
11/12/2013  19:27:00        4.982       69.702      -14.343        8.775       13.092        5.966       77.004      171.407       35.592        0.269        0.014       69.880        3.709        0.003      340.863       15.173      869.944
11/12/2013  19:28:00       14.359       42.365       -4.876       10.691        9.301        6.302      114.299       86.513       39.718        0.113        0.012       44.733        5.108        0.013      340.739       14.967      869.936
11/12/2013  19:29:00       24.839       36.121       -5.212       17.131       14.108        8.017      293.471      199.027       64.275        0.125        0.028       43.837        8.058        0.034      340.729       14.950      869.926
11/12/2013  19:30:00        9.028       19.783       -1.973        9.064        9.703        6.462       82.161       94.140       41.752        0.035        0.011       21.746        5.011        0.053      340.679       14.869      869.915
11/12/2013  19:31:00       17.801        4.871       -2.500        9.275        6.080        5.092       86.020       36.969       25.924        0.025        0.007       18.456        4.120        0.050      340.666       14.842      869.902
11/12/2013  19:32:00       13.156        0.337       -0.129        4.740        4.435        4.615       22.471       19.672       21.300        0.012        0.003       13.160        2.168        0.027      340.637       14.796      869.894
11/12/2013  19:33:00        6.977        7.303       -1.765        5.365        4.772        3.185       28.780       22.774       10.142        0.008        0.003       10.100        1.367        0.018      340.669       14.848      869.893
11/12/2013  19:34:00      -13.011       35.471       -6.778       15.629       13.103        5.768      244.270      171.683       33.271        0.096        0.022       37.782        8.298        0.048      340.796       15.064      869.891
11/12/2013  19:35:00      -15.884       51.515      -14.052        8.315       15.870        9.241       69.132      251.864       85.405        0.175        0.020       53.909        6.001        0.012      340.939       15.306      869.894
11/12/2013  19:36:00      -22.742       36.336       -6.731       17.118       18.629       11.379      293.041      347.048      129.482        0.133        0.038       42.866        7.560        0.031      340.899       15.237      869.898
11/12/2013  19:37:00      -28.399       18.832       -6.603       14.221       13.468        8.149      202.233      181.394       66.413        0.083        0.023       34.076        3.774        0.012      340.817       15.099      869.905
11/12/2013  19:38:00      -30.409       39.913       -7.155       18.006       27.924        7.804      324.209      779.771       60.908        0.187        0.058       50.177        8.172        0.027      340.848       15.151      869.917
11/12/2013  19:39:00      -12.681       52.687       -6.622       20.643       15.865        6.684      426.116      251.685       44.677        0.185        0.036       54.192        6.006        0.012      340.873       15.194      869.926
11/12/2013  19:40:00       -6.060        5.464        1.435        8.886       12.721        6.860       78.959      161.828       47.058        0.018        0.014        8.160        6.894        0.714      340.718       14.933      869.944
11/12/2013  19:41:00      -10.374       -3.763        1.029       12.576        3.594        5.881      158.149       12.919       34.590        0.016        0.010       11.035        7.808        0.501      340.646       14.808      869.960
11/12/2013  19:42:00      -21.914       -2.376       -2.399       14.330        5.913        5.047      205.358       34.963       25.469        0.038        0.013       22.043        6.091        0.076      340.496       14.557      869.974
11/12/2013  19:43:00      -15.924      -15.178       -7.972       10.603        6.788        3.977      112.425       46.082       15.820        0.036        0.009       21.999        3.861        0.031      340.500       14.564      869.985
11/12/2013  19:44:00       -0.387      -19.286       -2.874        9.880        6.123        5.703       97.621       37.490       32.529        0.027        0.008       19.290        5.118        0.070      340.494       14.554      869.996
11/12/2013  19:45:00       18.564        0.909        2.504        7.877       12.117        6.940       62.051      146.828       48.161        0.030        0.013       18.586        5.395        0.084      340.453       14.485      870.001
11/12/2013  19:46:00       14.715        8.384        1.747       10.012        5.714        4.414      100.240       32.653       19.486        0.022        0.008       16.936        3.092        0.033      340.314       14.248      870.006
11/12/2013  19:47:00        6.304       -9.127       -1.506        9.975        4.496        4.796       99.508       20.217       23.002        0.013        0.007       11.093        3.766        0.115      340.429       14.442      870.004
11/12/2013  19:48:00      -12.366      -12.108       -5.227       12.915        6.249        4.872      166.798       39.052       23.737        0.028        0.011       17.307        2.895        0.028      340.484       14.537      869.996
11/12/2013  19:49:00      -30.980       -2.256       -7.122        5.726        3.560        2.802       32.785       12.674        7.852        0.053        0.003       31.062        2.682        0.007      340.479       14.524      869.986
11/12/2013  19:50:00      -30.844        3.498       -1.497        3.619        4.436        5.119       13.094       19.676       26.203        0.051        0.003       31.042        3.706        0.014      340.459       14.493      869.980
11/12/2013  19:51:00      -41.617        4.666        0.131        3.629        4.377        4.786       13.168       19.157       22.903        0.090        0.003       41.878        2.078        0.002      340.409       14.412      869.976
11/12/2013  19:52:00      -41.133        9.362       -3.443        4.796        4.790        3.317       23.006       22.941       11.000        0.092        0.003       42.185        2.410        0.003      340.425       14.440      869.974
11/12/2013  19:53:00      -55.074        2.881       -4.748        5.833        4.969        4.991       34.021       24.693       24.911        0.157        0.004       55.150        2.995        0.003      340.394       14.382      869.976
11/12/2013  19:54:00      -53.778        6.363       -4.121        7.274        6.945        4.797       52.908       48.239       23.011        0.154        0.006       54.153        3.790        0.005      340.386       14.370      869.976
11/12/2013  19:55:00      -43.338        1.281       -4.113        6.619        4.111        3.883       43.809       16.899       15.076        0.099        0.004       43.357        1.576        0.001      340.382       14.364      869.978
11/12/2013  19:56:00      -41.778       11.103       -4.064       15.417        7.176        7.043      237.672       51.492       49.605        0.111        0.017       43.229        6.762        0.024      340.345       14.301      869.986
11/12/2013  19:57:00      -44.390        2.100       -5.584        7.645        6.554        4.725       58.452       42.956       22.330        0.106        0.006       44.439        2.999        0.005      340.300       14.225      869.993
11/12/2013  19:58:00      -33.370       -8.360       -8.042        8.171        5.729        4.238       66.768       32.819       17.957        0.068        0.006       34.402        3.052        0.008      340.261       14.160      869.995
11/12/2013  19:59:00      -55.314       -6.465      -10.044       11.018       13.175        5.947      121.405      173.568       35.364        0.177        0.017       55.690        6.214        0.012      340.166       13.995      870.001
11/12/2013  20:00:00      -49.583       -4.206       -7.280       15.887       11.320        8.471      252.390      128.147       71.757        0.149        0.023       49.761       10.225        0.042      340.196       14.049      870.005
11/12/2013  20:01:00      -56.090      -11.012      -12.114       14.688       14.836        8.836      215.725      220.092       78.080        0.196        0.026       57.161        5.203        0.008      340.082       13.856      870.001
11/12/2013  20:02:00      -65.547      -12.900      -13.027       17.274       10.945        7.510      298.383      119.790       56.403        0.255        0.024       66.804        7.536        0.013      340.015       13.746      870.002
11/12/2013  20:03:00      -55.600      -10.367       -2.354       23.241       15.846       13.449      540.149      251.080      180.876        0.209        0.049       56.558       12.353        0.048      339.931       13.603      870.006
11/12/2013  20:04:00      -56.653      -13.522       -5.912       21.204       14.791       10.265      449.617      218.773      105.371        0.210        0.039       58.244        9.300        0.025      339.845       13.459      870.009
11/12/2013  20:05:00      -68.391       -0.192      -10.365       30.453       18.483       14.844      927.389      341.633      220.351        0.314        0.074       68.391       13.651        0.040      339.782       13.352      870.010
11/12/2013  20:06:00      -53.155       -3.163       -1.919       46.966       20.700       17.077     2205.840      428.477      291.613        0.288        0.146       53.249       21.207        0.159      339.752       13.300      870.008
11/12/2013  20:07:00      -91.884       -5.330       -7.429       36.643       27.775       23.291     1342.741      771.429      542.493        0.559        0.133       92.039       23.928        0.068      339.748       13.295      870.005
11/12/2013  20:08:00     -106.730       -5.606       -5.715       33.721       24.203       19.047     1137.096      585.809      362.782        0.677        0.104      106.877       13.435        0.016      339.759       13.313      869.995
11/12/2013  20:09:00      -79.713        1.527       -5.694       43.009       30.471       22.011     1849.770      928.491      484.491        0.483        0.163       79.728       19.425        0.059      339.744       13.287      869.994
11/12/2013  20:10:00     -110.665        0.638       -9.855       30.169       27.675       20.746      910.141      765.914      430.406        0.722        0.105      110.667       17.121        0.024      339.818       13.412      869.999
11/12/2013  20:11:00     -103.670        7.507       -6.348       38.970       27.054       23.520     1518.650      731.904      553.188        0.682        0.140      103.942       22.521        0.047      339.765       13.323      869.994
11/12/2013  20:12:00      -98.056        5.777      -14.468       25.659       24.791       18.230      658.370      614.584      332.324        0.573        0.080       98.226       11.833        0.015      339.804       13.388      869.995
11/12/2013  20:13:00      -77.066        0.096       -3.720       33.616       23.877       19.658     1130.017      570.106      386.422        0.402        0.104       77.066       18.969        0.061      339.755       13.305      869.997
11/12/2013  20:14:00      -73.555        0.527       -9.528       32.971       18.857       18.595     1087.085      355.574      345.763        0.364        0.089       73.556       17.703        0.058      339.719       13.246      870.020
11/12/2013  20:15:00      -92.584       -3.541      -11.801       23.543       24.168       16.356      554.292      584.096      267.503        0.506        0.070       92.651       13.837        0.022      339.708       13.228      870.023
11/12/2013  20:16:00      -79.018       -0.056       -5.175       33.676       19.249       19.007     1134.094      370.516      361.270        0.407        0.093       79.018       19.504        0.061      339.653       13.134      870.022
11/12/2013  20:17:00      -80.296       -4.402       -6.770       30.468       30.820       18.038      928.309      949.879      325.367        0.436        0.110       80.417       17.040        0.045      339.651       13.131      870.027
11/12/2013  20:18:00      -84.614      -23.743      -10.393       25.425       28.725       18.728      646.420      825.120      350.745        0.483        0.091       87.882       15.562        0.031      339.674       13.168      870.021
11/12/2013  20:19:00      -75.115      -36.215      -13.797       26.374       19.663       16.471      695.589      386.652      271.292        0.425        0.068       83.389       10.433        0.016      339.682       13.182      870.014
11/12/2013  20:20:00      -44.016       -6.087        3.675       34.390       20.838       15.254     1182.672      434.235      232.699        0.192        0.092       44.435       14.309        0.104      339.595       13.037      870.026
11/12/2013  20:21:00     -107.218      -10.810      -17.460       12.946       22.987       13.026      167.594      528.420      169.678        0.639        0.043      107.761       11.893        0.012      339.530       12.927      870.034
11/12/2013  20:22:00     -102.953       -3.102       -9.806       38.767       33.816       25.290     1502.880     1143.551      639.602        0.699        0.164      102.999       21.573        0.044      339.408       12.721      870.040
11/12/2013  20:23:00     -102.300        8.194       -8.984       36.163       30.650       28.256     1307.777      939.443      798.386        0.683        0.152      102.628       17.941        0.031      339.438       12.772      870.068
11/12/2013  20:24:00     -130.344        9.517       -8.523       50.161       32.373       22.670     2516.098     1048.035      513.926        1.061        0.204      130.691       23.164        0.031      339.451       12.794      870.078
11/12/2013  20:25:00     -146.643       17.903       -7.012       35.607       35.224       20.492     1267.844     1240.718      419.906        1.240        0.146      147.732       15.361        0.011      339.481       12.843      870.098
11/12/2013  20:26:00     -178.938       43.506      -15.162       35.915       29.106       21.802     1289.870      847.169      475.347        1.838        0.131      184.151       15.028        0.007      339.515       12.900      870.118
11/12/2013  20:27:00     -140.515       -8.815      -16.420       29.103       32.318       20.623      846.982     1044.430      425.304        1.120        0.116      140.791       19.563        0.019      339.446       12.785      870.116
11/12/2013  20:28:00     -102.009        1.932      -13.150       41.343       33.233       22.523     1709.239     1104.449      507.275        0.695        0.166      102.027       13.229        0.017      339.400       12.708      870.122
11/12/2013  20:29:00     -106.724       19.909       -7.190       46.241       31.445       24.462     2138.272      988.761      598.385        0.778        0.186      108.565       19.350        0.032      339.449       12.792      870.127
11/12/2013  20:30:00     -155.834       30.755      -13.214       28.194       25.551       17.499      794.893      652.861      306.213        1.358        0.088      158.840        9.755        0.004      339.585       13.019      870.126
11/12/2013  20:31:00     -151.945       28.046      -13.412       25.335       24.603       16.923      641.853      605.311      286.374        1.279        0.077      154.512       14.209        0.008      339.687       13.191      870.130
11/12/2013  20:32:00     -101.065        3.310       -7.770       23.936       24.963       14.518      572.909      623.133      210.768        0.585        0.070      101.119       10.316        0.010      339.510       12.892      870.126
11/12/2013  20:33:00      -95.471        7.833       -8.546       31.032       31.929       20.601      963.006     1019.487      424.391        0.583        0.120       95.792       16.093        0.028      339.493       12.865      870.134
11/12/2013  20:34:00      -92.395       -4.019      -10.665       28.099       26.466       19.031      789.550      700.458      362.165        0.526        0.093       92.483       15.794        0.029      339.571       12.996      870.146
11/12/2013  20:35:00      -38.943        7.260       -4.331       22.972       18.399       15.573      527.722      338.508      242.529        0.135        0.055       39.614       11.571        0.085      339.544       12.951      870.149
11/12/2013  20:36:00      -70.102       -6.465       -2.617       31.835       22.496       20.208     1013.471      506.050      408.368        0.345        0.096       70.400       12.022        0.029      339.571       12.996      870.165
11/12/2013  20:37:00      -49.482      -13.923       -7.364       22.801       21.741       16.156      519.903      472.690      261.020        0.197        0.063       51.403       13.995        0.074      339.499       12.874      870.179
11/12/2013  20:38:00      -91.113      -15.602      -12.779       18.398       19.592       13.601      338.469      383.858      184.993        0.481        0.045       92.439        9.986        0.012      339.490       12.861      870.195
11/12/2013  20:39:00      -84.169      -11.452      -10.377       29.963       21.715       14.310      897.774      471.563      204.770        0.445        0.079       84.945       10.439        0.015      339.433       12.762      870.209
11/12/2013  20:40:00      -64.856      -12.181      -11.700       21.899       20.573       15.817      479.582      423.263      250.177        0.282        0.058       65.990       11.597        0.031      339.368       12.653      870.213
11/12/2013  20:41:00      -48.653       -7.694       -5.304       29.251       23.127       14.106      855.627      534.856      198.972        0.202        0.079       49.258       14.268        0.084      339.263       12.476      870.217
11/12/2013  20:42:00      -39.533      -15.183       -2.849       34.920       23.941       16.316     1219.426      573.171      266.206        0.193        0.103       42.348       16.146        0.145      339.178       12.333      870.205
11/12/2013  20:43:00      -91.297      -14.116      -13.859       36.129       26.256       17.932     1305.295      689.400      321.563        0.552        0.116       92.382       16.121        0.030      339.175       12.328      870.196
11/12/2013  20:44:00      -84.442      -17.473      -13.786       22.250       23.268       16.580      495.062      541.395      274.898        0.447        0.066       86.231       11.976        0.019      339.153       12.291      870.189
11/12/2013  20:45:00     -101.621      -18.074       -9.290       26.188       19.304       15.011      685.806      372.628      225.338        0.601        0.064      103.216        9.484        0.008      339.027       12.079      870.176
11/12/2013  20:46:00      -65.352      -35.911       -9.155       20.202       23.812       13.831      408.109      567.033      191.294        0.341        0.058       74.568        8.831        0.014      339.023       12.072      870.189
11/12/2013  20:47:00      -84.373      -34.366      -12.439       16.404       18.942       15.889      269.082      358.793      252.463        0.467        0.044       91.103        9.671        0.011      338.990       12.017      870.185
11/12/2013  20:48:00      -91.264      -29.257      -16.005       33.545       29.219       16.350     1125.256      853.762      267.310        0.584        0.112       95.838       10.130        0.011      339.065       12.143      870.199
11/12/2013  20:49:00      -91.656       -3.400      -10.240       32.067       28.432       18.467     1028.302      808.406      341.042        0.535        0.109       91.719       14.374        0.025      338.970       11.984      870.209
11/12/2013  20:50:00      -51.707       -6.166       -4.111       22.526       22.085       16.784      507.421      487.759      281.704        0.200        0.064       52.074       14.942        0.082      338.973       11.988      870.213
11/12/2013  20:51:00      -66.990       -1.399      -15.136       28.768       22.797       11.615      827.597      519.710      134.899        0.310        0.074       67.004        6.882        0.011      339.058       12.132      870.217
11/12/2013  20:52:00      -58.306        5.075      -16.144       21.212       19.209       12.143      449.959      368.969      147.441        0.233        0.048       58.527        7.200        0.015      338.993       12.021      870.215
11/12/2013  20:53:00      -66.640       -3.210      -17.025       18.697        9.350        9.045      349.575       87.414       81.809        0.263        0.026       66.717        6.731        0.010      338.995       12.027      870.223
11/12/2013  20:54:00      -72.146       -5.864      -17.972       11.034        8.011        6.360      121.748       64.178       40.449        0.289        0.011       72.384        4.215        0.003      338.962       11.972      870.219
11/12/2013  20:55:00      -74.215       -4.981      -15.853       10.282        9.043        8.094      105.714       81.778       65.516        0.302        0.013       74.382        3.464        0.002      339.012       12.053      870.215
11/12/2013  20:56:00      -69.008      -36.143      -10.355       14.023       20.142       10.294      196.655      405.716      105.958        0.344        0.035       77.900        6.601        0.007      338.950       11.949      870.217
11/12/2013  20:57:00      -40.379      -29.652        0.202       26.919       22.332       20.333      724.615      498.709      413.411        0.207        0.082       50.097       19.168        0.146      338.842       11.767      870.213
11/12/2013  20:58:00      -83.708      -37.090      -15.418       17.702       25.315       14.980      313.364      640.847      224.403        0.490        0.059       91.558        7.956        0.008      338.801       11.699      870.218
11/12/2013  20:59:00      -89.869      -46.024      -10.807       35.256       24.655       18.507     1242.953      607.849      342.503        0.625        0.110      100.969       15.856        0.025      338.699       11.528      870.220
11/12/2013  21:00:00      -98.313      -21.697      -15.041       19.068       26.936       14.157      363.600      725.531      200.423        0.583        0.064      100.679       11.034        0.012      338.737       11.592      870.224
11/12/2013  21:01:00      -97.668      -11.909      -12.103       29.048       21.801       17.431      843.796      475.280      303.843        0.572        0.081       98.391       16.106        0.027      338.605       11.370      870.222
11/12/2013  21:02:00      -99.399      -27.993      -11.138       20.357       22.660       14.267      414.417      513.482      203.551        0.596        0.057      103.266        9.375        0.008      338.602       11.364      870.217
11/12/2013  21:03:00      -99.591      -23.435      -18.113       13.483       14.289       10.627      181.778      204.168      112.933        0.565        0.025      102.311        6.440        0.004      338.506       11.203      870.215
11/12/2013  21:04:00      -95.254      -35.133      -17.880       17.929       25.233       14.531      321.431      636.702      211.146        0.590        0.058      101.527        4.949        0.002      338.525       11.236      870.207
11/12/2013  21:05:00      -81.022      -34.957      -12.305       18.356       19.739       17.956      336.925      389.644      322.416        0.449        0.052       88.241       10.348        0.014      338.467       11.139      870.212
11/12/2013  21:06:00     -102.791      -15.006      -18.832       25.625       23.808       15.569      656.661      566.832      242.383        0.631        0.073      103.881       10.890        0.011      338.435       11.083      870.221
11/12/2013  21:07:00     -107.301      -10.130      -18.941       29.574       24.570       17.372      874.639      603.666      301.789        0.688        0.089      107.778       16.390        0.023      338.371       10.977      870.241
11/12/2013  21:08:00      -89.777       -4.969      -17.904       21.626       16.492       15.059      467.698      271.989      226.763        0.469        0.048       89.914       12.048        0.018      338.364       10.966      870.245
11/12/2013  21:09:00     -108.753        7.645      -20.407       27.613       16.910       17.679      762.462      285.964      312.549        0.683        0.068      109.021       13.352        0.015      338.420       11.058      870.255
11/12/2013  21:10:00     -115.468        5.212      -19.778       26.772       20.843       13.144      716.765      434.439      172.756        0.754        0.066      115.585        6.175        0.003      338.425       11.068      870.260
11/12/2013  21:11:00     -128.525       14.334      -22.875       21.576       19.255       14.677      465.544      370.739      215.412        0.915        0.053      129.322        5.486        0.002      338.399       11.023      870.270
11/12/2013  21:12:00     -111.994        6.339      -17.531       24.896       21.524       16.571      619.828      463.265      274.612        0.712        0.068      112.174       11.618        0.011      338.326       10.900      870.274
11/12/2013  21:13:00     -115.385        9.283      -19.246       31.587       29.362       22.767      997.716      862.117      518.326        0.807        0.119      115.758       14.897        0.017      338.298       10.855      870.281
11/12/2013  21:14:00      -93.602        3.557      -11.609       34.347       31.160       21.708     1179.683      970.930      471.217        0.576        0.131       93.670       14.423        0.024      338.295       10.849      870.281
11/12/2013  21:15:00      -85.357        8.218      -13.476       43.885       28.059       21.349     1925.882      787.282      455.765        0.535        0.158       85.752       10.686        0.016      338.341       10.927      870.292
11/12/2013  21:16:00     -109.415       15.670      -12.676       33.698       27.112       16.238     1135.534      735.067      263.681        0.726        0.107      110.531       12.867        0.014      338.389       11.008      870.304
11/12/2013  21:17:00     -112.200       10.876      -15.419       31.511       28.124       21.076      992.966      790.967      444.212        0.759        0.111      112.726       13.089        0.013      338.269       10.804      870.305
11/12/2013  21:18:00     -134.429        6.698      -12.368       37.189       24.621       21.100     1383.034      606.200      445.229        1.035        0.122      134.596       19.292        0.021      338.234       10.747      870.313
11/12/2013  21:19:00     -109.998       -7.105      -16.005       30.854       28.180       19.372      951.945      794.130      375.287        0.726        0.106      110.227       12.249        0.012      338.139       10.588      870.321
11/12/2013  21:20:00     -102.119      -27.400      -18.474       32.798       30.058       15.646     1075.738      903.455      244.810        0.687        0.111      105.731       15.796        0.022      338.137       10.584      870.334
11/12/2013  21:21:00      -85.340      -20.394      -11.104       25.364       26.252       14.824      643.326      689.177      219.756        0.469        0.078       87.743       10.559        0.014      338.107       10.532      870.347
11/12/2013  21:22:00      -96.758      -27.509      -23.354       16.856       22.334       16.275      284.126      498.820      264.872        0.586        0.052      100.592        9.995        0.010      338.091       10.508      870.359
11/12/2013  21:23:00      -78.614      -51.284      -23.568       22.180       25.581       13.459      491.967      654.398      181.158        0.535        0.066       93.863        5.295        0.003      338.109       10.537      870.356
11/12/2013  21:24:00      -97.565      -23.304      -20.058       22.269       28.838       16.953      495.887      831.611      287.413        0.604        0.081      100.310       17.176        0.029      338.068       10.469      870.375
11/12/2013  21:25:00      -84.179      -55.339      -16.981       24.425       23.884       18.478      596.573      570.438      341.449        0.597        0.075      100.740       12.079        0.014      338.038       10.419      870.378
11/12/2013  21:26:00     -103.443      -25.134      -24.342       27.517       24.220       19.452      757.172      586.598      378.398        0.682        0.086      106.453       13.307        0.016      338.055       10.448      870.378
11/12/2013  21:27:00      -76.572      -62.359       -9.751       25.831       37.664       19.243      667.257     1418.540      370.285        0.615        0.123       98.752       17.213        0.030      338.033       10.410      870.389
11/12/2013  21:28:00      -77.893      -52.282      -24.079       24.080       26.279       17.695      579.852      690.570      313.123        0.548        0.079       93.812       11.275        0.014      338.020       10.389      870.391
11/12/2013  21:29:00      -72.732      -49.039      -19.943       33.846       29.021       21.078     1145.566      842.214      444.288        0.526        0.122       87.720       13.803        0.025      337.927       10.231      870.391
11/12/2013  21:30:00      -75.862      -48.252      -25.709       31.004       28.599       18.206      961.236      817.916      331.462        0.543        0.106       89.907       13.665        0.023      338.005       10.363      870.388
11/12/2013  21:31:00     -113.187       -8.772      -23.703       29.478       21.905       17.921      868.981      479.808      321.166        0.756        0.083      113.526       11.927        0.011      338.067       10.468      870.373
11/12/2013  21:32:00     -132.918       -9.677      -24.216       14.973       16.978       12.194      224.193      288.261      148.691        0.950        0.033      133.270        7.202        0.003      337.993       10.342      870.370
11/12/2013  21:33:00     -127.243       -6.023      -22.044       17.453       14.652       14.732      304.597      214.677      217.021        0.872        0.037      127.386       11.265        0.008      338.025       10.396      870.358
11/12/2013  21:34:00     -117.017      -15.974      -20.920       19.314       22.691       10.460      373.015      514.888      109.415        0.769        0.050      118.103        9.394        0.006      337.999       10.350      870.358
11/12/2013  21:35:00      -91.825      -30.526      -13.045       27.973       25.852       19.496      782.490      668.329      380.111        0.568        0.092       96.766       17.968        0.034      337.990       10.338      870.349
11/12/2013  21:36:00      -94.570      -30.497      -20.267       22.074       19.327       15.782      487.268      373.523      249.077        0.570        0.055       99.365        9.042        0.008      337.972       10.308      870.344
11/12/2013  21:37:00     -103.202      -18.639      -16.674       31.359       23.355       17.606      983.373      545.449      309.982        0.656        0.092      104.872       17.302        0.027      337.976       10.313      870.329
11/12/2013  21:38:00      -99.342      -16.558      -12.450       19.340       19.516       12.715      374.026      380.856      161.666        0.561        0.046      100.712        8.242        0.007      337.941       10.254      870.326
11/12/2013  21:39:00     -109.605      -24.050      -12.655       20.686       24.819       19.320      427.901      615.978      373.275        0.708        0.071      112.212       17.138        0.023      337.909       10.204      870.319
11/12/2013  21:40:00      -85.719      -27.242       -7.557       17.470       26.210       15.038      305.194      686.961      226.153        0.468        0.061       89.944       12.274        0.019      337.883       10.159      870.335
11/12/2013  21:41:00      -85.030      -34.991      -14.103       28.055       29.218       19.942      787.077      853.688      397.668        0.535        0.102       91.949        8.537        0.009      337.882       10.156      870.337
11/12/2013  21:42:00      -62.468      -47.358      -11.322       22.877       20.942       16.065      523.363      438.569      258.093        0.375        0.061       78.390        7.893        0.010      337.845       10.093      870.344
11/12/2013  21:43:00      -61.833      -24.862      -17.558       27.072       29.323       24.208      732.905      859.858      586.030        0.346        0.109       66.644       11.522        0.030      337.834       10.074      870.340
11/12/2013  21:44:00      -78.069      -31.760      -16.993       38.429       29.659       31.207     1476.785      879.629      973.882        0.536        0.167       84.282       24.167        0.082      337.903       10.190      870.356
11/12/2013  21:45:00      -90.906       -4.042      -11.349       40.171       24.263       23.492     1613.721      588.693      551.862        0.558        0.138       90.996       23.520        0.067      337.770        9.969      870.348
11/12/2013  21:46:00      -98.408      -28.711      -22.555       24.386       25.896       20.783      594.661      670.614      431.928        0.636        0.085      102.510       17.200        0.028      337.767        9.964      870.347
11/12/2013  21:47:00     -129.694      -23.483      -18.848       24.020       27.173       16.743      576.961      738.365      280.315        0.966        0.080      131.803       10.770        0.007      337.699        9.850      870.343
11/12/2013  21:48:00     -114.172      -28.354      -17.542       24.933       26.501       19.665      621.631      702.321      386.724        0.793        0.086      117.640       13.199        0.013      337.712        9.871      870.331
11/12/2013  21:49:00     -126.303      -20.289      -19.282       25.707       22.279       17.890      660.863      496.360      320.058        0.911        0.074      127.922       10.942        0.007      337.702        9.855      870.331
11/12/2013  21:50:00     -120.478      -11.074      -15.349       16.713       14.839       15.433      279.310      220.190      238.193        0.781        0.037      120.986       11.142        0.008      337.787        9.996      870.318
11/12/2013  21:51:00      -95.798       -1.905      -16.652       15.336       14.024       12.844      235.205      196.669      164.972        0.503        0.030       95.817       10.382        0.012      337.909       10.202      870.323
11/12/2013  21:52:00      -93.031      -25.243      -19.317       18.653       28.379       13.401      347.938      805.346      179.575        0.550        0.067       96.394        9.992        0.011      337.824       10.058      870.324
11/12/2013  21:53:00      -78.428      -51.786       -5.446       17.054       17.377       14.076      290.828      301.960      198.146        0.483        0.040       93.983        9.324        0.010      337.754        9.941      870.332
11/12/2013  21:54:00      -80.785      -31.635      -19.128       18.381       21.875       14.501      337.864      478.507      210.271        0.446        0.051       86.758       10.044        0.013      337.818       10.049      870.341
11/12/2013  21:55:00      -79.662      -17.228      -20.999       18.388       13.728       12.394      338.103      188.451      153.615        0.388        0.034       81.504        9.796        0.014      337.806       10.028      870.338
11/12/2013  21:56:00      -85.642      -21.711      -10.842       18.443       18.095       13.047      340.131      327.421      170.214        0.438        0.042       88.351       10.834        0.015      337.804       10.025      870.353
11/12/2013  21:57:00      -94.319      -18.302      -18.004       20.359       20.088       14.809      414.506      403.529      219.294        0.530        0.052       96.078       10.620        0.012      337.743        9.923      870.353
11/12/2013  21:58:00      -87.537      -33.605      -19.235       15.722       12.848       12.200      247.181      165.065      148.831        0.486        0.028       93.766        6.433        0.005      337.702        9.854      870.365
11/12/2013  21:59:00      -92.253      -34.726      -12.662       21.681       20.984       16.450      470.059      440.322      270.612        0.553        0.059       98.572       12.359        0.016      337.678        9.816      870.368
11/12/2013  22:00:00     -118.049      -20.713      -22.561       16.006       12.701       12.258      256.191      161.321      150.264        0.772        0.028      119.852        8.123        0.005      337.662        9.788      870.363
11/12/2013  22:01:00     -120.966      -29.080      -19.860       28.589       28.783       26.581      817.311      828.442      706.523        0.911        0.118      124.412       22.991        0.034      337.616        9.711      870.366
11/12/2013  22:02:00      -89.649      -38.413       -7.043       29.531       31.284       23.139      872.093      978.709      535.420        0.597        0.119       97.532       16.998        0.030      337.579        9.648      870.353
11/12/2013  22:03:00     -111.954      -41.636      -18.040       17.708       19.174       12.855      313.575      367.655      165.244        0.772        0.042      119.445        8.897        0.006      337.589        9.665      870.351
11/12/2013  22:04:00      -97.933      -23.710       -8.528       26.645       24.626       19.607      709.969      606.445      384.427        0.596        0.085      100.763       18.141        0.032      337.589        9.666      870.343
11/12/2013  22:05:00      -98.335       -1.536      -15.152       23.395       22.665       15.882      547.304      513.688      252.253        0.561        0.066       98.347       14.786        0.023      337.555        9.609      870.341
11/12/2013  22:06:00      -85.646      -10.444       -9.962       21.269       29.197       15.087      452.389      852.472      227.605        0.454        0.077       86.281        9.273        0.012      337.532        9.568      870.344
11/12/2013  22:07:00     -100.324      -13.209      -12.618       30.523       17.060       14.305      931.640      291.038      204.639        0.591        0.071      101.190       14.961        0.022      337.551        9.600      870.342
11/12/2013  22:08:00      -77.006      -12.774      -10.009       15.825       18.042       10.642      250.446      325.528      113.251        0.344        0.034       78.059        9.327        0.014      337.564        9.623      870.347
11/12/2013  22:09:00      -69.340      -22.314      -15.516       16.236       14.559       13.087      263.616      211.978      171.272        0.310        0.032       72.842       10.203        0.020      337.680        9.818      870.347
11/12/2013  22:10:00      -55.080      -30.009      -11.706       14.791       14.118       14.104      218.760      199.312      198.912        0.234        0.031       62.725        9.363        0.022      337.775        9.978      870.345
11/12/2013  22:11:00      -40.497      -36.199      -11.843       14.460       18.369       17.074      209.081      337.402      291.515        0.196        0.042       54.318        9.109        0.028      337.882       10.156      870.340
11/12/2013  22:12:00      -51.560      -30.248       -7.382       15.158       13.538       10.867      229.763      183.268      118.102        0.208        0.027       59.778        6.900        0.013      337.808       10.033      870.326
11/12/2013  22:13:00      -71.401      -20.246      -11.580        9.517       12.447        9.177       90.570      154.937       84.217        0.299        0.016       74.216        6.002        0.007      337.667        9.795      870.312
11/12/2013  22:14:00      -74.715      -25.502      -12.555       12.259       15.779        9.496      150.293      248.963       90.178        0.344        0.024       78.948        5.934        0.006      337.716        9.878      870.319
11/12/2013  22:15:00      -89.752      -26.922      -16.139       15.125       15.518       10.441      228.779      240.797      109.018        0.481        0.029       93.703        7.645        0.007      337.629        9.731      870.310
11/12/2013  22:16:00     -103.724      -21.515      -20.984       12.600       16.244       13.119      158.772      263.878      172.113        0.613        0.030      105.932       10.436        0.010      337.516        9.542      870.313
11/12/2013  22:17:00     -127.635      -19.114      -17.796       17.381       21.913       13.192      302.084      480.171      174.019        0.896        0.048      129.058       11.430        0.008      337.496        9.508      870.336
11/12/2013  22:18:00     -116.949      -39.509      -13.449       21.658       25.328       16.543      469.067      641.490      273.677        0.840        0.069      123.443       12.759        0.011      337.417        9.376      870.342
11/12/2013  22:19:00     -130.239      -33.948      -20.735       23.504       23.731       15.916      552.446      563.178      253.311        0.996        0.068      134.591        9.472        0.005      337.402        9.350      870.351
11/12/2013  22:20:00     -110.399      -50.074      -21.629       14.577       21.201       13.092      212.475      449.475      171.404        0.800        0.042      121.225        9.081        0.006      337.388        9.328      870.358
11/12/2013  22:21:00      -94.763      -48.794      -17.776       18.611       21.202       14.718      346.382      449.532      216.616        0.634        0.051      106.588       10.909        0.010      337.392        9.335      870.363
11/12/2013  22:22:00      -90.563      -31.941      -17.737       15.449       15.533       12.895      238.673      241.266      166.293        0.509        0.032       96.031        4.186        0.002      337.357        9.275      870.369
11/12/2013  22:23:00      -91.298      -13.902      -14.497       38.248       22.712       14.345     1462.904      515.835      205.776        0.546        0.109       92.350        9.972        0.012      337.377        9.310      870.382
11/12/2013  22:24:00     -107.568      -17.741       -8.872       47.294       27.015       17.489     2236.687      729.814      305.882        0.762        0.164      109.021       14.655        0.018      337.374        9.303      870.378
11/12/2013  22:25:00      -98.824       -4.148      -15.634       22.086       18.009       13.473      487.771      324.326      181.518        0.551        0.050       98.911        7.366        0.006      337.344        9.254      870.370
11/12/2013  22:26:00     -106.833      -11.058      -21.293       17.283       18.391       13.135      298.694      338.228      172.520        0.640        0.040      107.404       10.133        0.009      337.316        9.209      870.374
11/12/2013  22:27:00      -76.465      -33.443      -18.331       17.230       19.007       11.984      296.881      361.268      143.607        0.405        0.040       83.458        6.992        0.007      337.333        9.237      870.365
11/12/2013  22:28:00      -95.546      -22.960      -14.932       24.976       19.876       13.961      623.795      395.052      194.912        0.555        0.061       98.266       10.296        0.011      337.330        9.232      870.350
11/12/2013  22:29:00      -90.191      -28.775      -15.619       17.326       16.786       10.248      300.201      281.779      105.024        0.495        0.034       94.670        6.504        0.005      337.298        9.179      870.347
11/12/2013  22:30:00      -77.452      -23.278      -19.619       15.743       21.323       14.833      247.832      454.658      220.028        0.392        0.046       80.875       12.854        0.025      337.406        9.357      870.360
11/12/2013  22:31:00      -92.912      -28.468      -20.898       17.931       19.415       11.079      321.536      376.932      122.735        0.535        0.041       97.176        8.548        0.008      337.270        9.131      870.355
11/12/2013  22:32:00     -103.505      -32.770      -19.228       12.153       15.144       10.165      147.688      229.331      103.321        0.632        0.024      108.569        6.506        0.004      337.240        9.083      870.351
11/12/2013  22:33:00      -89.703      -26.073      -15.075       22.906       19.915       16.932      524.701      396.619      286.693        0.508        0.060       93.415       11.048        0.014      337.235        9.074      870.358
11/12/2013  22:34:00     -115.643      -40.755      -21.251       24.169       22.576       17.726      584.116      509.671      314.217        0.845        0.070      122.614       15.002        0.015      337.226        9.057      870.360
11/12/2013  22:35:00     -104.497      -19.541      -25.232       27.036       25.113       14.905      730.927      630.664      222.149        0.676        0.079      106.308       13.387        0.016      337.238        9.077      870.361
11/12/2013  22:36:00     -128.106      -31.423      -21.940       27.119       24.087       13.821      735.415      580.199      191.012        0.969        0.075      131.904        7.965        0.004      337.205        9.021      870.375
11/12/2013  22:37:00     -120.254      -20.899      -14.422       25.277       33.026       17.560      638.913     1090.724      308.337        0.857        0.102      122.057       12.787        0.011      337.163        8.953      870.388
11/12/2013  22:38:00     -103.891      -20.631      -21.206       19.255       20.966       17.204      370.752      439.587      295.986        0.639        0.055      105.919        4.668        0.002      337.231        9.065      870.395
11/12/2013  22:39:00      -70.400      -28.434      -11.541       25.861       22.484       18.826      668.812      505.549      354.433        0.371        0.076       75.925       12.127        0.026      337.204        9.021      870.414
11/12/2013  22:40:00      -73.197      -30.326       -6.262       20.485       19.019       15.086      419.631      361.715      227.585        0.366        0.050       79.231       10.623        0.018      337.208        9.028      870.414
11/12/2013  22:41:00      -93.497      -12.850      -13.879       19.746       15.167       14.101      389.903      230.026      198.832        0.496        0.041       94.376        6.049        0.004      337.172        8.970      870.415
11/12/2013  22:42:00      -86.033       -6.972      -13.254       15.036       14.363       10.427      226.089      206.287      108.724        0.408        0.027       86.315        7.985        0.009      337.158        8.943      870.422
11/12/2013  22:43:00      -78.807      -11.856      -11.063       14.561       11.041       10.439      212.020      121.910      108.983        0.346        0.022       79.693        4.645        0.003      337.118        8.875      870.416
11/12/2013  22:44:00      -70.155      -21.717      -12.512       10.367       13.740        8.301      107.479      188.774       68.901        0.296        0.018       73.440        3.660        0.002      337.123        8.884      870.402
11/12/2013  22:45:00      -85.453      -31.969      -11.883       13.977       11.094        7.744      195.365      123.075       59.972        0.442        0.019       91.237        6.393        0.005      337.052        8.765      870.390
11/12/2013  22:46:00      -97.634      -28.063      -16.181       10.931       11.664        9.302      119.491      136.054       86.533        0.546        0.017      101.587        5.762        0.003      337.039        8.743      870.390
11/12/2013  22:47:00     -107.582      -24.201      -16.656       13.167       17.754       12.077      173.379      315.215      145.862        0.654        0.032      110.271        9.291        0.007      337.039        8.742      870.379
11/12/2013  22:48:00      -96.387      -29.113      -16.328       17.323       15.220        8.645      300.072      231.649       74.736        0.551        0.030      100.688        4.917        0.002      336.999        8.675      870.380
11/12/2013  22:49:00      -96.759      -26.088      -20.652       14.550       10.514        8.182      211.691      110.542       66.940        0.543        0.019      100.214        4.570        0.002      337.045        8.751      870.395
11/12/2013  22:50:00      -96.246      -22.508      -19.825       21.854       14.772        7.227      477.615      218.205       52.233        0.546        0.037       98.843        7.365        0.006      337.088        8.825      870.390
11/12/2013  22:51:00      -96.133      -16.400      -13.830       20.259       15.160       10.850      410.413      229.819      117.722        0.523        0.038       97.522       10.826        0.012      337.057        8.773      870.390
11/12/2013  22:52:00      -96.536       -4.292      -13.125       24.357       11.647        9.454      593.255      135.647       89.385        0.516        0.041       96.631       12.031        0.016      337.224        9.054      870.396
11/12/2013  22:53:00      -93.940      -10.463      -13.225       19.185        7.231        8.051      368.082       52.291       64.823        0.480        0.024       94.521        6.427        0.005      337.368        9.295      870.392
11/12/2013  22:54:00      -61.918      -18.006      -16.611       11.503       11.753        8.940      132.330      138.122       79.923        0.239        0.018       64.483        6.351        0.010      337.295        9.173      870.386
11/12/2013  22:55:00      -63.181      -21.667      -11.078       11.843       12.783        8.007      140.260      163.393       64.118        0.248        0.018       66.793        5.993        0.008      337.212        9.035      870.377
11/12/2013  22:56:00      -54.980      -34.773       -6.544       11.846       10.692       13.743      140.333      114.309      188.862        0.236        0.022       65.053        9.448        0.021      337.162        8.950      870.374
11/12/2013  22:57:00      -71.316      -25.194      -17.381       18.119       13.825        7.673      328.286      191.132       58.868        0.330        0.029       75.635        7.914        0.011      337.186        8.989      870.373
11/12/2013  22:58:00     -103.410       -8.844      -13.913        9.562        8.588        8.158       91.428       73.746       66.547        0.560        0.012      103.787        3.650        0.001      337.157        8.941      870.355
11/12/2013  22:59:00      -78.396      -25.061       -9.432       16.610       19.457       12.418      275.902      378.594      154.214        0.384        0.040       82.305       10.477        0.016      337.062        8.781      870.339
11/12/2013  23:00:00     -105.236      -29.100      -16.735        7.940        9.628        8.017       63.047       92.708       64.278        0.621        0.011      109.185        5.791        0.003      337.075        8.804      870.329
11/12/2013  23:01:00      -96.221      -16.626      -17.563       16.395       11.904        9.058      268.803      141.708       82.043        0.517        0.025       97.646        7.231        0.005      337.034        8.734      870.335
11/12/2013  23:02:00     -101.928      -34.741      -17.403       18.359        9.329       10.407      337.069       87.035      108.306        0.622        0.027      107.686       10.063        0.009      337.017        8.705      870.349
11/12/2013  23:03:00     -109.724      -35.720       -9.580       31.867       14.830       12.018     1015.480      219.915      144.423        0.739        0.069      115.392       14.398        0.016      337.049        8.761      870.369
11/12/2013  23:04:00     -103.139      -31.208       -4.614       19.115       13.426       10.890      365.396      180.261      118.602        0.615        0.033      107.757        7.857        0.005      336.986        8.655      870.381
11/12/2013  23:05:00      -85.437      -32.766        3.031       23.919       13.404       14.365      572.119      179.670      206.349        0.467        0.048       91.505       14.956        0.027      336.936        8.570      870.391
11/12/2013  23:06:00      -89.378      -35.319       -0.899       13.661       12.133        8.917      186.621      147.214       79.508        0.482        0.021       96.104        5.299        0.003      336.945        8.585      870.397
11/12/2013  23:07:00      -83.555      -26.894       -2.521       16.757       16.768        9.496      280.802      281.157       90.173        0.418        0.033       87.776        6.086        0.005      336.930        8.562      870.403
11/12/2013  23:08:00      -83.689      -11.299       -2.197       17.969       13.231        8.139      322.879      175.055       66.236        0.385        0.028       84.448        4.388        0.003      336.888        8.492      870.413
11/12/2013  23:09:00      -86.927        1.301       -9.533       17.689       13.694       11.499      312.884      187.517      132.236        0.414        0.032       86.937        7.505        0.007      336.841        8.414      870.423
11/12/2013  23:10:00     -107.872       -9.133      -10.879       10.351       11.801        9.662      107.146      139.259       93.350        0.609        0.017      108.258        6.677        0.004      336.964        8.619      870.427
11/12/2013  23:11:00     -119.594      -28.898      -11.078       15.702       11.601       10.995      246.567      134.594      120.900        0.788        0.025      123.036        9.776        0.006      336.961        8.614      870.429
11/12/2013  23:12:00     -103.793      -38.334       -2.681       17.746       17.757       14.013      314.914      315.294      196.373        0.654        0.041      110.645       10.038        0.008      336.923        8.549      870.441
11/12/2013  23:13:00     -114.057      -42.725       -8.058       13.653       16.908       12.157      186.401      285.894      147.787        0.776        0.031      121.797        6.642        0.003      336.914        8.535      870.441
11/12/2013  23:14:00     -121.627      -44.177      -12.359       17.365       18.842       10.547      301.531      355.017      111.234        0.883        0.038      129.402        5.761        0.002      336.812        8.364      870.434
11/12/2013  23:15:00     -116.304      -30.474       -9.988       18.950       15.118       12.566      359.107      228.547      157.915        0.765        0.037      120.230       10.481        0.008      336.727        8.225      870.425
11/12/2013  23:16:00     -108.796      -31.347      -10.980       19.730       17.681        9.762      389.254      312.619       95.303        0.687        0.040      113.221        8.493        0.006      336.729        8.228      870.409
11/12/2013  23:17:00     -104.634      -24.669       -3.528       21.957       19.584       16.301      482.106      383.534      265.722        0.635        0.057      107.503       13.778        0.016      336.673        8.133      870.393
11/12/2013  23:18:00     -112.415      -28.584      -11.824       18.963       11.291       11.568      359.599      127.486      133.810        0.711        0.031      115.992        8.207        0.005      336.641        8.080      870.380
11/12/2013  23:19:00     -121.002      -33.480       -8.484       20.606       14.648       10.737      424.595      214.566      115.293        0.829        0.038      125.549        7.418        0.003      336.610        8.029      870.372
11/12/2013  23:20:00     -127.212      -45.378      -11.235       16.713       18.268       11.725      279.320      333.727      137.467        0.956        0.038      135.063        6.891        0.003      336.608        8.025      870.365
11/12/2013  23:21:00     -129.538      -48.368       -8.967       17.163       19.691       13.010      294.554      387.746      169.260        1.003        0.043      138.273       10.020        0.005      336.515        7.870      870.366
11/12/2013  23:22:00     -108.543      -62.233       -2.427       33.899       21.196       14.932     1149.128      449.256      222.964        0.874        0.091      125.119       15.788        0.016      336.533        7.900      870.386
11/12/2013  23:23:00     -106.870      -52.042       -3.132       31.072       30.701       18.728      965.444      942.526      350.734        0.820        0.113      118.868       12.870        0.012      336.518        7.875      870.396
11/12/2013  23:24:00      -89.296      -43.359       -1.432       21.822       21.737       18.122      476.214      472.500      328.402        0.557        0.064       99.266        9.715        0.010      336.487        7.823      870.399
11/12/2013  23:25:00     -118.083      -28.478      -14.836       22.741       16.784       13.041      517.136      281.704      170.057        0.797        0.048      121.469        3.440        0.001      336.510        7.861      870.400
11/12/2013  23:26:00     -119.282      -39.418       -7.336       36.369       28.639       18.043     1322.732      820.202      325.554        0.915        0.123      125.627       14.559        0.013      336.536        7.904      870.404
11/12/2013  23:27:00     -103.510      -18.325       -1.577       32.513       28.542       14.741     1057.110      814.673      217.309        0.657        0.104      105.120       13.180        0.016      336.543        7.915      870.404
11/12/2013  23:28:00      -85.798      -14.199        0.655       45.227       31.080       18.318     2045.504      965.942      335.557        0.545        0.167       86.965       13.094        0.023      336.546        7.921      870.398
11/12/2013  23:29:00     -128.431       -9.106       -5.932       47.171       29.860       20.212     2225.085      891.590      408.520        1.007        0.176      128.753       16.229        0.016      336.617        8.040      870.390
11/12/2013  23:30:00      -97.371      -22.725       -2.916       40.996       25.028       22.000     1680.664      626.381      484.004        0.640        0.140       99.988       21.628        0.047      336.593        8.001      870.387
11/12/2013  23:31:00      -80.529      -35.428       -9.536       30.948       24.620       18.280      957.808      606.143      334.141        0.486        0.095       87.978        7.026        0.006      336.588        7.991      870.396
11/12/2013  23:32:00     -109.567      -30.702       -9.548       25.735       27.657       22.085      662.273      764.910      487.742        0.748        0.096      113.787       15.958        0.020      336.580        7.978      870.387
11/12/2013  23:33:00      -64.080      -42.040       -5.122       57.866       30.423       26.738     3348.508      925.566      714.895        0.544        0.249       76.640       29.607        0.149      336.556        7.938      870.381
11/12/2013  23:34:00      -81.680      -28.889       -6.815       50.670       25.999       21.665     2567.462      675.957      469.384        0.563        0.186       86.639       15.366        0.031      336.543        7.915      870.380
11/12/2013  23:35:00     -123.244      -42.331       -9.267       40.930       32.724       22.035     1675.288     1070.831      485.563        1.015        0.162      130.311       13.927        0.011      336.485        7.819      870.374
11/12/2013  23:36:00     -108.947      -68.877        5.777       51.419       38.198       21.436     2643.940     1459.077      459.508        1.060        0.228      128.894       23.730        0.034      336.481        7.811      870.379
11/12/2013  23:37:00     -110.602      -24.635        4.849       45.713       38.127       21.590     2089.649     1453.697      466.134        0.844        0.200      113.312       22.558        0.040      336.441        7.746      870.363
11/12/2013  23:38:00      -93.328      -27.909        9.435       37.610       34.375       19.987     1414.529     1181.636      399.490        0.629        0.150       97.412       16.497        0.029      336.402        7.680      870.354
11/12/2013  23:39:00      -94.307      -13.302       -4.685       34.365       25.109       21.222     1180.921      630.463      450.356        0.568        0.113       95.241       15.935        0.028      336.436        7.735      870.337
11/12/2013  23:40:00      -66.399      -32.007        1.843       45.133       25.712       18.611     2036.961      661.120      346.384        0.424        0.152       73.710       22.948        0.097      336.428        7.723      870.319
11/12/2013  23:41:00      -65.924      -32.748        0.947       36.472       17.370       16.634     1330.183      301.708      276.696        0.366        0.095       73.609       16.391        0.050      336.419        7.707      870.320
11/12/2013  23:42:00      -66.777      -38.784       -9.614       32.639       15.341       17.841     1065.331      235.357      318.288        0.384        0.081       77.223       16.126        0.044      336.475        7.802      870.309
11/12/2013  23:43:00      -85.125      -39.349       -9.442       27.448       16.898       13.845      753.386      285.531      191.682        0.506        0.062       93.780        7.387        0.006      336.494        7.834      870.310
11/12/2013  23:44:00      -96.647      -32.943      -12.052       34.269       21.801       18.641     1174.349      475.284      347.471        0.628        0.100      102.107       16.041        0.025      336.446        7.753      870.309
11/12/2013  23:45:00      -93.510      -26.066       -6.799       36.908       24.540       17.751     1362.236      602.221      315.107        0.587        0.114       97.075       16.006        0.027      336.356        7.601      870.322
11/12/2013  23:46:00      -86.151      -27.958       -9.613       26.919       23.265       15.363      724.626      541.254      236.023        0.490        0.075       90.574       15.593        0.030      336.365        7.618      870.327
11/12/2013  23:47:00     -107.335      -22.346       -9.715       33.762       24.957       14.207     1139.873      622.863      201.829        0.704        0.098      109.636       12.621        0.013      336.338        7.572      870.318
11/12/2013  23:48:00     -132.098      -17.980      -15.085       35.744       22.504       20.211     1277.669      506.426      408.502        1.010        0.110      133.316       19.836        0.022      336.355        7.602      870.313
11/12/2013  23:49:00     -117.473      -32.614      -16.037       32.069       25.214       16.217     1028.389      635.746      263.003        0.852        0.096      121.916       10.420        0.007      336.328        7.556      870.313
11/12/2013  23:50:00      -95.157      -55.383      -16.349       25.040       24.167       18.351      627.002      584.048      336.743        0.697        0.077      110.100       10.022        0.008      336.350        7.591      870.316
11/12/2013  23:51:00      -95.700      -43.635      -12.600       26.889       25.635       23.229      723.014      657.168      539.578        0.657        0.096      105.179       15.939        0.023      336.321        7.544      870.317
11/12/2013  23:52:00     -136.174      -16.447      -21.357       34.172       36.600       23.214     1167.742     1339.593      538.907        1.116        0.152      137.163       16.079        0.014      336.317        7.537      870.317
11/12/2013  23:53:00     -151.809      -13.806      -17.809       31.821       29.501       19.797     1012.583      870.331      391.937        1.291        0.114      152.435        8.559        0.003      336.265        7.452      870.320
11/12/2013  23:54:00     -129.661      -35.768      -15.276       27.061       27.610       18.016      732.302      762.320      324.567        1.007        0.091      134.504       16.073        0.014      336.274        7.466      870.303
11/12/2013  23:55:00     -117.054      -50.580      -10.594       28.209       33.043       21.045      795.744     1091.870      442.906        0.935        0.117      127.515       16.507        0.017      336.305        7.516      870.286
11/12/2013  23:56:00     -113.006      -36.008       -7.331       34.739       28.376       18.077     1206.776      805.188      326.793        0.823        0.117      118.604       13.063        0.012      336.286        7.485      870.281
11/12/2013  23:57:00      -42.036      -47.845        0.123       38.817       32.550       18.427     1506.736     1059.526      339.562        0.348        0.145       63.688       19.492        0.094      336.331        7.561      870.268
11/12/2013  23:58:00     -107.782      -32.866       -8.548       36.725       27.610       23.344     1348.711      762.320      544.964        0.771        0.133      112.682       22.963        0.042      336.278        7.472      870.256
11/12/2013  23:59:00      -45.243      -41.146       -4.637       40.572       36.134       18.609     1646.115     1305.690      346.313        0.353        0.165       61.155       14.476        0.056      336.281        7.475      870.249
